[[{"header":{"parameterUnit":"m.s-1","parameterCategory":1,"la1":30.6,"la2":28.766,"lo1":-90.7593,"lo2":-88.6598,"dy":0.0162,"dx":0.0183,"nx":116,"ny":114,"refTime":"2023-06-06T12:00:00:Z","depth":0,"parameterNumber":2,"parameterNumberName":"U-component_of_WINDS"},"data":[0.0,0.0,0.0,0.0,0.0,0.0,0.0,0.0,0.0,0.0,0.0,0.0,0.0,0.0,0.0,0.0,0.0,0.0,0.0,0.0,0.0,0.0,0.0,0.0,0.0,0.0,0.0,0.0,0.0,0.0,0.0,0.0,0.0,0.0,0.0,0.0,0.0,0.0,0.0,0.0,0.0,0.0,0.0,0.0,0.0,0.0,0.0,0.0,0.0,0.0,0.0,0.0,0.0,0.0,0.0,0.0,0.0,0.0,0.0,0.0,0.0,0.0,0.0,0.0,0.0,0.0,0.0,0.0,0.0,0.0,0.0,0.0,0.0,0.0,0.0,0.0,0.0,0.0,0.0,0.0,0.0,0.0,0.0,0.0,0.0,0.0,0.0,0.0,0.0,0.0,0.0,0.0,0.0,0.0,0.0,0.0,0.0,0.0,0.0,0.0,0.0,0.0,0.0,0.0,0.0,0.0,0.0,0.0,0.0,0.0,0.0,0.0,0.0,0.0,0.0,0.0,0.0,0.0,0.0,0.0,0.0,0.0,0.0,0.0,0.0,0.0,0.0,0.0,0.0,0.0,0.0,0.0,0.0,0.0,0.0,0.0,0.0,0.0,0.0,0.0,0.0,0.0,0.0,0.0,0.0,0.0,0.0,0.0,0.0,0.0,0.0,0.0,0.0,0.0,0.0,0.0,0.0,0.0,0.0,0.0,0.0,0.0,0.0,0.0,0.0,0.0,0.0,0.0,0.0,0.0,0.0,0.0,0.0,0.0,0.0,0.0,0.0,0.0,0.0,0.0,0.0,0.0,0.0,0.0,0.0,0.0,0.0,0.0,0.0,0.0,0.0,0.0,0.0,0.0,0.0,0.0,0.0,0.0,0.0,0.0,0.0,0.0,0.0,0.0,0.0,0.0,0.0,0.0,0.0,0.0,0.0,0.0,0.0,0.0,0.0,0.0,0.0,0.0,0.0,0.0,0.0,0.0,0.0,0.0,0.0,0.0,0.0,0.0,0.0,0.0,0.0,0.0,0.0,0.0,0.0,0.0,0.0,0.0,0.0,0.0,0.0,0.0,0.0,0.0,0.0,0.0,0.0,0.0,0.0,0.0,0.0,0.0,0.0,0.0,0.0,0.0,0.0,0.0,0.0,0.0,0.0,0.0,0.0,0.0,0.0,0.0,0.0,0.0,0.0,0.0,0.0,0.0,0.0,0.0,0.0,0.0,0.0,0.0,0.0,0.0,0.0,0.0,0.0,0.0,0.0,0.0,0.0,0.0,0.0,0.0,0.0,0.0,0.0,0.0,0.0,0.0,0.0,0.0,0.0,0.0,0.0,0.0,0.0,0.0,0.0,0.0,0.0,0.0,0.0,0.0,0.0,0.0,0.0,0.0,0.0,0.0,0.0,0.0,0.0,0.0,0.0,0.0,0.0,0.0,0.0,0.0,0.0,0.0,0.0,0.0,0.0,0.0,0.0,0.0,0.0,0.0,0.0,0.0,0.0,0.0,0.0,0.0,0.0,0.0,0.0,0.0,0.0,0.0,0.0,0.0,0.0,0.0,0.0,0.0,0.0,0.0,0.0,0.0,0.0,0.0,0.0,0.0,0.0,0.0,0.0,0.0,0.0,0.0,0.0,0.0,0.0,0.0,0.0,0.0,0.0,0.0,0.0,0.0,0.0,0.0,0.0,0.0,0.0,0.0,0.0,0.0,0.0,0.0,0.0,0.0,0.0,0.0,0.0,0.0,0.0,0.0,0.0,0.0,0.0,0.0,0.0,0.0,0.0,0.0,0.0,0.0,0.0,0.0,0.0,0.0,0.0,0.0,0.0,0.0,0.0,0.0,0.0,0.0,0.0,0.0,0.0,0.0,0.0,0.0,0.0,0.0,0.0,0.0,0.0,0.0,0.0,0.0,0.0,0.0,0.0,0.0,0.0,0.0,0.0,0.0,0.0,0.0,0.0,0.0,0.0,0.0,0.0,0.0,0.0,0.0,0.0,0.0,0.0,0.0,0.0,0.0,0.0,0.0,0.0,0.0,0.0,0.0,0.0,0.0,0.0,0.0,0.0,0.0,0.0,0.0,0.0,0.0,0.0,0.0,0.0,0.0,0.0,0.0,0.0,0.0,0.0,0.0,0.0,0.0,0.0,0.0,0.0,0.0,0.0,0.0,0.0,0.0,0.0,0.0,0.0,0.0,0.0,0.0,0.0,0.0,0.0,0.0,0.0,0.0,0.0,0.0,0.0,0.0,0.0,0.0,0.0,0.0,0.0,0.0,0.0,0.0,0.0,0.0,0.0,0.0,0.0,0.0,0.0,0.0,0.0,0.0,0.0,0.0,0.0,0.0,0.0,0.0,0.0,0.0,0.0,0.0,0.0,0.0,0.0,0.0,0.0,0.0,0.0,0.0,0.0,0.0,0.0,0.0,0.0,0.0,0.0,0.0,0.0,0.0,0.0,0.0,0.0,0.0,0.0,0.0,0.0,0.0,0.0,0.0,0.0,0.0,0.0,0.0,0.0,0.0,0.0,0.0,0.0,0.0,0.0,0.0,0.0,0.0,0.0,0.0,0.0,0.0,0.0,0.0,0.0,0.0,0.0,0.0,0.0,0.0,0.0,0.0,0.0,0.0,0.0,0.0,0.0,0.0,0.0,0.0,0.0,0.0,0.0,0.0,0.0,0.0,0.0,0.0,0.0,0.0,0.0,0.0,0.0,0.0,0.0,0.0,0.0,0.0,0.0,0.0,0.0,0.0,0.0,0.0,0.0,0.0,0.0,0.0,0.0,0.0,0.0,0.0,0.0,0.0,0.0,0.0,0.0,0.0,0.0,0.0,0.0,0.0,0.0,0.0,0.0,0.0,0.0,0.0,0.0,0.0,0.0,0.0,0.0,0.0,0.0,0.0,0.0,0.0,0.0,0.0,0.0,0.0,0.0,0.0,0.0,0.0,0.0,0.0,0.0,0.0,0.0,0.0,0.0,0.0,0.0,0.0,0.0,0.0,0.0,0.0,0.0,0.0,0.0,0.0,0.0,0.0,0.0,0.0,0.0,0.0,0.0,0.0,0.0,0.0,0.0,0.0,0.0,0.0,0.0,0.0,0.0,0.0,0.0,0.0,0.0,0.0,0.0,0.0,0.0,0.0,0.0,0.0,0.0,0.0,0.0,0.0,0.0,0.0,0.0,0.0,0.0,0.0,0.0,0.0,0.0,0.0,0.0,0.0,0.0,0.0,0.0,0.0,0.0,0.0,0.0,0.0,0.0,0.0,0.0,0.0,0.0,0.0,0.0,0.0,0.0,0.0,0.0,0.0,0.0,0.0,0.0,0.0,0.0,0.0,0.0,0.0,0.0,0.0,0.0,0.0,0.0,0.0,0.0,0.0,0.0,0.0,0.0,0.0,0.0,0.0,0.0,0.0,0.0,0.0,0.0,0.0,0.0,0.0,0.0,0.0,0.0,0.0,0.0,0.0,0.0,0.0,0.0,0.0,0.0,0.0,0.0,0.0,0.0,0.0,0.0,0.0,0.0,0.0,0.0,0.0,0.0,0.0,0.0,0.0,0.0,0.0,0.0,0.0,0.0,0.0,0.0,0.0,0.0,0.0,0.0,0.0,0.0,0.0,0.0,0.0,0.0,0.0,0.0,0.0,0.0,0.0,0.0,0.0,0.0,0.0,0.0,0.0,0.0,0.0,0.0,0.0,0.0,0.0,0.0,0.0,0.0,0.0,0.0,0.0,0.0,0.0,0.0,0.0,0.0,0.0,0.0,0.0,0.0,0.0,0.0,0.0,0.0,0.0,0.0,0.0,0.0,0.0,0.0,0.0,0.0,0.0,0.0,0.0,0.0,0.0,0.0,0.0,0.0,0.0,0.0,0.0,0.0,0.0,0.0,0.0,0.0,0.0,0.0,0.0,0.0,0.0,0.0,0.0,0.0,0.0,0.0,0.0,0.0,0.0,0.0,0.0,0.0,0.0,0.0,0.0,0.0,0.0,0.0,0.0,0.0,0.0,0.0,0.0,0.0,0.0,0.0,0.0,0.0,0.0,0.0,0.0,0.0,0.0,0.0,0.0,0.0,0.0,0.0,0.0,0.0,0.0,0.0,0.0,0.0,0.0,0.0,0.0,0.0,0.0,0.0,0.0,0.0,0.0,0.0,0.0,0.0,0.0,0.0,0.0,0.0,0.0,0.0,0.0,0.0,0.0,0.0,0.0,0.0,0.0,0.0,0.0,0.0,0.0,0.0,0.0,0.0,0.0,0.0,0.0,0.0,0.0,0.0,0.0,0.0,0.0,0.0,0.0,0.0,0.0,0.0,0.0,0.0,0.0,0.0,0.0,0.0,0.0,0.0,0.0,0.0,0.0,0.0,0.0,0.0,0.0,0.0,0.0,0.0,0.0,0.0,0.0,0.0,0.0,0.0,0.0,0.0,0.0,0.0,0.0,0.0,0.0,0.0,0.0,0.0,0.0,0.0,0.0,0.0,0.0,0.0,0.0,0.0,0.0,0.0,0.0,0.0,0.0,0.0,0.0,0.0,0.0,0.0,0.0,0.0,0.0,0.0,0.0,0.0,0.0,0.0,0.0,0.0,0.0,0.0,0.0,0.0,0.0,0.0,0.0,0.0,0.0,0.0,0.0,0.0,0.0,0.0,0.0,0.0,0.0,0.0,0.0,0.0,0.0,0.0,0.0,0.0,0.0,0.0,0.0,0.0,0.0,0.0,0.0,0.0,0.0,0.0,0.0,0.0,0.0,0.0,0.0,0.0,0.0,0.0,0.0,0.0,0.0,0.0,0.0,0.0,0.0,0.0,0.0,0.0,0.0,0.0,0.0,0.0,0.0,0.0,0.0,0.0,0.0,0.0,0.0,0.0,0.0,0.0,0.0,0.0,0.0,0.0,0.0,0.0,0.0,0.0,0.0,0.0,0.0,0.0,0.0,0.0,0.0,0.0,0.0,0.0,0.0,0.0,0.0,0.0,0.0,0.0,0.0,0.0,0.0,0.0,0.0,0.0,0.0,0.0,0.0,0.0,0.0,0.0,0.0,0.0,0.0,0.0,0.0,0.0,0.0,0.0,0.0,0.0,0.0,0.0,0.0,0.0,0.0,0.0,0.0,0.0,0.0,0.0,0.0,0.0,0.0,0.0,0.0,0.0,0.0,0.0,0.0,0.0,0.0,0.0,0.0,0.0,0.0,0.0,0.0,0.0,0.0,0.0,0.0,0.0,0.0,0.0,0.0,0.0,0.0,0.0,0.0,0.0,0.0,0.0,0.0,0.0,0.0,0.0,0.0,0.0,0.0,0.0,0.0,0.0,0.0,0.0,0.0,0.0,0.0,0.0,0.0,0.0,0.0,0.0,0.0,0.0,0.0,0.0,0.0,0.0,0.0,0.0,0.0,0.0,0.0,0.0,0.0,0.0,0.0,0.0,0.0,0.0,0.0,0.0,0.0,0.0,0.0,0.0,0.0,0.0,0.0,0.0,0.0,0.0,0.0,0.0,0.0,0.0,0.0,0.0,0.0,0.0,0.0,0.0,0.0,0.0,0.0,0.0,0.0,0.0,0.0,0.0,0.0,0.0,0.0,0.0,0.0,0.0,0.0,0.0,0.0,0.0,0.0,0.0,0.0,0.0,0.0,0.0,0.0,0.0,0.0,0.0,0.0,0.0,0.0,0.0,0.0,0.0,0.0,0.0,0.0,0.0,0.0,0.0,0.0,0.0,0.0,0.0,0.0,0.0,0.0,0.0,0.0,0.0,0.0,0.0,0.0,0.0,0.0,0.0,0.0,0.0,0.0,0.0,0.0,0.0,0.0,0.0,0.0,0.0,0.0,0.0,0.0,0.0,0.0,0.0,0.0,0.0,0.0,0.0,0.0,0.0,0.0,0.0,0.0,0.0,0.0,0.0,0.0,0.0,0.0,0.0,0.0,0.0,0.0,0.0,0.0,0.0,0.0,0.0,0.0,0.0,0.0,0.0,0.0,0.0,0.0,0.0,0.0,0.0,0.0,0.0,0.0,0.0,0.0,0.0,0.0,0.0,0.0,0.0,0.0,0.0,0.0,0.0,0.0,0.0,0.0,0.0,0.0,0.0,0.0,0.0,0.0,-3.5695,0.0,0.0,0.0,0.0,0.0,0.0,0.0,0.0,0.0,0.0,0.0,0.0,0.0,0.0,0.0,0.0,0.0,0.0,0.0,0.0,0.0,0.0,0.0,0.0,0.0,0.0,0.0,0.0,0.0,0.0,0.0,0.0,0.0,0.0,0.0,0.0,0.0,0.0,0.0,-3.8391,-3.8278,-3.8049,-3.8049,-3.8049,-3.8049,0.0,0.0,0.0,0.0,0.0,0.0,0.0,0.0,0.0,0.0,0.0,0.0,0.0,0.0,0.0,0.0,0.0,0.0,0.0,0.0,0.0,0.0,0.0,0.0,0.0,0.0,0.0,0.0,0.0,0.0,0.0,0.0,0.0,0.0,0.0,0.0,0.0,0.0,0.0,0.0,0.0,0.0,0.0,0.0,0.0,0.0,0.0,0.0,0.0,0.0,0.0,0.0,0.0,0.0,0.0,0.0,0.0,0.0,0.0,0.0,0.0,0.0,0.0,0.0,0.0,0.0,0.0,0.0,0.0,0.0,0.0,-3.5394,0.0,0.0,0.0,0.0,0.0,0.0,0.0,0.0,0.0,0.0,0.0,0.0,0.0,0.0,0.0,0.0,0.0,0.0,0.0,0.0,0.0,0.0,0.0,0.0,-3.5736,-3.6384,-3.6174,0.0,0.0,0.0,0.0,0.0,0.0,0.0,0.0,-3.8391,-3.8391,-3.8391,-3.8323,-3.8078,-3.77,-3.7596,-3.7508,-3.7449,-3.7508,0.0,0.0,0.0,0.0,0.0,0.0,0.0,0.0,0.0,0.0,0.0,0.0,0.0,0.0,0.0,0.0,0.0,0.0,0.0,0.0,0.0,0.0,0.0,0.0,0.0,0.0,0.0,0.0,0.0,0.0,0.0,0.0,0.0,0.0,0.0,0.0,0.0,0.0,0.0,0.0,0.0,0.0,0.0,0.0,0.0,0.0,0.0,0.0,0.0,0.0,0.0,0.0,0.0,0.0,0.0,0.0,0.0,0.0,0.0,0.0,0.0,0.0,0.0,-3.782,-3.7848,-3.7889,-3.8428,-3.8365,-3.7765,-3.6611,-3.5963,-3.5758,-3.5758,0.0,0.0,0.0,0.0,0.0,0.0,0.0,0.0,0.0,0.0,0.0,0.0,0.0,0.0,0.0,0.0,0.0,0.0,0.0,0.0,0.0,-3.637,-3.6393,-3.6937,-3.6701,-3.6712,0.0,0.0,0.0,0.0,0.0,0.0,-3.8391,-3.8391,-3.8391,-3.8391,-3.7992,-3.7759,-3.77,-3.7238,-3.6799,-3.6414,-3.683,-3.6738,-3.629,0.0,0.0,0.0,0.0,0.0,0.0,0.0,0.0,0.0,0.0,0.0,0.0,0.0,0.0,0.0,0.0,0.0,0.0,0.0,0.0,0.0,0.0,0.0,0.0,0.0,0.0,0.0,0.0,0.0,0.0,0.0,0.0,0.0,0.0,0.0,0.0,0.0,0.0,0.0,0.0,0.0,-3.467,-3.391,0.0,0.0,0.0,0.0,0.0,0.0,0.0,0.0,0.0,0.0,0.0,0.0,0.0,-3.7549,-3.8047,-3.8047,-3.8391,-3.9162,-3.9162,-3.9179,-3.9234,-3.9329,-3.9329,-3.9218,-3.9044,0.0,-3.7225,-3.7225,0.0,0.0,0.0,0.0,0.0,0.0,0.0,0.0,0.0,0.0,0.0,0.0,0.0,0.0,0.0,0.0,0.0,0.0,0.0,0.0,0.0,-3.7143,-3.7251,-3.7878,-3.7656,-3.7692,-3.8106,0.0,0.0,0.0,0.0,-3.8391,-3.8391,-3.8391,-3.8391,-3.8391,-3.8193,-3.7786,-3.7238,-3.6996,-3.6523,-3.5829,-3.6037,-3.6005,-3.5797,-3.5797,0.0,0.0,0.0,0.0,0.0,0.0,0.0,0.0,0.0,0.0,0.0,0.0,0.0,0.0,0.0,0.0,0.0,0.0,0.0,0.0,0.0,0.0,0.0,0.0,0.0,0.0,0.0,0.0,0.0,0.0,0.0,0.0,0.0,0.0,0.0,0.0,0.0,0.0,0.0,-3.4713,-3.4637,-3.4608,-3.4953,-3.5304,0.0,0.0,0.0,0.0,0.0,0.0,0.0,0.0,0.0,-3.6435,-3.715,-3.7791,-3.823,-3.823,-3.8614,-3.9344,-3.9688,-3.9844,-3.9918,-4.0746,-4.0717,-4.002,-4.0462,-3.9898,-3.8618,-3.8618,-3.8618,-3.8586,0.0,0.0,0.0,0.0,-3.751,-3.751,0.0,0.0,0.0,0.0,0.0,0.0,0.0,0.0,0.0,0.0,0.0,0.0,-3.8286,-3.799,-3.8095,-3.8841,-3.8574,-3.8463,-3.8662,-3.8711,0.0,0.0,-3.8391,-3.8391,-3.8391,-3.8391,-3.8391,-3.8391,-3.8278,-3.7786,-3.689,-3.6784,-3.629,-3.5504,-3.5504,-3.5504,-3.5504,-3.5504,-3.5504,-3.5504,0.0,0.0,0.0,0.0,0.0,0.0,0.0,0.0,0.0,0.0,0.0,0.0,0.0,0.0,0.0,0.0,0.0,0.0,0.0,0.0,0.0,0.0,0.0,0.0,0.0,0.0,0.0,0.0,0.0,0.0,0.0,0.0,0.0,0.0,0.0,0.0,0.0,-3.5013,-3.5235,-3.5908,-3.5998,-3.6252,0.0,0.0,0.0,0.0,0.0,0.0,-3.6868,-3.7121,-3.7257,-3.7242,-3.7544,-3.7886,-3.8352,-3.839,-3.8743,-3.9483,-3.9921,-4.0248,-4.0487,-4.1812,-4.1868,-4.0951,-4.1774,-4.1541,-4.053,-3.9803,-3.9503,-3.9455,-3.8965,-3.8776,-3.8713,-3.8191,-3.8016,-3.8016,0.0,0.0,0.0,0.0,0.0,0.0,0.0,0.0,0.0,0.0,0.0,-3.8286,-3.9311,-3.8903,-3.8858,-3.9682,-3.9156,-3.8662,-3.8448,-3.842,-3.8391,-3.8391,-3.8391,-3.8391,-3.8391,-3.8391,-3.8391,-3.8391,-3.7963,-3.7433,-3.689,-3.643,-3.5973,-3.5504,-3.5504,-3.5504,-3.5504,-3.5504,-3.5504,-3.5504,-3.5504,0.0,0.0,0.0,0.0,0.0,0.0,0.0,0.0,0.0,0.0,0.0,0.0,0.0,0.0,0.0,0.0,0.0,0.0,0.0,0.0,0.0,0.0,0.0,0.0,0.0,0.0,0.0,0.0,0.0,0.0,0.0,0.0,0.0,0.0,0.0,0.0,0.0,0.0,-3.724,-3.7315,0.0,0.0,0.0,0.0,-3.8686,-3.8694,-3.8339,-3.7606,-3.7567,-3.7646,-3.7835,-3.785,-3.8185,-3.8844,-3.8844,-3.9207,-3.9983,-4.0012,-4.0393,-4.1189,-4.2025,-4.2375,-4.235,-4.3231,-4.3545,-4.3261,-4.0609,-3.9503,-3.9503,-3.9455,-3.9455,-3.9455,-3.9408,-3.9392,-3.9392,0.0,0.0,0.0,0.0,0.0,0.0,0.0,0.0,0.0,-3.8065,-3.8853,-3.9468,-3.9853,-3.9531,-3.9556,-4.0195,-3.9523,-3.9098,-3.9179,-3.8843,-3.8572,-3.8408,-3.8391,-3.8391,-3.8391,-3.8391,-3.8391,-3.8391,-3.7934,-3.7433,-3.689,-3.6399,-3.5941,-3.5504,-3.5504,-3.5504,-3.5504,-3.5504,-3.5504,-3.5504,-3.5504,-3.5522,0.0,0.0,0.0,0.0,0.0,0.0,0.0,0.0,0.0,0.0,0.0,0.0,0.0,0.0,0.0,0.0,0.0,0.0,0.0,0.0,0.0,0.0,0.0,0.0,0.0,0.0,0.0,0.0,0.0,0.0,0.0,0.0,0.0,0.0,0.0,0.0,0.0,-3.8018,-3.8437,0.0,-3.9035,-3.882,-3.8677,-3.8804,-3.8693,-3.8481,-3.8171,-3.8334,-3.846,-3.855,-3.8524,-3.8677,-3.8902,-3.8902,-3.901,-3.9321,-3.9678,-4.0026,-4.0366,-4.2123,-4.2682,-4.2365,-4.3738,-4.4082,-4.3608,-4.2631,-4.222,-4.2092,-4.1209,-4.0846,-4.0735,-3.9835,-3.9503,-3.9503,0.0,0.0,0.0,0.0,0.0,0.0,0.0,0.0,-3.7733,-3.9336,-3.9866,-4.0171,-4.0328,-4.0129,-4.0028,-4.0112,-3.9688,-3.9348,-3.9206,-3.8843,-3.86,-3.8408,-3.8391,-3.8391,-3.8391,-3.8391,-3.8307,-3.8164,-3.7847,-3.7344,-3.6677,-3.6352,-3.5941,-3.5504,-3.5504,-3.5504,-3.5504,-3.5504,-3.5504,-3.5504,-3.5554,-3.5554,-3.5537,0.0,0.0,0.0,0.0,0.0,0.0,0.0,0.0,0.0,0.0,0.0,0.0,0.0,0.0,0.0,0.0,0.0,0.0,0.0,0.0,0.0,0.0,0.0,0.0,0.0,0.0,0.0,0.0,0.0,0.0,0.0,0.0,0.0,0.0,0.0,-3.8482,-3.8706,-3.914,-3.9514,-3.9723,-3.9504,-3.9373,-3.9483,-3.9363,-3.9143,-3.8867,-3.8987,-3.9109,-3.9211,-3.9211,-3.931,-3.9535,-3.9535,-3.9535,-3.9535,-3.9901,-4.0083,-4.0182,-4.2232,-4.2946,-4.262,-4.433,-4.4828,-4.4397,-4.4397,-4.4397,-4.429,-4.2868,-4.2315,-4.2205,-4.1257,-4.0925,-4.0925,0.0,0.0,0.0,0.0,0.0,0.0,0.0,-3.7905,-3.8533,-4.035,-4.0303,-4.0296,-4.0731,-4.0659,-4.0269,-3.9489,-3.9655,-3.9411,-3.8476,-3.8391,-3.8391,-3.8391,-3.8391,-3.8391,-3.8391,-3.8391,-3.8164,-3.773,-3.77,-3.718,-3.6258,-3.6241,-3.5987,-3.5564,-3.5549,-3.5534,-3.5534,-3.5519,-3.5504,-3.5537,-3.5638,-3.5621,-3.5537,0.0,0.0,0.0,0.0,0.0,0.0,0.0,0.0,0.0,0.0,0.0,0.0,0.0,0.0,0.0,0.0,0.0,0.0,0.0,0.0,0.0,0.0,0.0,0.0,0.0,0.0,0.0,0.0,0.0,0.0,0.0,0.0,0.0,-3.8512,-3.8422,-3.8676,-3.9364,-3.9454,-3.9709,-4.0367,-4.0427,-4.0547,-4.079,-4.084,-4.0466,-3.9619,-3.9622,-3.9733,-3.9887,-3.9915,-4.0196,-4.0744,-4.0758,-4.0758,-4.0758,-4.0758,-4.0758,-4.0844,-4.2456,-4.3245,-4.3364,-4.507,-4.5834,-4.5839,-4.5839,-4.5823,-4.5665,-4.4255,-4.3718,-4.3718,-4.369,-4.369,-4.3687,0.0,0.0,0.0,0.0,0.0,0.0,0.0,-3.7905,-3.8533,-4.035,-4.0303,-4.0246,-4.0611,-4.0441,-4.0195,-3.9876,-3.9645,-3.9358,-3.899,-3.8628,-3.8391,-3.8391,-3.8391,-3.8391,-3.8391,-3.8391,-3.8351,-3.8193,-3.7476,-3.7217,-3.7405,-3.6734,-3.658,-3.6866,-3.6417,-3.6222,-3.6178,-3.5714,-3.5554,-3.5638,-3.5688,-3.5688,-3.5671,0.0,0.0,0.0,0.0,0.0,0.0,0.0,0.0,0.0,0.0,0.0,0.0,0.0,0.0,0.0,0.0,0.0,0.0,0.0,0.0,0.0,0.0,0.0,0.0,0.0,0.0,0.0,0.0,0.0,0.0,0.0,-3.929,-3.9349,-3.917,-3.914,-3.9379,-4.0053,-4.0127,-4.0382,-4.1055,-4.1115,-4.1152,-4.1217,-4.1824,-4.1917,-4.1348,-4.2215,-4.2467,-4.1841,-4.2148,-4.2263,-4.2064,-4.2064,-4.2064,-4.2064,-4.2064,-4.2064,-4.2095,-4.3156,-4.4,-4.4728,-4.5815,-4.6396,-4.6534,-4.6534,-4.625,-4.5713,-4.4796,-4.4448,-4.4385,-4.3895,-4.3722,-4.3687,0.0,0.0,0.0,0.0,0.0,0.0,0.0,-3.8108,-3.8824,-4.0805,-4.0628,-4.0402,-4.0676,-4.0761,-4.0577,-3.9961,-3.9817,-3.9741,-3.962,-3.9071,-3.8628,-3.8391,-3.8391,-3.8391,-3.8391,-3.8391,-3.8177,-3.777,-3.7686,-3.753,-3.7332,-3.7248,-3.7282,-3.7389,-3.7113,-3.6865,-3.6547,-3.6255,-3.6006,-3.5831,-3.5879,-3.5894,-3.5863,-3.6101,-3.6196,-3.6211,-3.6352,-3.6414,-3.6492,-3.6492,0.0,0.0,0.0,0.0,0.0,0.0,0.0,0.0,0.0,0.0,0.0,0.0,0.0,0.0,0.0,0.0,0.0,0.0,0.0,0.0,0.0,0.0,0.0,0.0,-3.9649,-3.9828,-3.9828,-3.9828,-4.0068,-4.0726,-4.0816,-4.107,-4.1767,-4.2043,-4.2312,-4.2581,-4.3328,-4.3581,-4.314,-4.3672,-4.3647,-4.2927,-4.3179,-4.309,-4.2615,-4.2794,-4.2794,-4.2584,-4.2584,-4.2584,-4.2629,-4.3429,-4.4078,-4.4699,-4.5951,-4.6562,-4.6691,-4.6764,-4.6566,0.0,0.0,0.0,0.0,0.0,-4.4571,-4.4571,0.0,0.0,0.0,0.0,0.0,0.0,0.0,-3.8368,-3.9134,-4.1429,-4.1042,-4.0676,-4.0873,-4.1383,-4.123,-4.0036,-4.0226,-4.0324,-4.0119,-3.9463,-3.8898,-3.842,-3.8391,-3.8391,-3.8391,-3.8391,-3.802,-3.7241,-3.8188,-3.8076,-3.6987,-3.7897,-3.8068,-3.7698,-3.7809,-3.7484,-3.6866,-3.694,-3.6613,-3.6037,-3.6148,-3.6116,-3.6037,-3.6179,-3.6242,-3.6242,-3.6242,-3.6352,-3.6492,-3.6492,0.0,0.0,0.0,0.0,0.0,0.0,0.0,0.0,0.0,0.0,0.0,0.0,0.0,0.0,0.0,0.0,0.0,0.0,0.0,0.0,0.0,0.0,0.0,0.0,-4.0083,-4.0531,-4.0606,-4.0621,-4.0846,-4.1452,-4.1602,-4.1901,-4.256,-4.318,-4.3753,-4.4377,-4.5035,-4.5215,-4.4824,0.0,0.0,0.0,0.0,-4.3437,-4.2961,-4.3304,-4.3304,-4.2871,-4.2826,-4.2781,-4.2826,-4.3556,-4.3921,-4.4138,-4.5852,-4.6591,-4.6643,-4.6922,-4.6945,-4.6724,-4.606,-4.5807,-4.5807,-4.5807,-4.5807,-4.5844,0.0,0.0,0.0,0.0,0.0,0.0,0.0,-3.8161,-3.8894,-4.1367,-4.1042,-4.0825,-4.145,-4.1644,-4.1405,-4.0666,-4.0914,-4.0644,-3.9629,-3.8925,-3.8504,-3.8391,-3.8391,-3.8391,-3.8391,-3.8391,-3.8707,-3.9312,-3.8637,-3.8827,-3.9864,-3.9167,-3.9089,-3.9481,-3.899,-3.8383,-3.7713,-3.7203,-3.6677,-3.6164,-3.6179,-3.6164,-3.6179,-3.6383,-3.6445,-3.6445,-3.6445,-3.646,-3.6492,-3.6492,-3.6492,-3.6492,-3.6492,-3.6492,0.0,0.0,0.0,0.0,0.0,0.0,0.0,0.0,0.0,0.0,0.0,0.0,0.0,0.0,0.0,0.0,0.0,0.0,0.0,-4.0217,-4.0771,-4.1422,-4.1946,-4.2021,-4.2066,-4.2186,-4.2695,-4.3254,-4.3868,-4.4526,-4.4975,-4.5095,-4.5738,-4.5915,-4.5445,-4.6191,-4.624,-4.534,-4.5756,-4.5711,-4.5205,-4.4903,-4.4721,-4.463,0.0,0.0,-4.4059,-4.4231,-4.4693,-4.546,-4.6586,-4.7149,-4.7382,-4.8161,-4.7814,-4.6724,-4.606,-4.5807,-4.5807,-4.5807,-4.588,-4.604,0.0,0.0,0.0,0.0,0.0,0.0,0.0,-3.8532,-3.9269,-4.1683,-4.1512,-4.1293,-4.1666,-4.1878,-4.1813,-4.1293,-4.123,-4.0685,-3.9489,-3.9017,-3.875,-3.86,-3.8476,-3.8448,-3.86,-3.8476,-3.8601,-3.9058,-3.9082,-3.9361,-3.9862,-3.9865,-3.994,-3.9996,-3.9771,-3.9089,-3.808,-3.7844,-3.7223,-3.6352,-3.6352,-3.6352,-3.6352,-3.646,-3.6492,-3.6492,-3.6492,-3.6492,-3.6492,-3.6492,-3.6492,-3.6492,-3.6492,-3.6492,-3.6492,0.0,0.0,0.0,0.0,0.0,0.0,0.0,0.0,0.0,0.0,0.0,0.0,0.0,0.0,-3.9622,-3.9858,0.0,-4.0502,-4.0846,-4.1482,-4.2021,-4.2351,-4.2965,-4.3344,-4.3344,-4.3643,-4.4107,-4.4751,-4.5424,-4.5813,-4.5813,-4.6441,-4.6687,-4.6471,-4.6768,-4.6727,-4.621,-4.6447,-4.6358,-4.5837,-4.5566,-4.5338,-4.5078,-4.463,-4.4411,-4.4411,-4.4411,-4.4676,-4.5187,-4.6579,-4.7267,-4.741,-4.809,-4.7842,-4.6887,-4.6222,-4.588,-4.5807,-4.5807,-4.5932,-4.6112,0.0,0.0,0.0,0.0,0.0,0.0,0.0,0.0,-3.9594,-4.1777,-4.1853,-4.1731,-4.1796,-4.2124,-4.2166,-4.1839,-4.1343,-4.0631,-3.9638,-3.9348,-3.9071,-3.8805,-3.8639,-3.8655,-3.8871,-3.8683,-3.8585,-3.8716,-3.9443,-3.9598,-3.9293,-4.0171,-4.0262,-3.9721,-4.0017,-3.9382,-3.808,-3.8242,-3.7615,-3.6492,-3.6492,-3.6492,-3.6492,-3.6492,-3.6492,-3.6492,-3.6492,-3.6492,-3.6492,-3.6492,-3.6492,-3.6492,-3.6492,-3.6492,-3.6522,-3.6645,-3.6692,0.0,0.0,0.0,0.0,0.0,0.0,0.0,0.0,-3.9768,-3.9727,-3.9826,-3.9712,-3.9813,-4.0472,-4.0696,-4.095,-4.1527,-4.2171,-4.2635,-4.277,-4.3643,-4.4407,-4.4676,-4.4706,-4.4915,-4.5439,-4.6112,-4.6474,-4.6474,-4.701,-4.7309,-4.7309,-4.6946,-4.6727,-4.6727,-4.6727,-4.6535,-4.6106,-4.6016,-4.5747,-4.5398,-4.4894,-4.4676,-4.4676,-4.4676,-4.4755,-4.4972,-4.6798,-4.7586,-4.7627,-4.7903,-4.7691,-4.7071,-4.6402,-4.606,-4.5916,-4.5916,-4.6024,-4.6203,0.0,0.0,0.0,0.0,0.0,0.0,0.0,0.0,0.0,-4.0989,-4.1516,-4.1835,-4.2187,-4.2267,-4.2287,-4.2246,-4.1378,-4.0648,-4.0234,-3.9577,-3.9071,-3.8805,-3.9007,-3.9125,-3.9152,-3.9125,-3.957,-4.0496,-3.9505,-3.945,-4.0214,-3.984,-3.9308,-3.8703,-3.9302,-3.8844,-3.7583,-3.7615,-3.7184,-3.6492,-3.6492,-3.6492,-3.6492,-3.6492,-3.6492,-3.6492,-3.6492,-3.6492,-3.6492,-3.6492,-3.6492,-3.6492,-3.6492,-3.6492,-3.6615,-3.7215,-3.7384,-3.7661,-3.8921,-3.9665,-4.0043,-4.0001,-4.0011,-3.9905,0.0,-3.9589,-3.9826,-4.0246,-4.0292,-4.0487,-4.1145,-4.1782,-4.2201,-4.2276,-4.2806,-4.3394,-4.4003,-4.4227,-4.4766,-4.5906,-4.6055,-4.6127,-4.6202,-4.68,-4.7189,-4.7189,-4.7264,-4.7309,-4.7309,-4.7266,-4.7222,-4.7222,-4.7222,-4.7164,-4.7121,-4.6727,-4.6491,-4.6417,-4.5896,-4.5656,-4.5656,-4.5656,-4.5987,-4.6637,-4.8278,-4.9005,-4.8975,-4.8594,-4.8008,-4.7289,-4.655,-4.6262,-4.6227,-4.6227,-4.6369,-4.6528,0.0,0.0,0.0,0.0,0.0,0.0,0.0,0.0,0.0,0.0,-4.1647,-4.2107,-4.2287,-4.2308,-4.2308,-4.2308,-4.1556,-4.0955,-4.0625,-3.9935,-3.948,-3.9319,-3.9232,-3.9286,-3.9504,-3.9286,-3.9364,-3.9683,-3.9162,-3.9052,-3.9298,-3.9048,-3.8785,-3.8523,-3.88,-3.84,-3.7507,-3.7507,-3.7107,-3.6492,-3.6492,-3.6492,-3.6492,-3.6492,-3.6492,-3.6492,-3.6492,-3.6492,0.0,-3.6492,-3.6492,-3.6492,-3.6492,-3.6769,-3.7138,-3.7415,-3.7784,-3.8242,-3.9008,-3.9653,-4.0031,-3.9747,-3.9926,-4.0175,-4.0029,-4.0351,-4.0748,-4.0958,-4.0965,-4.1175,-4.1871,-4.2216,-4.2515,-4.2865,-4.3125,-4.3529,-4.4227,-4.4646,-4.5244,-4.6217,-4.6623,-4.689,-4.689,-4.7145,-4.7309,-4.7309,-4.7309,-4.7309,-4.7309,-4.7309,-4.7309,-4.7309,-4.7309,-4.7309,-4.7309,-4.6815,-4.6594,-4.6594,-4.6076,-4.5792,-4.5822,-4.6196,-4.6821,-4.7594,-4.7818,-4.8246,-4.8695,-4.8104,-4.775,-4.7485,-4.6747,-4.6528,-4.6615,-4.6369,-4.6439,-4.6582,0.0,0.0,0.0,0.0,0.0,0.0,0.0,0.0,0.0,0.0,0.0,-4.2037,-4.229,-4.2308,-4.2308,-4.2308,-4.1753,-4.1276,-4.0972,-4.0358,-3.9969,-3.9825,-3.9592,-3.9566,-3.9807,-3.9566,-3.9373,-3.9231,-3.8914,-3.8654,-3.845,-3.8285,-3.8138,-3.7969,-3.8138,-3.7861,-3.7215,-3.7215,-3.6938,-3.6492,-3.6492,-3.6492,-3.6492,-3.6492,-3.6492,-3.6492,-3.6492,-3.6492,-3.6492,-3.6492,-3.6492,-3.6492,-3.6492,-3.6953,-3.7538,-3.7723,-3.8385,-3.9103,-3.9352,-3.9838,-4.0213,-3.9911,-4.0261,-4.0666,-4.0666,-4.104,-4.1467,-4.1647,-4.1692,-4.1886,-4.2506,-4.2626,-4.2776,-4.3215,-4.329,-4.3589,-4.4466,-4.4783,-4.531,-4.6444,-4.6779,-4.7019,-4.7266,-4.7309,-4.7309,-4.7309,-4.7309,-4.7309,-4.7309,-4.7309,-4.7309,-4.7309,-4.7309,-4.7309,-4.7309,-4.6946,-4.6771,-4.6771,-4.6212,-4.602,-4.6211,-4.6839,-4.7477,-4.7997,-4.7689,-4.7807,-4.8162,-4.7722,-4.7545,-4.7426,-4.6878,-4.6772,-4.6842,-4.658,-4.658,-4.6687,0.0,0.0,0.0,0.0,0.0,0.0,0.0,0.0,0.0,0.0,0.0,0.0,0.0,-4.2308,-4.2308,-4.2308,-4.192,-4.1583,-4.1303,-4.0832,-4.0458,-4.0195,-4.0104,-4.0087,-4.007,-4.0087,-4.0062,-4.0054,-3.8882,-3.8327,-3.8274,-3.7763,-3.7184,-3.6584,-3.723,-3.7153,-3.6522,-3.6522,-3.6507,-3.6492,-3.6492,-3.6492,-3.6492,-3.6492,-3.6492,-3.6492,-3.6492,-3.6492,-3.6492,-3.6492,-3.6492,-3.6492,-3.6492,-3.6953,-3.7631,-3.8292,-3.9382,-4.0443,-4.0459,-4.07,-4.0967,-4.0967,-4.1158,-4.1354,-4.1354,-4.1407,-4.1602,-4.2246,-4.2366,-4.256,-4.314,-4.326,-4.3275,-4.329,-4.329,-4.3738,-4.508,-4.4448,-4.4718,-4.6985,-4.6432,-4.6211,-4.7207,-4.7309,-4.7309,-4.7309,-4.7309,-4.7309,-4.7309,-4.7309,-4.7309,-4.7309,-4.7309,-4.7309,-4.7309,-4.7309,-4.7266,-4.7251,-4.6608,-4.6575,-4.7154,-4.7754,-4.7953,-4.7861,-4.8613,-4.8461,-4.7725,-4.7903,-4.7572,-4.6909,-4.6892,-4.6876,-4.6876,-4.6892,-4.6892,-4.6876,0.0,0.0,0.0,0.0,0.0,0.0,0.0,0.0,0.0,0.0,0.0,0.0,0.0,0.0,0.0,0.0,-4.2166,-4.1941,-4.1583,-4.122,-4.0843,-4.0483,-4.0229,-4.0096,-4.0096,-4.0096,-3.9918,-3.9497,-3.9109,-3.849,-3.7695,-3.7534,-3.7079,-3.6507,-3.6738,-3.6707,-3.6492,-3.6492,-3.6492,-3.6492,-3.6492,-3.6492,-3.6492,-3.6492,-3.6492,-3.6492,0.0,-3.6492,-3.6492,-3.6492,-3.6492,-3.6492,-3.6492,-3.7261,-3.8385,-3.949,-4.0136,-4.0597,-4.0953,-4.1031,-4.1067,-4.1382,-4.1776,-4.2066,-4.2066,-4.2357,-4.2731,-4.2955,-4.3015,-4.3075,-4.3245,-4.329,-4.3115,-4.2537,-4.2456,-4.269,-4.3358,-4.3137,-4.3786,-4.6064,-4.6018,-4.6211,-4.7207,0.0,0.0,-4.7309,-4.7309,-4.7309,-4.7309,-4.7309,-4.7309,-4.7309,-4.7309,-4.7309,-4.7309,-4.6875,-4.6651,-4.6651,-4.635,-4.6549,-4.7214,-4.73,-4.7558,-4.7923,-4.7709,-4.744,-4.7179,-4.723,-4.7103,-4.6876,-4.6876,-4.6876,-4.6876,-4.6876,-4.6876,-4.6876,0.0,0.0,0.0,0.0,0.0,0.0,0.0,0.0,0.0,0.0,0.0,0.0,0.0,0.0,0.0,0.0,0.0,-4.2145,-4.1731,-4.1396,-4.1007,-4.0628,-4.0279,-4.0096,-4.0096,-4.0096,-3.9799,-3.9206,-3.8974,-3.8351,-3.7387,-3.7178,-3.6861,-3.6492,-3.6492,-3.6492,-3.6492,-3.6492,-3.6492,-3.6492,-3.6492,-3.6492,-3.6492,-3.6492,-3.6492,0.0,-3.6492,-3.6492,-3.6492,-3.6492,-3.6492,-3.6492,-3.6492,-3.7415,-3.8769,-4.0105,-4.0674,-4.0981,-4.1306,-4.1601,-4.1891,-4.2115,-4.253,-4.2833,-4.2755,-4.2851,-4.2985,-4.2985,-4.2806,-4.2701,-4.294,-4.2985,-4.2862,-4.2508,-4.2456,-4.2565,-4.2922,-4.265,-4.3147,-4.5032,-4.5267,-4.5658,-4.6682,-4.7062,0.0,-4.7309,-4.7309,-4.7309,-4.7309,-4.7309,-4.7309,-4.7309,-4.707,-4.695,-4.695,-4.6292,-4.5912,-4.5906,-4.6085,-4.6361,-4.6793,-4.6907,-4.7184,-4.7572,-4.7103,-4.6876,-4.6876,-4.6876,-4.6876,-4.6876,-4.6876,-4.6876,-4.6876,-4.6876,-4.6876,-4.6876,0.0,0.0,0.0,0.0,0.0,0.0,0.0,0.0,0.0,0.0,0.0,0.0,0.0,0.0,0.0,0.0,0.0,0.0,-4.1753,-4.1396,-4.103,-4.0652,-4.0279,-4.0096,-4.0096,-4.0096,-3.9825,-3.9259,-3.8657,-3.8039,-3.7431,-3.6831,-3.6523,-3.6492,-3.6492,-3.6492,-3.6492,-3.6492,-3.6492,-3.6492,-3.6492,-3.6492,-3.6492,-3.6492,-3.6492,-3.6492,-3.6492,-3.6492,-3.6492,-3.6492,-3.6492,-3.6492,-3.6538,-3.7446,-3.8769,-4.0059,-4.1016,-4.1617,-4.1632,-4.2456,-4.325,-4.3107,-4.3378,-4.3636,-4.3339,-4.2806,-4.2396,-4.2351,-4.1856,-4.1617,-4.2231,-4.2342,-4.2512,-4.3021,-4.3101,-4.3183,-4.3488,-4.2727,-4.2653,-4.4023,-4.4191,-4.4638,-4.5689,-4.6638,0.0,-4.7309,0.0,-4.7309,-4.7309,-4.7279,-4.7249,-4.7249,-4.6621,-4.6277,-4.6277,-4.5589,-4.5227,-4.5168,-4.5773,-4.6033,-4.6036,-4.6617,-4.6876,-4.6876,-4.6876,-4.6876,-4.6876,-4.6876,-4.6876,-4.6876,-4.6876,-4.6876,-4.6876,-4.6876,-4.6876,-4.6876,0.0,0.0,0.0,0.0,0.0,0.0,0.0,0.0,0.0,0.0,0.0,0.0,0.0,0.0,0.0,0.0,0.0,0.0,-4.2166,-4.1552,-4.1146,-4.1053,-4.0427,-4.0096,-4.0096,-4.0096,-4.002,-3.9867,-3.9286,-3.8657,-3.8067,-3.746,-3.6922,-3.6492,-3.6492,-3.6492,-3.6492,-3.6492,-3.6492,-3.6492,-3.6492,-3.6492,-3.6492,-3.6492,-3.6492,-3.6492,-3.6492,-3.6492,-3.6492,-3.6492,-3.6492,-3.6584,-3.7092,-3.7831,-3.8677,-3.949,-4.0647,-4.1709,-4.2217,-4.2794,-4.3395,-4.3861,-4.3812,-4.3554,-4.298,-4.2608,-4.2261,-4.1767,-4.1633,-4.1633,-4.1647,-4.1596,-4.1343,-4.065,-4.0379,-4.0205,-4.0013,-4.0168,-4.0857,-4.233,-4.2903,-4.3862,-4.5644,-4.6018,-4.6491,0.0,-4.7309,-4.7309,-4.7309,-4.6845,-4.6576,-4.6576,-4.5918,-4.5559,-4.5559,-4.49,-4.4534,-4.4465,-4.5075,-4.5578,-4.6036,-4.6617,-4.6876,-4.6876,-4.6876,-4.6876,-4.6876,-4.6876,-4.6876,-4.6876,-4.6876,-4.6876,-4.6876,-4.6876,-4.6876,-4.6876,0.0,0.0,0.0,0.0,0.0,0.0,0.0,0.0,0.0,0.0,0.0,0.0,0.0,0.0,0.0,0.0,0.0,0.0,0.0,-4.1507,-4.1123,-4.0937,-4.0402,-4.0096,-4.0096,-4.0096,-3.985,-3.9322,-3.8957,-3.8351,-3.7504,-3.7178,-3.6831,-3.6492,-3.6492,-3.6492,-3.6492,-3.6492,-3.6492,0.0,0.0,-3.6492,-3.6492,-3.6492,-3.6492,-3.6492,-3.6492,-3.6492,-3.6492,-3.6492,-3.6492,-3.6615,-3.7292,-3.7969,-3.8708,-3.9677,-4.0955,-4.2186,-4.2848,-4.3436,-4.3921,-4.4228,-4.3914,-4.3418,-4.2939,-4.2266,-4.1663,-4.1287,-4.1059,-4.0991,-4.1077,-4.0772,-4.0415,-4.0226,-3.976,-3.9379,-3.9295,-3.9854,-4.0486,-4.1141,-4.2137,-4.3402,-4.4992,-4.5553,-4.6093,-4.6804,-4.6875,-4.6875,-4.6875,-4.6232,-4.5873,-4.5873,-4.5214,-4.4721,-4.4436,-4.4062,-4.3992,-4.422,-4.4812,-4.5405,-4.6036,-4.6617,-4.6876,-4.6876,0.0,-4.6876,-4.6876,-4.6876,-4.6876,-4.6876,-4.6876,-4.6876,-4.6876,-4.6876,-4.6876,-4.6876,0.0,0.0,0.0,0.0,0.0,0.0,0.0,0.0,0.0,0.0,0.0,0.0,0.0,0.0,0.0,0.0,0.0,0.0,0.0,0.0,-4.1007,-4.0628,-4.0279,-4.0096,-4.0096,-4.002,-3.9454,-3.8435,-3.8266,-3.7634,-3.6616,-3.6554,-3.6492,-3.6492,-3.6492,-3.6523,-3.6554,-3.6523,-3.6523,-3.6554,-3.6523,-3.6492,-3.6492,0.0,-3.6492,-3.6492,-3.6492,-3.6492,-3.6492,-3.6492,-3.6492,-3.6599,-3.7184,-3.7892,-3.8769,-3.9982,-4.1447,-4.2756,-4.3424,-4.4101,-4.4518,-4.4274,-4.3754,-4.3152,-4.2834,-4.1817,-4.0931,-4.0876,-4.0441,-4.0142,-4.0507,-3.9929,-3.9667,-4.0437,-3.9965,-3.9559,-3.9663,-4.0256,-4.0596,-4.0219,-4.1554,-4.2835,-4.3794,-4.4821,-4.5624,-4.5962,-4.6013,-4.6055,-4.6145,-4.5544,-4.5125,-4.5035,-4.4481,-4.3873,-4.3305,-4.3369,-4.3732,-4.4335,-4.4924,-4.5551,-4.6143,-4.6668,-4.6876,-4.6876,-4.6876,-4.6876,-4.6876,-4.6876,-4.6876,-4.6876,-4.6876,-4.6876,-4.6876,-4.6876,-4.6876,-4.6876,0.0,0.0,0.0,0.0,0.0,0.0,0.0,0.0,0.0,0.0,-3.8777,-3.9262,0.0,0.0,0.0,0.0,0.0,0.0,0.0,0.0,0.0,-4.0628,-4.0279,-4.0096,-4.0096,-3.9618,-3.9259,-3.9028,-3.8039,-3.7431,-3.7238,-3.6723,-3.6492,-3.6492,-3.6492,-3.6647,-3.6893,-3.6616,-3.6662,-3.6877,-3.6616,-3.6492,-3.6492,-3.6492,0.0,0.0,-3.6492,-3.6492,-3.6492,-3.6492,-3.6492,-3.6507,-3.663,-3.7507,-3.8662,-3.9428,-4.1078,-4.2756,-4.3424,-4.4101,-4.4449,-4.3895,-4.3364,-4.281,-4.1809,-4.1149,-4.0634,-4.0248,-4.0213,-4.0167,-3.9904,-3.9691,-3.9299,-3.849,-3.845,-3.8306,-3.7606,-3.8464,-3.9068,-3.8998,-4.007,-4.1023,-4.16,-4.2924,0.0,0.0,-4.4516,-4.49,-4.5439,-4.484,-4.4242,-4.3648,-4.3529,-4.3409,-4.329,-4.3771,-4.4373,-4.4962,-4.5551,-4.6143,-4.6738,-4.6842,-4.6876,-4.6876,-4.6876,0.0,-4.6876,-4.6876,-4.6876,-4.6876,-4.6876,-4.6876,-4.6876,-4.6876,-4.6876,-4.6876,0.0,0.0,0.0,0.0,0.0,0.0,0.0,-3.8627,-3.853,-3.8415,-3.8563,-3.8885,-3.937,-4.0157,-4.0924,0.0,0.0,0.0,0.0,0.0,0.0,0.0,0.0,0.0,-3.9644,-3.9339,-3.8892,-3.8254,0.0,-3.7238,-3.6922,-3.6631,-3.6492,-3.6492,-3.6492,-3.6585,-3.6724,-3.6554,-3.6677,-3.6984,-3.6616,-3.6616,-3.6754,0.0,0.0,0.0,0.0,-3.6492,-3.6492,-3.6492,-3.6492,-3.6492,-3.6492,-3.7415,-3.8646,-3.929,-4.0986,-4.2756,-4.3424,-4.384,-4.4009,-4.3685,-4.2953,-4.2132,-4.1582,-4.0995,-4.0538,-4.0303,-4.0331,-4.0141,-3.9313,-3.8803,-3.8222,-3.7258,-3.6885,-3.6787,-3.6964,-3.7743,-3.8397,-3.8671,-3.9468,-4.0293,-4.1055,-4.2195,-4.3057,-4.3413,-4.3959,-4.4451,-4.4766,-4.4127,-4.3618,-4.3305,-4.329,-4.329,-4.329,-4.3888,-4.4335,-4.4624,-4.5551,-4.6143,-4.6442,-4.6772,-4.6876,-4.6876,-4.6876,-4.6876,-4.6876,-4.6876,-4.6876,-4.6876,-4.6876,-4.6876,-4.6876,-4.6876,-4.6876,-4.6876,0.0,0.0,0.0,0.0,0.0,0.0,0.0,-3.8707,-3.8643,-3.8481,-3.8465,-3.8573,-3.8832,-3.9517,-4.0269,0.0,0.0,0.0,0.0,0.0,0.0,0.0,0.0,0.0,0.0,0.0,0.0,-3.7417,-3.7268,0.0,0.0,0.0,0.0,0.0,-3.6492,-3.6554,-3.6585,-3.6523,-3.6677,0.0,0.0,-3.6662,0.0,0.0,0.0,0.0,0.0,-3.6492,-3.6492,-3.6492,-3.6492,-3.6492,-3.6492,-3.7323,-3.8462,-3.9244,-4.077,-4.234,-4.314,-4.3408,-4.3362,-4.3223,-4.2247,-4.1362,-4.1366,-4.0784,-4.0316,-4.0455,-4.042,-4.0056,-3.919,-3.8242,-3.736,-3.6754,-3.6041,-3.5854,-3.6716,-3.7325,-3.7913,-3.8462,-3.9063,-3.967,-4.0353,-4.1532,0.0,-4.2479,-4.3493,-4.4107,-4.4107,-4.3574,-4.329,-4.329,-4.329,-4.329,-4.329,-4.3888,-4.4259,-4.4412,-4.5478,-4.6072,-4.6214,-4.6687,-4.6876,-4.6876,-4.6876,-4.6876,-4.6876,-4.6876,-4.6876,-4.6876,-4.6876,-4.6876,-4.6876,-4.6876,-4.6876,-4.6876,0.0,0.0,0.0,0.0,0.0,0.0,0.0,-3.8707,-3.8692,-3.8658,-3.8658,-3.8614,-3.8476,-3.8848,-3.9714,0.0,0.0,0.0,0.0,0.0,0.0,0.0,0.0,0.0,0.0,0.0,0.0,-3.7417,-3.6831,0.0,0.0,0.0,0.0,0.0,0.0,-3.6662,-3.6938,-3.6616,0.0,0.0,0.0,0.0,0.0,0.0,0.0,0.0,0.0,-3.6492,-3.6492,-3.6492,-3.6492,-3.6492,-3.6492,-3.6999,-3.7846,-3.9105,-4.0059,-4.0981,-4.234,-4.2694,-4.2556,-4.194,-4.1131,-4.0532,-4.0596,-4.0031,-3.9702,-4.0351,-4.0106,-3.9859,-4.0121,-3.8863,-3.7615,-3.7197,-3.6698,-3.6335,-3.6184,-3.6711,-3.7312,-3.79,-3.8462,-3.8639,-3.8234,-4.0275,-4.1376,-4.0858,-4.2407,-4.3379,-4.3379,-4.3319,-4.329,-4.329,-4.329,-4.329,-4.329,-4.3888,-4.4488,-4.5036,-4.5697,-4.6301,-4.6807,-4.6876,-4.6876,-4.6876,-4.6876,-4.6876,0.0,-4.6876,-4.6876,-4.6876,-4.6876,-4.6876,-4.6876,-4.6876,-4.6876,-4.6876,0.0,0.0,0.0,0.0,0.0,0.0,-3.8707,-3.8707,-3.8707,-3.8707,-3.8707,-3.8658,-3.8578,-3.8609,-3.9189,-4.056,0.0,0.0,0.0,0.0,0.0,0.0,0.0,0.0,0.0,0.0,-3.7208,-3.6861,-3.6616,0.0,0.0,0.0,0.0,0.0,0.0,-3.6585,-3.6677,-3.6554,0.0,0.0,0.0,0.0,0.0,0.0,0.0,0.0,0.0,0.0,-3.6492,-3.6492,-3.6492,-3.6492,-3.6492,-3.6676,-3.7076,-3.8031,-3.9077,-4.009,-4.1058,-4.1063,-4.0786,-4.0924,-4.0388,-3.9867,-3.9883,-3.999,-4.0141,-4.0455,-4.0071,-3.9559,-3.9066,-3.8115,-3.7102,-3.611,-3.5764,-3.5647,-3.562,-3.6109,-3.6684,-3.7299,-3.7874,-3.8135,0.0,0.0,-4.0481,-4.1394,-4.2618,-4.329,-4.329,-4.329,-4.329,-4.329,-4.329,-4.329,-4.329,-4.4259,-4.4849,-4.511,-4.6072,-4.6668,-4.6876,-4.6876,-4.6876,-4.6876,-4.6876,-4.6633,0.0,-4.6698,-4.6633,-4.6277,-4.6714,-4.6876,-4.6876,-4.6876,-4.6876,-4.6876,0.0,0.0,0.0,0.0,0.0,-3.8707,-3.8707,-3.8707,-3.8707,-3.8707,-3.8707,-3.8707,-3.8707,-3.8465,-3.8731,-3.9769,-4.0235,0.0,0.0,0.0,0.0,0.0,0.0,0.0,0.0,0.0,-3.6922,-3.6492,-3.6492,-3.6492,0.0,0.0,-3.6492,-3.6492,0.0,0.0,0.0,0.0,0.0,0.0,0.0,0.0,0.0,0.0,0.0,0.0,0.0,0.0,0.0,0.0,0.0,-3.6492,-3.6492,-3.6492,-3.663,-3.7292,-3.8169,-3.9062,-3.9721,-3.9434,-3.9088,-3.9562,-3.9318,-3.9036,-3.9222,-3.9638,-3.9995,-3.9971,-3.94,-3.8646,-3.7887,-3.6991,-3.6144,-3.5326,-3.4969,-3.4896,-3.5157,-3.5738,-3.6332,-3.6933,0.0,-3.79,-3.79,-3.8939,-4.0289,-4.1867,-4.2795,-4.329,-4.329,-4.329,-4.329,-4.329,-4.329,-4.329,-4.329,-4.4143,-4.4737,-4.511,-4.5949,-4.6547,-4.6876,-4.6666,-4.6552,-4.6552,-4.6358,-4.6099,0.0,-4.6358,-4.639,-4.618,-4.6682,-4.6876,-4.6876,-4.6876,-4.6876,-4.6876,0.0,0.0,0.0,0.0,0.0,0.0,-3.8707,-3.8707,-3.8707,-3.8707,-3.8707,-3.8707,-3.8707,-3.8334,-3.8342,-3.896,-3.9431,0.0,0.0,0.0,0.0,0.0,0.0,0.0,0.0,0.0,-3.6523,-3.6492,-3.6492,-3.6492,-3.6492,-3.6492,-3.6492,-3.6492,0.0,0.0,0.0,0.0,0.0,0.0,0.0,0.0,0.0,0.0,0.0,0.0,0.0,0.0,0.0,0.0,0.0,0.0,0.0,-3.6492,-3.663,-3.7292,-3.7507,-3.7677,-3.8354,-3.8144,-3.7711,-3.7726,-3.7764,-3.7958,-3.8572,-3.8779,-3.8824,-3.8722,-3.7809,-3.7005,-3.6919,-3.5587,-3.4705,-3.5323,-3.4678,-3.4312,-3.4924,-3.5647,-3.6332,0.0,-3.7534,-3.79,-3.79,-3.9546,-4.0986,-4.1949,-4.2795,0.0,-4.329,-4.329,-4.329,-4.329,-4.329,-4.329,-4.329,-4.3329,-4.3927,-4.511,-4.511,-4.5733,-4.6894,-4.6131,-4.5807,-4.5775,-4.5111,-4.5192,0.0,-4.5807,-4.6228,-4.6911,-4.6876,-4.6876,-4.6876,-4.6876,-4.6876,-4.6876,0.0,0.0,0.0,0.0,0.0,0.0,0.0,-3.8707,-3.8707,-3.8707,-3.8707,-3.8707,-3.8707,-3.8352,-3.8073,-3.7972,-3.8647,0.0,0.0,0.0,0.0,0.0,0.0,0.0,0.0,0.0,-3.6492,-3.6492,-3.6492,-3.6492,-3.6492,-3.6492,-3.6492,-3.6492,-3.6492,0.0,0.0,0.0,0.0,0.0,0.0,0.0,0.0,0.0,0.0,0.0,0.0,0.0,0.0,0.0,0.0,0.0,0.0,0.0,0.0,-3.6216,-3.6547,-3.689,-3.7195,-3.6831,-3.6345,-3.6462,-3.6477,-3.6556,-3.6728,-3.7144,-3.7488,-3.7476,-3.6833,-3.631,-3.6286,-3.5551,-3.4929,-3.4803,-3.4336,-3.4042,-3.4326,-3.5068,0.0,-3.6319,-3.7286,-3.79,0.0,0.0,-4.0731,-4.1029,-4.2441,-4.329,-4.329,-4.329,-4.329,-4.329,-4.329,-4.329,-4.329,-4.3693,-4.4067,-4.444,-4.4838,-4.5167,-4.5451,-4.5208,-4.537,-4.5791,-4.5581,-4.5597,0.0,-4.6342,-4.639,-4.6196,-4.6682,-4.6876,-4.6876,-4.6876,-4.6876,-4.6876,0.0,0.0,0.0,0.0,0.0,0.0,0.0,-3.8707,-3.8707,-3.8707,-3.8707,-3.8643,-3.8499,-3.8118,-3.7703,-3.7321,-3.7815,0.0,0.0,0.0,0.0,0.0,0.0,0.0,0.0,-3.6922,-3.6492,-3.6492,-3.6492,-3.6492,-3.6492,-3.6492,-3.6383,-3.6195,-3.6195,-3.6195,0.0,0.0,0.0,0.0,0.0,0.0,-3.6523,0.0,0.0,0.0,0.0,0.0,0.0,0.0,0.0,0.0,0.0,0.0,0.0,0.0,-3.5608,-3.5906,-3.6022,-3.5565,-3.5111,-3.5209,-3.5419,-3.561,-3.561,-3.6107,-3.6488,-3.6289,-3.5753,-3.5232,-3.5025,-3.4688,-3.4391,-3.4099,-3.3769,-3.3668,-3.4003,0.0,0.0,-3.6658,0.0,0.0,0.0,-3.9193,-4.0073,-4.0073,-4.1755,-4.2676,-4.244,-4.2758,-4.2851,-4.2596,-4.3035,-4.317,-4.297,-4.3331,-4.3479,-4.3412,-4.3988,-4.4506,-4.4876,-4.4801,-4.516,-4.5791,-4.5532,-4.5565,0.0,-4.6293,-4.6374,-4.6261,-4.6714,-4.6876,-4.6876,-4.6876,-4.6876,-4.6876,0.0,0.0,0.0,0.0,0.0,0.0,0.0,-3.8692,-3.8692,-3.8658,-3.8676,-3.8499,-3.8101,-3.7703,-3.7321,-3.6939,0.0,0.0,0.0,0.0,0.0,0.0,0.0,0.0,0.0,-3.6816,-3.6492,-3.6492,-3.6492,-3.6492,-3.6445,-3.6445,-3.6163,-3.564,-3.564,-3.564,0.0,0.0,0.0,0.0,0.0,0.0,0.0,0.0,0.0,0.0,0.0,0.0,0.0,0.0,0.0,0.0,0.0,0.0,0.0,0.0,0.0,0.0,0.0,-3.4442,-3.407,-3.4051,-3.4517,-3.4949,-3.4949,-3.5409,0.0,-3.5078,-3.4534,-3.395,-3.3389,-3.329,-3.329,-3.329,-3.3092,-3.3149,-3.3813,-3.4722,0.0,0.0,-3.79,0.0,-3.79,-3.8671,-3.9183,-3.9156,-4.0873,-4.1642,-4.0963,-4.1838,-4.2051,-4.1399,-4.2596,-4.2955,-4.2336,-4.2381,-4.2395,-4.2379,-4.2911,-4.3792,-4.496,-4.4863,-4.516,0.0,-4.5144,-4.5257,0.0,-4.5888,-4.6277,-4.6876,-4.6876,-4.6876,-4.6876,-4.6876,-4.6876,-4.6876,0.0,0.0,0.0,0.0,0.0,0.0,0.0,0.0,0.0,0.0,-3.8236,-3.8085,-3.7685,-3.7266,-3.6997,0.0,0.0,0.0,0.0,0.0,0.0,0.0,0.0,0.0,0.0,-3.6708,-3.6492,-3.6492,-3.6492,-3.6289,-3.5894,-3.5894,-3.5591,-3.5088,-3.5088,-3.5088,0.0,0.0,0.0,0.0,0.0,0.0,0.0,0.0,0.0,0.0,-3.6116,-3.5894,0.0,0.0,0.0,0.0,0.0,0.0,0.0,0.0,-3.3997,-3.3681,-3.3681,0.0,-3.4016,-3.3612,-3.362,-3.3719,0.0,-3.3832,-3.3903,-3.3762,-3.3593,-3.3459,-3.3319,-3.329,-3.329,-3.329,-3.2734,-3.2674,-3.3758,-3.5054,0.0,-3.7743,-3.79,-3.79,-3.79,-3.8671,-3.902,-3.86,-4.0208,-4.0974,-4.0346,-4.1157,-4.1572,-4.1422,-4.2201,-4.2321,-4.1647,-4.2141,-4.2584,-4.2936,-4.3572,-4.4204,-4.4848,-4.4819,-4.516,-4.5791,-4.5629,0.0,-4.6633,-4.6633,-4.673,-4.6876,-4.6876,-4.6876,-4.6876,-4.6876,-4.6876,-4.6876,0.0,0.0,0.0,0.0,0.0,0.0,0.0,0.0,0.0,0.0,0.0,0.0,0.0,0.0,0.0,0.0,0.0,0.0,0.0,0.0,0.0,0.0,0.0,-3.7433,-3.7015,-3.6816,-3.6523,-3.6116,-3.6116,-3.5847,-3.5317,-3.5317,-3.5041,-3.4543,-3.4543,-3.4543,0.0,0.0,0.0,0.0,-3.6383,0.0,0.0,0.0,0.0,0.0,-3.5975,-3.5672,0.0,-3.5023,-3.4743,-3.4543,0.0,0.0,0.0,0.0,-3.3542,-3.329,-3.329,-3.3507,-3.3667,-3.3382,-3.329,-3.329,-3.329,-3.329,-3.329,-3.329,-3.329,-3.329,-3.329,-3.3136,-3.3086,-3.329,-3.2516,-3.2417,0.0,0.0,-3.6867,-3.7795,-3.79,-3.79,0.0,-3.8317,-3.8474,-3.8167,-3.9829,-4.0551,-3.9908,-4.1116,-4.1737,-4.1384,-4.1767,-4.1782,-4.1422,-4.2334,-4.2772,-4.2741,-4.3631,-4.4335,-4.4905,-4.5157,-4.5646,-4.6293,-4.6293,0.0,-4.6876,-4.6876,-4.6876,-4.6876,-4.6876,-4.6876,-4.6876,-4.6876,-4.6876,-4.6876,0.0,0.0,0.0,0.0,0.0,0.0,0.0,0.0,0.0,0.0,0.0,0.0,0.0,0.0,0.0,0.0,0.0,0.0,0.0,0.0,0.0,0.0,0.0,-3.7316,-3.6687,-3.6566,-3.6184,-3.5537,-3.5473,-3.5168,-3.4644,-3.4644,-3.4345,-3.3839,-3.3939,-3.3982,0.0,0.0,-3.5187,0.0,-3.5847,0.0,0.0,0.0,0.0,0.0,0.0,0.0,0.0,-3.4691,-3.4356,-3.3982,-3.3982,0.0,0.0,0.0,0.0,0.0,-3.329,-3.329,-3.329,-3.329,-3.329,-3.329,-3.329,-3.329,-3.329,-3.329,-3.329,-3.329,-3.3206,-3.298,-3.2895,0.0,0.0,0.0,-3.4179,-3.5822,-3.7116,-3.7821,-3.79,0.0,-3.79,-3.79,-3.7861,-3.7782,-3.9322,-4.0026,-3.9494,-4.1113,-4.1822,-4.1399,-4.1512,-4.1572,-4.1572,-4.2607,-4.2967,-4.259,-4.3647,-4.457,-4.5301,-4.5749,-4.6309,-4.6876,0.0,0.0,-4.6876,-4.6876,-4.6876,-4.6876,-4.6876,-4.6876,-4.6876,-4.6876,-4.6846,-4.6698,0.0,0.0,0.0,0.0,0.0,0.0,0.0,0.0,0.0,0.0,0.0,0.0,0.0,0.0,0.0,0.0,0.0,0.0,0.0,0.0,0.0,-3.7806,-3.6804,-3.5902,-3.5237,-3.4604,-3.4485,-3.4844,-3.4465,-3.3983,-3.3454,-3.3454,-3.3154,-3.269,-3.3177,-3.3417,-3.3437,-3.4085,-3.4308,-3.4274,-3.4909,0.0,0.0,0.0,0.0,0.0,0.0,0.0,0.0,-3.3716,-3.3486,-3.3417,-3.3417,0.0,0.0,0.0,0.0,0.0,-3.329,-3.329,-3.329,-3.329,-3.329,-3.329,-3.329,-3.329,-3.329,-3.329,-3.329,-3.3206,-3.2846,-3.3016,-3.3122,0.0,0.0,-3.3762,0.0,0.0,-3.6658,-3.7769,0.0,-3.79,-3.79,-3.79,-3.7691,-3.7181,-3.8067,-3.8734,-3.889,-3.9833,-4.0685,-4.1384,-4.1961,-4.2246,-4.2246,-4.2428,-4.297,-4.3832,-4.457,-4.5516,-4.6611,-4.668,-4.6779,-4.6876,0.0,-4.6876,-4.6876,-4.6876,-4.6876,-4.6876,-4.6876,-4.6876,-4.6876,-4.6876,-4.6488,-4.5888,0.0,0.0,0.0,0.0,0.0,0.0,0.0,0.0,0.0,0.0,0.0,0.0,0.0,0.0,0.0,0.0,0.0,0.0,0.0,0.0,0.0,-3.6329,-3.5514,-3.493,-3.4732,-3.4251,-3.3803,-3.3338,-3.3132,-3.2775,-3.2274,-3.2615,-3.2636,-3.244,-3.3045,-3.329,-3.3361,-3.3894,-3.3914,-3.3736,0.0,0.0,0.0,0.0,0.0,0.0,0.0,0.0,0.0,0.0,-3.329,-3.329,-3.329,0.0,0.0,0.0,0.0,0.0,-3.329,-3.2966,-3.2775,-3.3206,-3.329,-3.329,-3.329,-3.329,-3.329,-3.329,-3.329,-3.3241,-3.3051,0.0,-3.2467,-3.1886,0.0,-3.4113,-3.4363,-3.5665,-3.692,0.0,0.0,-3.79,-3.79,-3.79,-3.7782,-3.7508,-3.8283,-3.9086,-3.9732,-4.0588,-4.1466,-4.2393,-4.2731,-4.2895,-4.2895,-4.2895,-4.3317,-4.4161,-4.5138,-4.5877,-4.6426,-4.6738,-4.6876,-4.6876,0.0,-4.6876,-4.6876,-4.6876,-4.6876,-4.6876,-4.6876,-4.6649,-4.6261,-4.5888,-4.5548,-4.516,0.0,0.0,0.0,0.0,0.0,0.0,0.0,0.0,0.0,0.0,0.0,0.0,0.0,0.0,0.0,0.0,0.0,0.0,0.0,0.0,-3.5272,-3.5111,-3.4345,-3.4015,-3.4206,-3.3703,-3.3005,-3.2142,-3.1918,-3.1695,-3.1499,-3.1963,-3.2258,-3.244,-3.3045,-3.329,-3.3326,-3.3736,-3.3667,-3.3382,0.0,0.0,0.0,0.0,0.0,0.0,0.0,0.0,0.0,0.0,0.0,0.0,0.0,0.0,0.0,-3.2874,-3.286,-3.298,-3.2789,-3.2282,-3.1978,-3.2596,-3.2753,-3.2789,-3.298,-3.286,-3.2789,-3.298,-3.3016,-3.3051,-3.3122,-3.2574,0.0,-3.1347,-3.276,-3.4032,-3.4334,-3.5783,-3.7063,-3.7808,-3.79,-3.79,-3.79,-3.79,-3.79,-3.79,-3.8517,-3.9299,-4.0202,-4.1169,-4.2073,-4.2955,-4.321,-4.329,-4.329,-4.329,-4.3591,-4.422,-4.5295,-4.5841,-4.6036,-4.6617,-4.6876,-4.6876,-4.6876,-4.6876,-4.6876,-4.6876,-4.6795,-4.6633,-4.6633,-4.6196,-4.5484,-4.4804,-4.4544,-4.4431,0.0,0.0,0.0,0.0,0.0,0.0,0.0,0.0,0.0,0.0,0.0,0.0,0.0,0.0,0.0,0.0,0.0,0.0,0.0,0.0,-3.465,-3.4813,-3.3484,-3.2819,-3.301,-3.1831,-3.1456,-3.1938,-3.1051,-3.0928,-3.1485,-3.1527,-3.185,-3.244,-3.3045,-3.329,-3.329,-3.3347,-3.3361,-3.3326,-3.3382,0.0,0.0,0.0,0.0,0.0,0.0,0.0,0.0,0.0,0.0,0.0,0.0,0.0,-3.3016,-3.1502,-3.1599,-3.2015,-3.1267,-3.1044,-3.1007,-3.1044,-3.1082,-3.1267,-3.2015,-3.1599,-3.1267,-3.2051,-3.2196,-3.2304,-3.2654,-3.2381,-3.2092,-3.2019,-3.2785,-3.3595,-3.4282,0.0,-3.6606,-3.7769,-3.79,-3.79,-3.79,-3.79,-3.79,-3.79,-3.7946,-3.8395,-3.9241,-4.0202,-4.1113,-4.2073,-4.2875,-4.329,-4.329,-4.329,-4.3591,-4.422,-4.4849,-4.5478,-4.6036,-4.6617,-4.6876,-4.6876,-4.6876,-4.6876,-4.6876,-4.6876,-4.6488,-4.5888,-4.5888,-4.5467,-4.4771,-4.4059,-4.3783,-4.3686,0.0,0.0,0.0,0.0,0.0,0.0,0.0,0.0,0.0,0.0,0.0,0.0,0.0,0.0,0.0,0.0,0.0,0.0,0.0,-3.4397,-3.3976,-3.3874,-3.2851,-3.2382,-3.2578,-3.1248,-3.0518,-3.0471,-3.0097,-3.0277,-3.0895,-3.1302,-3.1822,-3.244,-3.3045,-3.329,-3.329,-3.329,-3.329,-3.3326,-3.3431,-3.3501,0.0,0.0,0.0,0.0,0.0,0.0,0.0,0.0,-3.329,-3.3171,-3.2354,-3.2318,-3.2318,-3.123,-3.1119,-3.1304,-3.0957,-3.0519,-3.0253,-3.0782,-3.0152,-2.9742,-3.1044,-3.1119,-3.1007,-3.1304,-3.1746,-3.2232,-3.2618,0.0,-3.1897,-3.2222,-3.2858,-3.3569,-3.4282,-3.5302,-3.6322,-3.7252,-3.7351,-3.7495,-3.7861,-3.756,-3.7351,-3.7351,-3.6998,-3.7206,-3.8098,-3.9352,-4.0488,-4.1407,-4.2653,-4.329,-4.329,-4.294,-4.2833,-4.3104,-4.4461,-4.5221,-4.5478,-4.6442,-4.6876,-4.686,-4.6407,-4.6212,-4.618,-4.5759,-4.5419,-4.5127,-4.4674,-4.435,-4.4043,-4.3282,-4.3007,-4.2975,0.0,0.0,0.0,0.0,0.0,0.0,0.0,0.0,0.0,0.0,0.0,0.0,0.0,0.0,0.0,0.0,0.0,0.0,-3.4546,-3.4,-3.3581,-3.3293,-3.2394,-3.1905,-3.1964,-3.0718,-3.0083,-3.0052,-2.9758,-3.0024,-3.0839,-3.1288,-3.1921,-3.2707,-3.3108,-3.329,-3.329,-3.329,-3.329,-3.3326,-3.3466,-3.3501,0.0,0.0,0.0,0.0,0.0,0.0,0.0,0.0,-3.3031,-3.287,-3.1997,-3.2087,-3.216,-3.0594,-3.0519,-3.0857,-3.0594,-2.9922,-2.951,-3.0329,-2.951,-2.8776,-2.9884,-3.0139,-3.0228,-3.0481,-3.1378,-3.2268,-3.2775,-3.2273,0.0,0.0,-3.2948,-3.3608,-3.4402,-3.5334,-3.6154,-3.6827,-3.6813,-3.6881,-3.7299,-3.6959,-3.6724,-3.6724,-3.6332,-3.6401,-3.7021,-3.828,-3.9422,-4.0323,-4.163,-4.2411,-4.2677,-4.2267,-4.2096,-4.2096,-4.3514,-4.4287,-4.4507,-4.5524,-4.6076,-4.6196,-4.5694,-4.5484,-4.5451,-4.4982,-4.4658,-4.4383,-4.3654,-4.3331,-4.3282,-4.278,-4.2602,-4.2602,0.0,0.0,0.0,0.0,0.0,0.0,0.0,0.0,0.0,0.0,0.0,0.0,0.0,0.0,0.0,0.0,0.0,0.0,-3.4151,-3.3848,-3.3581,-3.3293,-3.2074,-3.1276,-3.0999,-3.0083,-3.0052,-3.0999,-3.0052,-3.0263,-3.1485,-3.1499,-3.2145,-3.329,-3.329,-3.329,-3.329,-3.329,-3.329,-3.329,-3.329,-3.329,-3.3276,0.0,0.0,0.0,0.0,0.0,0.0,0.0,-3.2412,-3.2208,-3.1193,-3.1978,-3.2646,-2.9457,-2.9626,-3.0707,-2.9922,-2.9106,-2.8697,-2.9471,-2.9106,-2.851,-2.851,-2.851,-2.8736,-2.9549,-3.0957,-3.2354,-3.3171,-3.266,0.0,-3.266,-3.307,-3.367,-3.4681,-3.5452,-3.6122,-3.6737,-3.6358,-3.6096,-3.6109,-3.6096,-3.6096,-3.6096,-3.6096,-3.6083,-3.6083,-3.6965,-3.7881,-3.8749,-3.965,-4.0505,-4.1384,-4.1369,-4.1407,-4.1407,-4.1997,-4.2546,-4.3114,-4.3709,-4.4305,-4.4787,-4.4787,-4.4787,-4.4787,-4.4771,-4.435,-4.3638,-4.2877,-4.2602,-4.2602,-4.2602,-4.2602,-4.2602,0.0,0.0,0.0,0.0,0.0,0.0,0.0,0.0,0.0,0.0,0.0,0.0,0.0,0.0,0.0,0.0,0.0,0.0,-3.3848,-3.3581,-3.3171,-3.2687,-3.2173,-3.1707,-3.1364,-3.0643,-3.0205,-3.0021,-3.0164,-3.067,-3.1499,-3.1935,-3.2553,-3.329,-3.329,-3.329,-3.329,-3.329,-3.329,-3.329,-3.329,-3.3073,-3.2679,0.0,0.0,0.0,0.0,0.0,0.0,0.0,0.0,0.0,-3.0728,-3.1279,-3.1942,-2.9302,-2.925,-2.9884,-2.9067,-2.8697,-2.855,-2.8816,-2.8657,-2.851,-2.851,-2.851,-2.8882,-3.0266,-3.1156,-3.215,-3.3659,-3.3307,0.0,-3.4386,-3.475,-3.4995,-3.5371,-3.5899,-3.6225,-3.618,-3.6035,-3.6023,-3.6114,-3.5757,-3.5534,-3.5534,-3.5142,-3.4894,-3.4894,-3.6203,-3.7057,-3.7291,-3.9142,-4.0217,-4.0466,-4.0627,-4.0696,-4.0681,-4.0386,-4.1079,-4.2561,-4.3554,-4.4102,-4.4239,-4.409,-4.4043,-4.3994,-4.3476,-4.3104,-4.2894,-4.2683,-4.2602,-4.2602,-4.2602,-4.2602,-4.2602,0.0,0.0,0.0,0.0,0.0,0.0,0.0,0.0,0.0,0.0,0.0,0.0,0.0,0.0,0.0,0.0,0.0,0.0,0.0,-3.3607,-3.3303,-3.2942,-3.2284,-3.1593,-3.0852,-3.0403,-3.0119,-2.9968,-3.0315,-3.0853,-3.1499,-3.2117,-3.2736,-3.329,-3.329,-3.329,-3.329,-3.329,-3.329,-3.329,-3.329,-3.296,-3.2412,0.0,0.0,0.0,0.0,0.0,0.0,0.0,0.0,0.0,-3.0619,-3.1079,-3.1473,-2.9897,-3.0037,-3.0557,-3.0075,-2.9704,-2.9523,-2.9845,-2.9704,-2.9445,-2.9445,-2.9223,-2.9433,-3.1044,-3.175,-3.2525,-3.3938,-3.3924,0.0,-3.5121,-3.5415,-3.5493,-3.5501,-3.6034,-3.6233,-3.5764,-3.5789,-3.585,-3.5944,-3.5511,-3.5242,-3.5242,-3.469,-3.4397,-3.4397,-3.5268,-3.5951,-3.6307,-3.7636,-3.8653,-3.9358,-3.9465,-3.9698,-4.0008,-3.9604,-3.9995,-4.1201,-4.2062,-4.2632,-4.2805,-4.2909,-4.3073,-4.3217,-4.278,-4.2602,-4.2602,-4.2602,-4.2602,-4.2602,-4.2602,-4.2602,-4.2602,0.0,0.0,0.0,0.0,0.0,0.0,0.0,0.0,0.0,0.0,0.0,0.0,0.0,0.0,0.0,0.0,0.0,0.0,0.0,0.0,-3.3642,-3.3539,-3.2269,-3.1043,-2.9901,-2.9713,-2.9912,-3.0498,-3.0554,-3.0937,-3.1597,-3.2202,-3.2778,-3.329,-3.329,-3.329,-3.329,-3.329,-3.329,-3.329,-3.329,-3.2918,-3.2328,-3.2328,0.0,0.0,0.0,0.0,0.0,0.0,0.0,0.0,-3.0724,-3.1216,-3.1336,-3.0919,-3.1449,-3.2074,-3.2001,-3.1452,-3.1082,-3.1819,-3.1439,-3.0945,-3.106,-3.052,-3.0406,-3.1863,-3.2717,-3.3449,-3.4234,-3.4562,-3.4877,-3.5307,-3.5519,-3.5572,-3.5391,-3.5997,-3.6223,-3.5565,-3.5622,-3.5696,-3.571,-3.5305,-3.5101,-3.5154,-3.4743,-3.4439,-3.4439,-3.4439,-3.4758,-3.5548,-3.5669,-3.6413,-3.7962,-3.8127,-3.859,-3.9301,-3.9337,-3.9394,-3.932,-3.992,-4.0512,-4.1093,-4.1591,-4.211,-4.2602,-4.2602,-4.2602,-4.2602,-4.2602,-4.2602,-4.2602,-4.2602,-4.2602,-4.2602,0.0,0.0,0.0,0.0,0.0,0.0,0.0,0.0,0.0,0.0,0.0,0.0,0.0,0.0,0.0,0.0,0.0,0.0,0.0,0.0,-3.3288,-3.2312,-3.1204,-3.0554,-3.0525,-3.0009,-3.0009,-3.0498,-3.1036,-3.1597,-3.2216,-3.2834,-3.3164,-3.329,-3.329,-3.329,-3.329,-3.329,-3.329,-3.329,-3.329,-3.2665,-3.1682,-3.1682,-3.0895,0.0,0.0,0.0,0.0,0.0,0.0,0.0,-2.9841,-3.0849,-3.1903,-3.0589,-3.1093,-3.1965,-3.1341,-3.1044,-3.0932,-3.1106,-3.1044,-3.12,-3.2286,-3.2393,-3.2393,-3.2742,-3.3841,-3.4934,-3.5574,-3.5747,-3.5947,-3.6515,-3.6659,-3.6662,-3.6613,-3.6746,-3.6716,-3.6251,-3.5749,-3.5511,-3.5669,-3.5169,-3.5062,-3.5521,-3.5195,-3.4949,-3.4949,-3.4605,-3.4481,-3.4675,-3.5345,-3.587,-3.6215,-3.7529,-3.8277,0.0,-3.9119,-3.9125,-3.8667,-3.9727,-4.0737,-4.1624,-4.1754,-4.211,-4.2602,-4.2602,-4.2602,-4.2602,-4.2602,-4.2602,-4.2602,-4.2602,-4.2602,-4.2539,0.0,0.0,0.0,0.0,0.0,0.0,0.0,0.0,0.0,0.0,0.0,0.0,0.0,0.0,0.0,0.0,0.0,0.0,0.0,0.0,-3.3308,-3.2031,-3.1392,-3.0866,-3.0418,-3.023,-3.0461,-3.1063,-3.1645,-3.2089,-3.2412,-3.3031,-3.329,-3.329,-3.329,-3.329,-3.329,-3.329,-3.329,-3.329,-3.329,-3.2595,-3.1485,-3.1485,-3.0712,-2.9602,-2.9602,0.0,0.0,0.0,0.0,0.0,0.0,0.0,-3.1385,-3.1208,-3.1853,-3.2583,-3.2173,-3.2064,-3.2064,-3.2064,-3.1759,-3.1834,-3.3266,-3.3512,-3.3687,-3.4365,-3.5087,-3.5723,-3.6047,-3.6356,-3.6652,-3.6936,-3.6978,-3.688,-3.6624,-3.6796,-3.6802,-3.6328,-3.622,-3.62,-3.6322,-3.585,-3.5677,-3.5991,-3.5642,-3.5278,-3.4956,-3.4524,-3.4161,-3.3884,-3.414,-3.4459,-3.4826,-3.6089,-3.6905,-3.731,-3.8083,-3.8272,-3.7928,-3.8571,-3.929,-4.0092,-4.0352,-4.0753,-4.1258,-4.1505,-4.1598,-4.1598,-4.1598,-4.1824,-4.2085,-4.1835,-4.1933,-4.2142,0.0,0.0,0.0,0.0,0.0,0.0,0.0,0.0,0.0,0.0,0.0,0.0,0.0,0.0,0.0,0.0,0.0,0.0,0.0,0.0,0.0,-3.2167,-3.1903,-3.1307,-3.0299,-3.0453,-3.0978,-3.1877,-3.2213,-3.2455,-3.2581,-3.3087,-3.329,-3.329,-3.329,-3.329,-3.329,-3.329,-3.329,-3.329,-3.329,-3.2651,-3.164,-3.1527,-3.0769,-2.9757,-2.9645,-2.9602,-2.9602,-2.9602,0.0,0.0,0.0,0.0,-3.0808,-3.1906,-3.2764,-3.329,-3.329,-3.329,-3.329,-3.329,-3.281,-3.2626,-3.3904,-3.4127,-3.4417,-3.5797,-3.6188,-3.6272,-3.6272,-3.668,-3.6978,-3.6978,-3.6978,-3.681,-3.6342,-3.6708,-3.6796,-3.6314,-3.661,-3.6866,-3.6978,-3.6596,-3.6399,-3.651,0.0,-3.5586,-3.5097,-3.4673,-3.422,-3.3739,-3.3291,-3.3369,-3.395,-3.4766,-3.55,-3.6114,-3.6872,-3.724,-3.724,-3.7135,-3.7469,-3.8233,-3.8755,-3.9314,-3.986,-4.0317,-4.0496,-4.0496,-4.0496,-4.0823,-4.1234,-4.0784,-4.0976,-4.1417,0.0,0.0,0.0,0.0,0.0,0.0,0.0,0.0,0.0,0.0,0.0,0.0,0.0,0.0,0.0,0.0,0.0,0.0,-3.4101,0.0,0.0,-3.2139,-3.1578,-3.1175,-3.0974,-3.0839,-3.1367,-3.2557,-3.2458,-3.2679,-3.3164,-3.3248,-3.329,-3.329,-3.329,-3.329,-3.329,-3.329,-3.329,-3.329,-3.329,-3.2904,-3.2216,-3.1696,-3.1036,-3.0301,-2.9799,-2.9602,-2.9602,-2.9602,-2.954,0.0,0.0,0.0,-3.1399,-3.1583,-3.2426,-3.329,-3.329,-3.329,-3.329,-3.329,-3.3206,-3.3325,-3.4026,-3.4186,-3.4528,0.0,-3.6539,-3.6866,-3.6866,-3.6936,-3.6978,-3.6978,-3.6978,-3.695,-3.6866,-3.6936,-3.695,-3.6866,-3.6511,-3.6441,-3.6936,-3.6462,-3.634,-3.6872,-3.6536,-3.627,-3.6201,-3.5735,-3.548,-3.5359,-3.4819,-3.4391,-3.4153,-3.5115,-3.5514,-3.528,-3.6187,-3.6611,-3.6596,-3.6028,-3.664,-3.8233,-3.8755,-3.9314,-3.986,-4.0317,-4.0496,-4.0496,-4.0496,-4.0305,-4.0019,-3.9957,-4.0056,-4.0152,0.0,0.0,0.0,0.0,0.0,0.0,0.0,0.0,0.0,0.0,0.0,0.0,0.0,0.0,0.0,-3.4374,-3.4201,-3.4101,-3.4101,-3.3841,-3.3224,-3.2139,-3.2226,-3.1886,-3.1071,-3.1578,-3.2118,-3.2656,-3.2922,-3.3163,-3.329,-3.3431,-3.3396,-3.329,-3.329,-3.329,-3.329,-3.329,-3.329,-3.329,-3.329,-3.296,-3.237,-3.2117,-3.1387,-3.0455,-3.0189,-2.9897,-2.9602,-2.9602,-2.9602,-2.9602,-2.9602,0.0,0.0,0.0,-3.2356,-3.329,-3.329,-3.329,-3.329,-3.329,-3.329,-3.3445,-3.4062,-3.4203,-3.4455,-3.5414,-3.5808,-3.6216,-3.6866,-3.6978,-3.6978,-3.6978,-3.6978,-3.6978,-3.6978,-3.6978,-3.6978,-3.6978,-3.6754,-3.6722,-3.695,-3.674,-3.6722,0.0,-3.6836,-3.6579,-3.6231,-3.5813,-3.5413,-3.5084,-3.463,-3.4262,-3.4106,-3.4952,-3.5416,-3.5538,-3.5788,-3.5938,-3.5923,-3.5639,-3.5934,-3.6708,-3.721,-3.7701,-3.8196,-3.8393,-3.8665,-3.8905,-3.8589,-3.8616,-3.8748,-3.8435,-3.868,-3.9152,0.0,0.0,0.0,0.0,0.0,0.0,0.0,0.0,0.0,0.0,0.0,0.0,0.0,0.0,0.0,0.0,-3.4101,-3.4182,-3.436,-3.4376,-3.3946,-3.2968,-3.3194,-3.2886,-3.1847,-3.2439,-3.2809,-3.2917,-3.3364,-3.3536,-3.3396,-3.3466,-3.3431,-3.329,-3.329,-3.329,-3.329,-3.329,-3.329,-3.329,-3.329,-3.3045,-3.2623,-3.2469,-3.1822,-3.0947,-3.0825,-3.0375,-2.9841,-2.9841,-2.9743,-2.9602,-2.9602,-3.0474,0.0,0.0,0.0,-3.329,-3.329,-3.329,-3.329,-3.329,-3.329,-3.3403,0.0,0.0,-3.4147,0.0,-3.4964,-3.5287,-3.6356,-3.6694,-3.6796,-3.6964,-3.6978,-3.6978,-3.6978,-3.6978,-3.6978,-3.6978,-3.6978,-3.6978,-3.6978,-3.6978,-3.6978,0.0,-3.6978,-3.6782,-3.6356,-3.6021,-3.5659,-3.5214,-3.4782,-3.447,-3.4369,-3.4994,-3.5633,-3.6192,-3.6089,-3.6097,-3.6114,-3.6097,-3.5974,-3.5827,-3.6098,-3.6414,-3.6723,-3.6845,-3.7133,-3.7462,-3.7057,-3.7156,-3.7499,-3.7136,-3.7453,-3.8078,0.0,0.0,0.0,0.0,0.0,0.0,0.0,0.0,0.0,0.0,0.0,0.0,-3.4691,-3.4349,-3.4126,-3.4101,-3.4101,-3.4392,-3.5098,-3.5146,-3.5176,-3.5233,-3.4452,0.0,-3.404,-3.3285,-3.3191,-3.3839,-3.366,-3.3605,-3.357,-3.3396,-3.3326,-3.329,-3.329,-3.329,-3.329,-3.329,-3.329,-3.329,-3.329,-3.3262,-3.3178,-3.2623,-3.237,-3.223,-3.1654,-3.1021,-3.0441,-3.0441,-3.0048,-2.9602,-2.9602,-3.0474,-3.1485,0.0,0.0,0.0,-3.329,-3.329,-3.329,-3.329,-3.329,-3.329,0.0,0.0,-3.3515,-3.4119,-3.4245,-3.4492,-3.5161,-3.5766,-3.6342,-3.6894,-3.6978,-3.6978,-3.6978,-3.6978,-3.6978,-3.6978,-3.6978,-3.6978,-3.6978,-3.6978,-3.6978,-3.6978,-3.6978,-3.6978,-3.6936,-3.6936,-3.6922,-3.6894,-3.628,-3.5795,-3.5449,-3.5762,-3.6335,-3.7055,-3.7398,-3.7669,-3.7855,-3.7669,-3.7255,-3.6625,-3.6312,-3.6196,-3.6258,-3.6723,-3.6936,-3.6936,-3.6906,-3.6662,-3.632,-3.6475,-3.6651,-3.6896,0.0,0.0,0.0,0.0,0.0,0.0,0.0,0.0,0.0,0.0,0.0,0.0,0.0,-3.4201,-3.4101,-3.4101,-3.4146,-3.4654,-3.5823,-3.5106,-3.4654,-3.4747,-3.441,-3.4016,-3.3576,-3.3633,-3.3742,-3.3896,-3.3827,-3.3793,-3.3793,-3.3605,-3.3501,-3.3501,-3.3361,-3.329,-3.329,-3.329,-3.329,-3.329,-3.329,-3.329,-3.3262,-3.3073,-3.275,-3.237,-3.2159,-3.1668,-3.1148,-3.1148,-3.0993,-3.0825,-3.0825,-3.1401,-3.2145,-3.2553,-3.2974,-3.329,-3.329,-3.329,-3.329,-3.329,-3.329,-3.329,-3.329,-3.329,-3.3347,-3.3571,-3.3613,-3.3796,-3.445,-3.5105,-3.5723,-3.6328,-3.6427,-3.6581,-3.6936,-3.6978,-3.6978,-3.6978,-3.6978,-3.6978,-3.6978,-3.6978,-3.6978,-3.6978,0.0,-3.6978,-3.6978,-3.6978,-3.6978,-3.6978,-3.6768,-3.6617,-3.6462,-3.6424,-3.6722,-3.7369,-3.7322,-3.7541,-3.7995,-3.7943,-3.7773,-3.7501,-3.6819,-3.6402,-3.6196,-3.6068,-3.6179,-3.643,-3.6116,-3.591,-3.5765,-3.5941,-3.6093,-3.6364,0.0,0.0,0.0,0.0,0.0,0.0,0.0,0.0,0.0,-3.4101,0.0,0.0,0.0,0.0,-3.4136,-3.4165,-3.4215,-3.4726,-3.5888,-3.5147,-3.477,-3.506,-3.4753,-3.4324,-3.3779,-3.3729,-3.3722,-3.3793,-3.3634,-3.3682,-3.3896,-3.3675,-3.3605,-3.3605,-3.3396,-3.329,-3.329,-3.329,-3.329,-3.329,-3.329,-3.329,-3.329,-3.329,-3.3073,-3.2707,-3.2707,-3.2314,-3.1794,-3.1794,-3.1668,-3.1485,-3.1485,-3.1907,-3.2525,-3.3108,-3.329,-3.329,-3.329,-3.329,-3.329,-3.329,-3.329,-3.329,-3.329,-3.329,-3.329,-3.329,-3.329,-3.3403,-3.381,-3.4267,-3.4837,-3.5667,-3.5808,-3.5949,-3.6356,-3.6581,-3.6722,-3.6722,-3.6866,-3.6978,-3.6978,-3.6978,-3.6978,0.0,0.0,0.0,-3.6978,-3.6978,-3.6978,-3.6978,-3.6978,-3.6978,-3.6978,-3.7016,-3.7327,-3.7952,-3.7905,-3.8202,-3.8849,-3.8781,-3.8659,-3.8382,-3.7825,-3.7112,-3.6326,-3.5741,-3.5683,-3.5941,-3.5619,-3.5504,-3.5537,-3.575,-3.5894,-3.6128,0.0,0.0,0.0,0.0,0.0,0.0,0.0,0.0,-3.4101,-3.4101,0.0,0.0,0.0,0.0,0.0,-3.4309,-3.4312,-3.4588,-3.5292,-3.5308,-3.56,-3.6353,-3.5563,-3.5026,-3.489,-3.3609,-3.3186,-3.3605,-3.3152,-3.3268,-3.3896,-3.3709,-3.3605,-3.3605,-3.3396,-3.329,-3.329,-3.329,-3.329,-3.329,-3.329,-3.329,-3.329,-3.329,-3.329,-3.329,-3.329,-3.2932,-3.244,-3.244,-3.2033,-3.1541,-3.1541,-3.1963,-3.2553,-3.3108,-3.3276,-3.3262,0.0,0.0,0.0,-3.329,-3.329,0.0,-3.329,0.0,-3.329,-3.329,-3.329,-3.329,-3.329,-3.329,-3.3705,-3.4936,-3.5147,-3.5175,-3.5189,-3.5695,-3.6075,-3.6075,-3.6624,-3.695,-3.695,-3.6978,-3.6978,0.0,-3.6978,-3.6978,-3.6978,-3.6978,-3.6978,-3.6978,-3.6978,-3.6978,-3.6978,-3.7582,-3.8188,-3.8819,-3.9184,-3.9773,-4.0505,-4.0366,-3.9944,-3.9333,-3.9317,-3.8336,-3.6715,-3.5887,-3.5534,-3.5534,-3.5519,-3.5504,-3.5554,-3.5878,-3.6005,-3.616,0.0,0.0,0.0,0.0,0.0,0.0,-3.4101,-3.4101,-3.4101,0.0,0.0,0.0,-3.4176,-3.4244,-3.4471,-3.497,-3.4592,-3.4818,-3.603,-3.5179,-3.4961,-3.5642,-3.499,-3.4587,-3.4534,-3.4158,-3.4071,-3.4176,-3.3887,-3.3853,-3.404,-3.3744,-3.3605,-3.3605,-3.3396,-3.329,-3.329,-3.329,-3.329,-3.329,-3.329,-3.329,-3.329,-3.329,-3.329,-3.329,-3.329,-3.3178,-3.3073,-3.3073,-3.296,-3.2806,-3.2806,-3.2932,-3.3066,-3.3234,-3.3002,-3.275,-3.3164,0.0,0.0,0.0,0.0,0.0,0.0,0.0,-3.329,-3.329,-3.329,-3.329,-3.329,-3.329,-3.3438,-3.3775,-3.4197,-3.4646,-3.5133,-3.533,-3.5442,-3.5442,-3.5991,-3.6356,-3.6356,-3.6764,0.0,0.0,-3.6978,-3.6978,-3.6978,-3.6978,-3.6978,-3.6978,-3.6978,-3.6978,-3.6978,-3.7173,-3.7772,-3.8782,-3.8892,-3.9508,-4.0489,-4.047,-4.0328,-4.0128,-3.955,-3.902,-3.8476,-3.7155,-3.6572,-3.6526,-3.6042,-3.5861,-3.5878,-3.6085,-3.6148,-3.621,0.0,0.0,0.0,0.0,0.0,-3.4101,-3.4101,-3.4124,-3.4136,0.0,0.0,0.0,-3.4226,-3.4271,-3.4469,-3.4883,-3.4575,-3.4673,-3.5531,-3.4839,-3.4568,-3.4971,-3.4601,-3.4346,-3.4264,-3.4018,-3.3936,-3.4088,-3.3767,-3.3699,-3.3902,-3.3709,-3.3605,-3.3605,-3.3396,-3.329,-3.329,-3.329,-3.329,-3.329,-3.329,-3.329,-3.329,-3.329,-3.329,-3.329,-3.329,-3.329,-3.329,-3.329,-3.329,-3.329,-3.329,-3.329,-3.3234,-3.3016,-3.2693,-3.2426,-3.2525,-3.23,-3.2117,-3.2469,0.0,0.0,-3.2932,-3.3108,-3.329,0.0,-3.329,-3.329,-3.329,-3.329,-3.329,-3.329,-3.3585,-3.3972,-3.4337,-3.4604,-3.4773,-3.4773,-3.5344,-3.5723,-3.5723,-3.6047,-3.6258,-3.6258,-3.6258,-3.637,-3.6624,-3.6838,-3.6978,-3.6978,-3.6978,-3.6978,-3.6978,-3.6978,-3.7634,-3.8782,-3.8782,-3.94,-4.0489,-4.0489,-4.0489,-4.0474,-4.0006,-3.9818,-3.9692,-3.8519,-3.7641,-3.6962,-3.6582,-3.6248,-3.6005,-3.6148,-3.6196,-3.6242,0.0,0.0,-3.4101,-3.4101,-3.4165,-3.4214,-3.4214,-3.4277,-3.4301,0.0,-3.4306,-3.4304,-3.4299,-3.4295,-3.4336,-3.439,-3.4414,-3.4414,-3.4414,-3.4414,-3.438,-3.438,-3.438,-3.4278,-3.4094,-3.3547,-3.3378,-3.364,-3.3229,-3.3243,-3.364,-3.364,-3.3605,-3.3605,-3.3396,-3.329,-3.329,-3.329,-3.329,-3.329,-3.329,-3.329,-3.329,-3.329,-3.329,-3.329,-3.329,-3.329,-3.329,-3.3206,-3.3241,-3.3276,-3.3206,-3.3241,-3.3164,-3.2595,-3.2356,-3.2188,-3.164,-3.1443,-3.1401,-3.1471,-3.1893,0.0,-3.23,-3.2736,-3.308,0.0,-3.3136,-3.3178,-3.3178,-3.3234,-3.329,-3.329,-3.329,-3.329,-3.329,-3.3754,-3.4104,-3.4104,-3.4674,-3.5091,-3.5091,-3.5161,-3.5189,-3.5189,-3.5189,-3.5428,-3.5977,-3.6525,-3.6782,-3.6782,-3.6852,-3.688,-3.688,-3.695,-3.7634,-3.8782,-3.8782,-3.94,-4.0489,-4.0489,-4.0489,-4.0489,-4.0489,-4.0489,-4.0443,-3.9767,-3.8601,-3.7271,-3.7119,-3.6708,-3.6175,-3.621,-3.6242,-3.6274,0.0,-3.4101,-3.4101,-3.4101,-3.4586,-3.5001,-3.5001,-3.5037,-3.5098,-3.5098,-3.4619,-3.4314,-3.4357,-3.4378,-3.4403,-3.4399,-3.4414,-3.4414,-3.4414,-3.4414,-3.4346,-3.4162,-3.4162,-3.4108,-3.3951,-3.3837,-3.3802,-3.3827,-3.3842,-3.3856,-3.3827,-3.3827,-3.3744,-3.3605,-3.3396,-3.329,-3.329,-3.329,-3.329,-3.329,-3.329,-3.329,-3.329,-3.329,-3.329,-3.329,-3.329,-3.329,-3.3206,-3.2547,-3.2775,-3.3206,-3.2547,-3.2775,-3.3164,-3.2595,-3.2061,-3.164,-3.1527,-3.112,-3.0839,-3.1359,-3.1583,0.0,-3.1668,-3.1766,-3.185,0.0,-3.2244,-3.2595,-3.2595,-3.2988,-3.329,-3.329,-3.329,-3.329,-3.329,-3.3389,-3.3473,-3.3473,-3.4006,-3.4385,-3.4385,-3.4857,-3.5189,-3.5189,-3.5189,-3.5245,-3.5358,-3.5484,-3.5541,-3.5541,-3.6019,-3.6286,-3.6286,-3.674,-3.7634,-3.8782,-3.8782,-3.94,-4.0489,-4.0489,-4.0489,-4.0489,-4.0489,-4.0489,-4.0443,-3.9767,-3.9302,-3.8916,-3.7826,-3.7319,-3.7135,-3.6629,-3.6445,-3.646,-3.4101,-3.4392,-3.4533,-3.4216,-3.4755,-3.5138,-3.4794,-3.4765,-3.4786,-3.4786,-3.4533,-3.4354,-3.4419,-3.4414,-3.4414,-3.4414,-3.4414,-3.4414,-3.4414,-3.4414,-3.4346,-3.423,-3.423,-3.421,-3.4157,-3.4157,-3.4088,-3.4005,-3.4074,-3.3971,-3.3744,-3.3744,-3.3417,-3.2881,-3.3157,-3.3086,-3.2704,-3.2704,-3.2704,-3.2739,-3.3122,-3.329,-3.3255,-3.2846,-3.2704,-3.2668,-3.2259,-3.2367,-3.2704,-3.2704,-3.298,-3.3241,-3.2824,-3.298,-3.3108,-3.2216,-3.1738,-3.1359,-3.0726,-3.0319,-3.0136,-3.0474,-3.0783,0.0,0.0,-3.126,-3.1485,-3.1485,-3.1738,-3.1949,-3.1949,-3.2202,-3.2412,-3.2412,-3.2412,-3.2412,-3.2412,-3.2932,-3.329,-3.329,-3.3557,-3.374,-3.374,-3.4056,-3.4239,-3.4239,-3.452,-3.4688,-3.4688,-3.502,-3.5189,-3.5189,-3.5484,-3.5653,-3.5653,-3.6258,-3.7148,-3.8317,-3.862,-3.94,-4.0489,-4.0489,-4.0489,-4.0474,-4.0136,-3.9982,-3.9936,-3.9293,-3.9016,-3.8908,-3.7892,-3.7292,-3.6953,-3.6615,-3.6492,-3.6492,-3.413,-3.4621,-3.4846,-3.4298,-3.4823,-3.5107,-3.4583,-3.4514,-3.448,-3.4352,-3.4365,-3.4414,-3.4414,-3.4414,-3.4414,-3.4414,-3.4414,-3.4414,-3.4414,-3.4414,-3.438,-3.4346,-3.4346,-3.4346,-3.4312,-3.4278,-3.4176,-3.3991,-3.3991,-3.3868,-3.3605,-3.3605,-3.3157,-3.2426,-3.286,-3.2704,-3.2074,-3.1928,-3.1856,-3.1928,-3.2596,-3.2824,-3.2789,-3.2137,-3.1856,-3.1783,-3.1119,-3.1304,-3.1978,-3.2632,-3.2945,-3.3086,-3.3086,-3.3171,-3.3073,-3.185,-3.1485,-3.1218,-2.9954,-2.9602,-2.9602,-2.9602,-2.9982,-3.0315,0.0,0.0,0.0,-3.112,0.0,0.0,0.0,0.0,0.0,0.0,0.0,0.0,0.0,-3.2342,0.0,-3.296,-3.296,-3.296,-3.296,-3.3073,-3.3066,-3.2974,-3.3501,-3.3796,-3.3683,-3.4183,-3.4486,-3.4486,-3.4711,-3.4837,-3.4837,-3.5569,-3.6562,-3.7801,-3.8207,-3.9086,-4.029,-4.0166,-4.0105,-4.0074,-3.9521,-3.929,-3.9277,-3.86,-3.8323,-3.8262,-3.7707,-3.7169,-3.6676,-3.6538,-3.6492,-3.6492,-3.4284,-3.4345,-3.4363,-3.4305,-3.4844,-3.5275,-3.52,-3.5257,-3.5068,-3.4451,-3.4404,-3.4414,-3.4414,-3.4414,-3.4414,-3.4414,-3.4414,-3.4414,-3.4414,-3.4414,-3.4312,-3.4128,-3.4128,-3.4074,-3.3965,-3.3779,-3.3675,-3.3675,-3.3675,-3.364,-3.3605,-3.3605,-3.3536,-3.3382,-3.2583,-3.2196,-3.2037,-3.1341,-3.1044,-3.1044,-3.1156,-3.1156,0.0,-3.1082,-3.1044,-3.1007,-3.0932,-3.097,-3.1044,0.0,-3.1636,-3.2232,0.0,-3.2739,-3.3073,-3.185,-3.1485,-3.1218,-2.9954,-2.9602,-2.9602,0.0,-2.9659,-2.9715,0.0,0.0,-2.9827,-2.9827,0.0,0.0,-3.0596,0.0,0.0,0.0,0.0,0.0,-3.1485,-3.1612,-3.1696,-3.1696,-3.1696,-3.1696,-3.1696,-3.2188,-3.2286,-3.1738,-3.2258,-3.237,-3.1836,-3.1864,-3.1907,-3.1907,-3.296,-3.3536,-3.3536,-3.4711,-3.6133,-3.7801,-3.7264,-3.7948,-3.9582,-3.9016,-3.8739,-3.8739,-3.8662,-3.8616,-3.8569,-3.7892,-3.7615,-3.7615,-3.7523,-3.7446,-3.7307,-3.6722,-3.6492,-3.6492,-3.4375,-3.4602,-3.4758,-3.4364,-3.4877,-3.522,-3.4835,-3.4779,-3.4721,-3.4448,-3.4414,-3.4414,-3.4414,-3.4414,-3.4414,-3.4414,-3.4414,-3.4414,-3.4414,-3.4414,-3.4346,-3.4264,-3.4264,-3.4244,-3.4191,-3.4108,-3.4074,-3.4074,-3.4074,-3.3868,-3.3437,-3.3675,-3.3262,-3.2367,-3.2196,-3.1856,-3.1341,-3.0557,-3.019,0.0,0.0,-2.9523,0.0,-3.0037,-2.9922,-2.9549,-3.0037,-3.019,-3.0304,0.0,-3.1452,0.0,0.0,0.0,0.0,-3.1281,-3.1138,-3.1218,-2.9954,0.0,0.0,0.0,0.0,0.0,-2.9509,0.0,-2.9602,0.0,0.0,0.0,0.0,0.0,0.0,0.0,-3.0403,0.0,0.0,0.0,-3.067,0.0,0.0,0.0,-3.1485,0.0,0.0,-3.1513,-3.1724,-3.1766,-3.1499,-3.1485,-3.1485,-3.1485,-3.1991,-3.2258,-3.2258,-3.3129,-3.4245,-3.5606,-3.606,-3.6989,-3.8354,-3.8462,-3.8508,-3.8492,-3.8092,-3.7923,-3.7877,-3.72,-3.6923,-3.6923,-3.6923,-3.6923,-3.6892,-3.6599,-3.6492,-3.6492,-3.4453,-3.4727,-3.4919,-3.4409,-3.4777,-3.4971,-3.4467,-3.4414,-3.4414,-3.4414,-3.4414,-3.4414,-3.4414,-3.4414,-3.4414,-3.4414,-3.4414,-3.4346,-3.4196,-3.4312,-3.4264,-3.3942,-3.423,-3.4346,-3.4162,-3.4264,-3.4196,-3.3908,-3.3991,-3.3548,-3.264,-3.3058,-3.2547,-3.1355,-3.1415,-3.1119,-3.0519,0.0,-2.9367,-2.9328,-2.8736,-2.851,-2.8538,-2.9145,-2.8988,-2.859,-2.9145,-2.9367,-2.9471,-3.0291,-3.097,0.0,-3.0994,-3.1616,-3.2107,0.0,-3.031,-3.0458,-2.9553,0.0,0.0,0.0,0.0,0.0,0.0,0.0,0.0,0.0,0.0,0.0,0.0,0.0,-2.9602,-2.9602,0.0,-2.9602,0.0,-2.9602,0.0,0.0,0.0,0.0,0.0,0.0,-3.1148,-3.0993,-3.1134,-3.1148,-3.0993,-3.0979,-3.0979,-3.0979,-3.1134,-3.1232,-3.1232,-3.1836,-3.272,-3.3818,-3.4699,-3.5774,-3.7056,-3.7474,-3.7784,-3.7923,-3.7446,-3.723,-3.7184,-3.6692,-3.6492,-3.6492,-3.6492,-3.6492,-3.6492,-3.6492,-3.6492,-3.6492,-3.439,-3.4423,-3.4404,-3.4419,-3.4433,-3.4414,-3.4414,-3.4414,-3.4414,-3.4414,-3.4414,-3.4414,-3.4414,-3.4414,-3.4414,-3.4414,-3.4414,-3.4162,-3.3667,-3.4128,-3.3908,-3.281,-3.3805,-3.4162,-3.3632,-3.3942,-3.3667,-3.2739,-3.2952,-3.2354,-3.1007,-3.1392,-3.1355,-3.0895,-3.0114,-2.9781,-2.9704,-2.8882,-2.855,-2.855,-2.851,-2.851,-2.851,0.0,-2.851,-2.851,-2.855,0.0,0.0,-2.9484,-2.9742,0.0,0.0,0.0,0.0,0.0,0.0,0.0,0.0,0.0,0.0,-2.9432,0.0,0.0,0.0,0.0,-2.9602,0.0,0.0,0.0,0.0,-2.9602,-2.9602,-2.9602,-2.9602,0.0,0.0,0.0,0.0,0.0,0.0,0.0,0.0,-3.0175,-3.0273,-2.9715,-3.0189,-3.0291,-2.9701,-2.9673,-2.9673,-2.9673,-3.0249,-3.0526,-3.0526,-3.119,-3.2141,-3.3324,-3.3152,-3.406,-3.5846,-3.5676,-3.5938,-3.6553,-3.6538,-3.6522,-3.6522,-3.6507,-3.6492,-3.6492,-3.6492,-3.6492,-3.6492,-3.6492,-3.6492,-3.6492,-3.4414,-3.4414,-3.4414,-3.4414,-3.4414,-3.4414,-3.4414,-3.4414,-3.4414,-3.4414,-3.4414,-3.4414,-3.4414,-3.4414,-3.4414,-3.4414,-3.4094,-3.3805,-3.3632,-3.377,-3.3514,-3.2739,-3.3805,-3.4162,-3.3632,-3.3701,-3.3632,-3.3304,-3.2952,-3.2367,-3.1492,-3.1896,-3.1823,-3.1344,-3.0469,-3.0088,0.0,0.0,0.0,0.0,0.0,-2.851,-2.851,0.0,-2.851,-2.851,-2.851,-2.851,0.0,-2.8803,-2.925,-2.9602,-2.8984,-2.9401,-2.9813,-2.8308,-2.8143,0.0,0.0,0.0,-2.7304,-2.8045,0.0,0.0,0.0,0.0,0.0,0.0,0.0,0.0,0.0,-2.9602,-2.9602,-2.9602,-2.9602,-2.9602,0.0,0.0,0.0,0.0,0.0,0.0,0.0,0.0,0.0,-2.9631,-2.9799,-2.9827,-2.9617,-2.9602,-2.9602,-2.9602,-2.9813,-2.9912,-2.9912,-3.0136,-3.0587,-3.1322,-3.2008,-3.3092,-3.4484,-3.5186,-3.5891,-3.6492,-3.6492,-3.6492,-3.6492,-3.6492,-3.6492,-3.6492,-3.6492,-3.6492,-3.6492,-3.6492,-3.6492,-3.6492,-3.4414,-3.4414,-3.4414,-3.4414,-3.4414,-3.4414,-3.4414,-3.4414,-3.4414,-3.4414,-3.4414,-3.4346,-3.4128,-3.4128,-3.4025,-3.3805,-3.3479,-3.3269,-3.3269,-3.3269,-3.3023,-3.2417,-3.3304,-3.3514,-3.2988,-3.3164,-3.308,-3.2761,-3.2511,-3.1932,-3.1084,-3.1492,-3.1357,-3.0684,-3.0101,-2.9793,-2.96,-2.8816,-2.851,0.0,0.0,-2.851,0.0,0.0,-2.851,-2.851,0.0,-2.851,-2.851,-2.851,-2.8721,-2.8827,-2.798,-2.8137,-2.8426,-2.7193,-2.7045,-2.7258,-2.7138,-2.6744,0.0,-2.7317,-2.7517,0.0,-2.7517,0.0,-2.8707,0.0,0.0,0.0,0.0,-2.8849,-2.8944,-2.9166,-2.923,-2.9293,0.0,-2.9602,0.0,0.0,0.0,-2.9602,0.0,-2.9602,-2.9602,-2.9602,-2.9602,-2.9602,-2.9602,0.0,-2.9602,-2.9602,-2.9602,-2.9602,-2.9602,-2.9602,-2.9758,-3.0052,-3.1111,-3.2168,-3.3201,-3.453,-3.5521,-3.6153,-3.6384,-3.6492,-3.6492,-3.6492,-3.6492,-3.6492,-3.6492,-3.6492,-3.6492,-3.6492,-3.6492,-3.6492,-3.4414,-3.4414,-3.4414,-3.4414,-3.4414,0.0,0.0,0.0,-3.4414,-3.4414,-3.438,-3.4162,-3.3667,-3.3563,-3.3304,-3.2739,-3.2668,-3.2668,-3.2668,-3.2668,-3.2381,-3.1776,-3.2345,-3.2417,-3.1813,-3.2345,-3.2187,-3.1233,-3.1579,-3.1084,-2.9781,-3.0228,-2.9985,-2.917,-2.9131,0.0,-2.851,-2.851,-2.851,-2.851,-2.851,-2.851,-2.851,-2.851,-2.851,-2.851,-2.851,-2.851,-2.851,-2.8474,-2.8138,-2.7678,-2.7618,-2.6935,-2.6093,-2.6069,-2.5709,-2.5441,-2.6139,-2.6346,-2.6517,-2.7217,-2.7417,0.0,0.0,0.0,-2.7484,0.0,0.0,0.0,0.0,0.0,-2.7736,-2.8395,-2.8524,-2.8807,-2.9509,-2.9602,-2.9602,-2.9602,-2.9602,-2.9602,-2.9602,-2.9602,-2.9602,-2.9602,-2.9602,-2.9602,0.0,0.0,-2.9602,-2.9602,-2.9602,-2.9602,-2.9602,-2.9602,-2.9602,-2.9602,-3.0523,-3.1308,-3.2016,-3.3666,-3.4815,-3.5492,-3.6168,-3.6492,-3.6492,-3.6492,-3.6492,-3.646,-3.6492,-3.6492,-3.6492,-3.6492,-3.6492,-3.6492,-3.4414,-3.4414,-3.4414,-3.4414,-3.4414,-3.4414,0.0,0.0,0.0,0.0,-3.4059,-3.3736,-3.3632,-3.3199,-3.2881,-3.2704,-3.2309,-3.2019,-3.2019,-3.2019,-3.1776,-3.1235,-3.2164,-3.2417,-3.1813,-3.1946,-3.1909,-3.1653,-3.1334,-3.1011,-3.0659,-3.0785,-3.0558,-3.005,-2.9678,-2.9302,-2.8934,-2.863,-2.851,-2.851,-2.851,-2.851,-2.851,0.0,-2.851,-2.851,-2.851,-2.851,-2.845,-2.8053,-2.7798,-2.7546,-2.6767,-2.6322,-2.6021,-2.5624,-2.5408,-2.5347,-2.5511,-2.5581,-2.5616,-2.5826,-2.6277,-2.6539,0.0,0.0,0.0,0.0,0.0,0.0,0.0,0.0,0.0,-2.8395,-2.8949,-2.9369,-2.9571,-2.9602,0.0,-2.9602,-2.9602,-2.9602,-2.9602,-2.9602,-2.9602,-2.9602,-2.9602,-2.9602,-2.9602,0.0,0.0,-2.9602,-2.9602,-2.9602,-2.9602,-2.9602,-2.9602,-2.9602,-3.0205,-3.0826,-3.1526,-3.2819,-3.3983,-3.5002,-3.5638,-3.6116,-3.6492,-3.6492,-3.6258,-3.5943,-3.6352,-3.6492,-3.6492,-3.6492,-3.6492,-3.6492,-3.4414,-3.4414,-3.4414,-3.4414,0.0,0.0,-3.4414,-3.4414,0.0,-3.4414,-3.3908,0.0,-3.3234,-3.2902,-3.2581,-3.2337,-3.2017,-3.1891,-3.2189,-3.1739,-3.1421,-3.1347,-3.174,-3.1813,-3.1445,-3.1445,-3.1445,-3.1445,-3.1161,-3.0986,-3.0986,-3.0986,-3.0672,-3.0075,-2.9832,-2.9484,-2.9091,-2.8855,-2.8669,-2.851,-2.851,-2.851,0.0,-2.851,-2.8366,-2.8162,-2.8162,-2.8162,-2.8086,-2.7786,-2.7404,-2.6899,-2.6286,-2.5937,-2.5697,-2.5396,-2.5312,-2.5312,-2.5312,-2.5312,-2.5312,-2.5312,-2.5616,-2.5791,-2.537,-2.5953,-2.6436,0.0,-2.6264,-2.6526,0.0,0.0,0.0,-2.7458,-2.8195,-2.8675,-2.8675,-2.8675,0.0,0.0,-2.9121,0.0,-2.9571,-2.9602,-2.9602,-2.9602,-2.9602,-2.9602,0.0,0.0,0.0,-2.9602,-2.9602,-2.9602,-2.9602,-2.9602,-2.9602,-2.9602,-3.0083,-3.0499,-3.0904,-3.2053,-3.3072,-3.4053,-3.468,-3.5289,-3.5784,-3.5784,-3.5623,-3.5415,-3.5958,-3.6148,-3.6117,-3.5859,-3.6075,-3.646,-3.4414,-3.4414,-3.4414,0.0,0.0,0.0,0.0,-3.4312,0.0,-3.4312,0.0,-3.3318,-3.2866,-3.2759,-3.253,-3.2058,-3.1954,-3.2133,-3.2655,-3.1708,-3.1316,-3.1787,-3.1275,-3.0986,-3.0986,-3.0986,-3.0986,-3.0986,-3.0986,-3.0986,-3.0986,-3.0986,-3.0583,-2.9781,-2.9781,0.0,0.0,-2.9131,-2.8895,-2.859,-2.859,-2.8502,-2.8414,-2.8526,-2.8177,-2.7582,-2.7654,-2.763,-2.757,-2.7498,-2.6875,-2.6081,-2.6021,-2.5685,-2.5312,-2.5312,-2.5312,-2.5312,-2.5312,-2.5312,-2.5312,-2.5312,-2.5312,-2.5312,-2.5312,-2.5312,-2.5312,-2.5312,-2.5312,-2.5312,0.0,0.0,0.0,-2.6289,-2.7015,0.0,0.0,0.0,-2.7769,-2.8427,0.0,0.0,0.0,-2.9602,-2.9602,-2.9602,-2.9602,0.0,0.0,0.0,0.0,-2.9602,-2.9602,-2.9602,-2.9602,0.0,-2.9602,-2.9602,-3.0021,-3.019,-3.0249,-3.1313,-3.2187,-3.2926,-3.3606,-3.4286,-3.4909,-3.4909,-3.4909,-3.4942,-3.526,-3.5424,-3.5413,-3.4782,-3.5199,-3.5982,-3.4414,-3.4414,-3.4414,-3.4414,0.0,-3.423,-3.3805,-3.3736,-3.3736,-3.3736,-3.3204,-3.3027,-3.3389,-3.2984,-3.2856,-3.3247,-3.2829,0.0,0.0,0.0,0.0,-3.1807,-3.1273,-3.0986,-3.0986,-3.0986,-3.0986,-3.0986,-3.0986,-3.0986,-3.0986,-3.0986,-3.0748,-3.0279,-3.0279,0.0,-2.9561,-2.9236,0.0,-2.8973,-2.8973,-2.8521,-2.7909,-2.8685,-2.8181,-2.709,-2.7522,-2.7402,-2.6958,-2.6538,-2.625,-2.6021,-2.5588,-2.5384,-2.5312,-2.5312,-2.5312,-2.5312,-2.5312,-2.5312,-2.5312,-2.5312,-2.5312,-2.5312,-2.5312,-2.5312,-2.5312,-2.5312,-2.5312,-2.5312,-2.5312,0.0,0.0,0.0,0.0,0.0,0.0,0.0,0.0,0.0,0.0,-2.8807,0.0,0.0,-2.9602,-2.9602,-2.9602,0.0,0.0,0.0,0.0,0.0,-2.9602,0.0,0.0,0.0,-2.9602,-2.9602,-2.9696,-2.9727,-2.9755,-3.0457,-3.1354,-3.237,-3.3053,-3.3941,-3.4909,-3.4909,-3.4909,-3.4832,-3.397,-3.3914,-3.4214,-3.3563,-3.3447,-3.3599,-3.4414,-3.4414,-3.4414,-3.4414,0.0,0.0,0.0,-3.3533,-3.3245,-3.3569,-3.3092,-3.3022,-3.3935,-3.3754,-3.3692,-3.3979,-3.3744,-3.3456,-3.3182,-3.2607,-3.2111,-3.181,-3.1536,-3.1287,-3.0999,-3.0986,-3.0986,-3.0986,0.0,-3.0986,-3.0986,-3.0986,-3.0798,-3.0406,0.0,-3.0152,0.0,0.0,0.0,-2.9007,-2.9307,-2.898,-2.8381,-2.8883,-2.8484,-2.7635,-2.7671,-2.72,-2.6466,-2.619,-2.5913,-2.5636,-2.5384,-2.5312,-2.5312,-2.5312,-2.5312,-2.5312,-2.5312,-2.5312,-2.5312,-2.5312,-2.5312,-2.5312,-2.5312,-2.5312,-2.5312,-2.5312,-2.5312,-2.5312,-2.5312,-2.5581,0.0,0.0,0.0,0.0,0.0,0.0,-2.6629,0.0,-2.7425,-2.7855,0.0,0.0,0.0,0.0,0.0,-2.9602,-2.9602,0.0,-2.9602,0.0,0.0,0.0,0.0,0.0,0.0,-2.9602,-2.9602,-2.9602,-2.9617,-2.9912,-3.0686,-3.1866,-3.2179,-3.2968,-3.4051,-3.372,-3.3777,-3.3918,-3.3064,-3.2883,-3.2993,-3.2368,-3.1932,-3.1801,-3.4414,-3.4414,0.0,0.0,-3.4157,-3.3924,-3.4353,-3.3536,-3.3063,-3.3549,-3.3171,-3.3325,-3.446,-3.4596,-3.4633,-3.475,-3.4659,-3.4358,-3.3796,-3.3208,-3.262,-3.2006,-3.1863,-3.1536,-3.0999,-3.0986,-3.0986,0.0,0.0,0.0,-3.0986,-3.0986,-3.0823,0.0,0.0,0.0,0.0,0.0,-2.9744,-2.9076,-2.9492,-2.9366,-2.895,-2.9271,-2.8918,-2.8235,-2.795,-2.7205,-2.636,-2.6166,-2.5745,-2.5312,-2.5312,-2.5312,-2.5312,-2.5312,-2.5312,-2.5312,-2.5312,-2.5312,-2.5312,-2.5312,-2.5312,-2.5312,-2.5312,-2.5312,-2.5312,-2.5312,-2.5312,-2.5312,-2.5312,-2.5382,0.0,0.0,0.0,0.0,0.0,0.0,-2.5581,0.0,0.0,0.0,-2.8168,0.0,0.0,0.0,0.0,-2.9602,-2.9602,-2.9602,-2.9602,0.0,0.0,-2.9602,-2.9602,0.0,-2.9602,-2.9602,-2.9602,-2.9602,-2.9602,-2.9602,-3.0305,-3.1485,-3.1485,-3.2117,-3.3073,-3.2469,-3.2472,-3.2768,-3.217,-3.1897,-3.1765,-3.1166,-3.0668,-3.0435,-3.4414,0.0,0.0,0.0,0.0,-3.4345,-3.4469,-3.3952,-3.3519,-3.3596,-3.3569,-3.3944,-3.5083,-3.5224,-3.5417,-3.59,-3.5495,-3.4959,-3.4358,-3.3809,-3.3247,-3.2633,-3.2071,-3.1536,-3.0999,-3.0986,-3.0986,0.0,0.0,-3.0986,0.0,-3.0986,-3.0986,0.0,0.0,0.0,0.0,-2.9724,-2.9537,-2.9461,-2.9512,-2.9313,-2.9088,-2.9961,-2.944,-2.8198,-2.8223,-2.7888,-2.725,-2.6396,-2.5745,-2.5312,-2.5312,-2.5312,-2.5312,-2.5312,-2.5312,-2.5312,-2.5312,-2.5312,-2.5312,-2.5312,-2.5312,-2.5312,-2.5312,-2.5312,-2.5312,-2.5312,-2.5312,-2.5312,-2.5312,-2.5606,-2.5723,0.0,0.0,0.0,0.0,0.0,-2.5581,-2.6311,0.0,0.0,-2.7517,-2.8149,0.0,0.0,-2.923,-2.9602,-2.9602,-2.9602,-2.9602,-2.9602,0.0,-2.9602,-2.9602,-2.9602,-2.9602,-2.9602,-2.9602,-2.9602,-2.9602,-2.9602,-3.0305,-3.1485,-3.1485,-3.1864,-3.244,-3.1822,-3.1603,-3.1613,-3.0932,-3.0664,-3.0594,-2.9974,-2.9732,-2.9701,0.0,0.0,0.0,0.0,0.0,0.0,0.0,-3.4241,-3.3714,-3.4044,-3.3815,-3.4149,-3.5626,-3.5783,-3.5874,-3.6083,-3.59,-3.5391,-3.4463,-3.4188,-3.3666,-3.2738,-3.2476,-3.1927,-3.0999,-3.0986,-3.0986,0.0,0.0,0.0,0.0,0.0,0.0,0.0,0.0,-3.0309,-3.01,-2.9941,-2.9868,-2.9893,-3.0243,-3.0091,-2.9698,-3.0226,-3.0049,-2.949,-2.9238,-2.8811,-2.835,-2.7953,-2.692,-2.5721,-2.5408,-2.5312,-2.5312,-2.5312,-2.5312,-2.5312,-2.5312,-2.5312,-2.5312,-2.5312,-2.5312,-2.5312,-2.5312,-2.5312,-2.5312,-2.5312,-2.5312,-2.5312,-2.5312,-2.5641,-2.5758,-2.5382,0.0,0.0,0.0,0.0,0.0,-2.606,0.0,-2.6564,-2.7703,-2.7855,0.0,0.0,0.0,-2.9602,-2.9602,-2.9602,-2.9602,-2.9602,0.0,-2.9602,-2.9602,-2.9602,-2.9602,-2.9602,-2.9602,-2.9602,-2.9602,-2.9602,-3.008,-3.0937,-3.1316,-3.164,-3.1808,-3.1176,-3.0909,-3.0853,-3.0221,-2.9968,-2.994,-2.9701,-2.9602,-2.9602,-3.5581,0.0,-3.5801,0.0,-3.5451,-3.492,-3.5345,-3.45,-3.3966,-3.4345,-3.4071,-3.441,-3.5926,-3.6109,-3.6109,-3.6109,-3.6109,-3.5626,-3.4463,-3.4397,-3.3888,-3.2738,-3.2685,0.0,-3.1013,-3.0986,-3.0986,-3.0986,-3.0986,0.0,0.0,0.0,0.0,0.0,-3.0348,-3.0257,-3.01,-3.01,-3.01,-3.014,-3.0568,-3.0594,-3.0388,-3.0517,-3.0596,-3.052,-3.0075,-2.9707,-2.9365,-2.9088,-2.8102,-2.681,-2.5972,-2.5609,-2.5453,-2.5347,-2.5312,-2.5312,-2.5312,-2.5312,-2.5347,-2.5453,-2.55,-2.5488,-2.5594,-2.5616,-2.5594,-2.5488,-2.5382,-2.5347,-2.5453,-2.5781,-2.5921,-2.5535,0.0,0.0,0.0,-2.5653,0.0,-2.5723,-2.6037,-2.6496,-2.7157,-2.7557,0.0,0.0,0.0,-2.9602,-2.9602,-2.9602,-2.9602,0.0,0.0,0.0,-2.9602,-2.9602,-2.9602,-2.9602,-2.9602,-2.9602,-2.9617,-2.9785,-3.0091,-3.0512,-3.1007,-3.1204,-3.1162,-3.0516,-3.0231,-3.0175,-2.9785,-2.9602,-2.9602,-2.9602,-2.9602,-2.9602,-3.6301,-3.6301,-3.631,-3.6287,-3.5795,-3.5411,-3.5413,-3.4853,-3.4384,-3.4397,-3.4384,-3.4829,-3.5979,-3.6109,-3.6109,-3.6109,-3.6109,-3.5626,-3.4463,-3.4397,-3.3888,0.0,0.0,-3.215,-3.1013,-3.0986,-3.0986,-3.0986,0.0,0.0,-3.0986,0.0,-3.0986,-3.0973,-3.0973,-3.066,-3.01,-3.01,-3.01,-3.01,-3.0113,-3.0477,-3.0973,-3.0986,-3.0986,-3.0949,-3.052,-3.0394,-3.0228,-2.929,-2.8988,-2.8699,-2.7186,-2.6304,-2.5793,-2.5418,-2.5312,-2.5312,-2.5312,-2.5312,-2.5382,-2.5793,-2.5898,-2.5968,-2.6324,-2.638,-2.6289,-2.5968,-2.5571,-2.5418,-2.5828,-2.6164,-2.6289,-2.5933,0.0,0.0,0.0,-2.5653,0.0,-2.5347,-2.6311,-2.6552,-2.5441,-2.7232,0.0,0.0,0.0,0.0,0.0,0.0,0.0,-2.9602,-2.9602,0.0,-2.9602,-2.9602,-2.9602,-2.9602,-2.9602,-2.9602,-2.9631,-3.0203,-3.0484,-3.0498,-3.0498,-3.0498,-3.0455,-2.9869,-2.9617,-2.9617,-2.9602,-2.9602,-2.9602,-2.9602,-2.9602,-2.9602,-3.6231,-3.5981,-3.5839,-3.6234,-3.5809,-3.5386,-3.5413,-3.4812,-3.4397,-3.4397,-3.4397,-3.4685,-3.5469,-3.5874,-3.5953,0.0,-3.5887,-3.5626,0.0,-3.4397,-3.3888,-3.2738,-3.2685,-3.215,-3.1013,-3.0986,-3.0986,-3.0986,0.0,0.0,0.0,-3.0986,-3.0777,-3.0375,-3.0375,-3.027,-3.01,-3.01,-3.0322,-3.0712,-3.0712,-3.083,-3.0986,-3.0986,-3.0986,-3.0986,-3.0861,-3.0798,-3.0759,-3.0465,-3.008,-2.9606,-2.8904,-2.7637,-2.6353,-2.5856,-2.55,-2.5312,-2.5312,-2.5312,-2.5382,-2.5793,-2.591,-2.6002,-2.6324,-2.6233,-2.6037,-2.591,-2.5793,-2.5758,-2.5875,-2.6405,-2.6598,-2.6002,-2.6198,0.0,-2.5418,0.0,-2.6186,-2.6082,-2.662,-2.704,-2.7209,-2.7364,0.0,0.0,0.0,0.0,0.0,0.0,0.0,0.0,-2.8984,0.0,-2.8984,-2.9392,-2.9602,-2.9602,-2.9602,-2.9602,-2.9617,-2.9813,-2.9897,-2.9897,-2.9897,-2.9897,-2.9883,-2.9687,-2.9602,-2.9602,-2.9602,-2.9602,-2.9602,-2.9602,-2.9602,-2.9602,-3.6623,-3.6158,-3.5776,-3.5935,-3.5656,-3.5318,-3.5059,-3.4688,-3.4397,-3.4397,-3.4397,-3.4541,-3.492,-3.5469,0.0,-3.5325,-3.56,-3.5404,-3.4463,-3.4397,-3.3888,-3.2738,-3.2685,-3.215,-3.1013,-3.0986,0.0,-3.0986,-3.0986,-3.0986,-3.0986,-3.0986,-3.079,-3.0451,-3.0451,-3.0451,-3.0451,-3.0451,-3.066,-3.0986,-3.0986,-3.0986,-3.0986,-3.0986,-3.0986,-3.0986,-3.0986,-3.0986,-3.0986,-3.0986,-3.0751,-3.0338,-2.9932,-2.87,-2.7278,-2.6459,-2.5963,-2.5699,-2.5571,-2.5629,-2.5804,-2.6198,-2.6302,-2.6405,-2.6735,-2.653,-2.6302,-2.6302,-2.6198,-2.6129,-2.628,-2.6701,-2.6803,-2.6198,-2.6393,-2.6393,-2.5641,0.0,-2.6552,0.0,0.0,0.0,0.0,-2.7117,-2.7085,0.0,0.0,0.0,0.0,0.0,0.0,-2.8675,-2.8689,0.0,-2.904,-2.942,-2.9602,-2.9602,-2.9602,-2.9602,-2.9602,-2.9602,-2.9602,-2.9602,-2.9602,-2.9602,-2.9602,-2.9602,-2.9602,-2.9602,-2.9602,-2.9602,-2.9602,-2.9602,-2.9602,-2.9602,-3.725,-3.6677,-3.6044,0.0,-3.5318,0.0,-3.4481,-3.4397,-3.4397,-3.4397,-3.4397,-3.4397,-3.4397,-3.4894,-3.5234,-3.5234,0.0,0.0,0.0,-3.4397,-3.3888,-3.2738,-3.2685,-3.215,-3.1013,-3.0986,-3.0986,-3.0986,-3.0986,-3.0986,-3.0986,-3.0986,-3.0986,-3.0986,-3.0986,-3.0986,-3.0986,-3.0986,-3.0986,-3.0986,-3.0986,-3.0986,-3.0986,-3.0986,-3.0986,-3.0986,-3.0986,-3.0986,-3.0986,-3.0986,-3.0986,-3.0895,-3.0322,-2.9544,-2.8518,-2.7169,-2.6596,-2.6324,-2.6037,-2.6164,-2.6483,-2.6905,-2.7007,-2.7108,-2.7423,-2.7255,-2.7007,-2.7007,-2.6688,-2.6564,-2.6939,-2.704,-2.6905,-2.6517,-2.6769,-2.6735,-2.6037,-2.6543,-2.6858,0.0,0.0,0.0,-2.5769,-2.6505,-2.6593,0.0,0.0,0.0,0.0,0.0,-2.7987,-2.8605,-2.8633,-2.8928,-2.9532,-2.9588,-2.9602,-2.9602,-2.9602,-2.9602,-2.9602,-2.9602,-2.9602,-2.9602,-2.9602,-2.9602,-2.9602,-2.9602,-2.9602,-2.9602,-2.9602,-2.9602,-2.9602,-2.9602,-2.9602,-2.9602,0.0,0.0,-3.5426,-3.4771,-3.4647,-3.4564,-3.4439,-3.4397,-3.4397,-3.4397,-3.4397,-3.4397,-3.4397,-3.4528,-3.4607,-3.4607,-3.5025,-3.5038,-3.4437,-3.4397,-3.3888,-3.2738,-3.2685,-3.215,-3.1013,-3.0986,-3.0986,-3.0986,-3.0986,-3.0986,-3.0986,-3.0986,-3.0986,-3.0986,-3.0986,-3.0986,-3.0986,-3.0986,-3.0986,-3.0986,-3.0986,-3.0986,-3.0986,-3.0986,-3.0986,-3.0986,-3.0986,-3.0986,-3.0986,-3.0986,-3.0986,-3.096,-3.083,-3.0325,-2.9466,-2.7959,-2.6993,-2.638,-2.6289,-2.6358,-2.6483,-2.6905,-2.7175,-2.739,-2.749,-2.7255,-2.7007,-2.7007,-2.6926,-2.6905,-2.6973,-2.7209,-2.7255,-2.6939,-2.6939,-2.6837,-2.6358,-2.6701,-2.6772,0.0,-2.6674,-2.668,-2.5832,-2.5754,-2.5652,0.0,0.0,0.0,0.0,-2.6123,-2.6951,-2.7973,-2.8016,-2.8282,-2.89,-2.9378,-2.9602,-2.9602,-2.9602,-2.9602,-2.9602,-2.9602,-2.9602,-2.9602,-2.9602,-2.9602,-2.9602,-2.9602,-2.9602,-2.9602,-2.9602,-2.9602,-2.9602,-2.9602,-2.9602,-2.9602,-3.6387,-3.5561,-3.4812,-3.4481,-3.4397,-3.4397,-3.4397,-3.4397,-3.4397,-3.4397,-3.4397,-3.4397,-3.4397,-3.4397,-3.4397,-3.4397,-3.4698,-3.475,-3.441,-3.4162,-3.3626,-3.2725,-3.245,-3.1888,-3.0999,-3.0986,-3.0986,-3.0986,-3.0986,-3.0986,-3.0986,-3.0986,-3.0986,-3.0986,-3.0986,-3.0986,-3.0986,-3.0986,-3.0986,-3.0986,-3.0986,-3.0986,-3.0986,-3.0986,-3.0986,-3.0986,-3.0986,-3.0986,-3.0986,-3.0986,-3.0986,-3.0986,-3.0986,-3.0594,-2.9933,-2.9116,-2.8116,-2.7224,-2.6798,-2.6803,-2.6973,-2.7175,-2.7356,-2.749,-2.749,-2.7356,-2.7222,-2.7222,-2.7222,-2.7222,-2.7222,-2.739,-2.739,-2.704,-2.7142,-2.6984,-2.6358,-2.6622,-2.666,-2.6013,-2.6154,-2.6059,-2.5484,-2.5141,-2.4834,-2.4596,-2.4826,0.0,-2.5326,-2.6435,-2.7253,-2.7646,-2.8161,-2.8702,-2.9205,-2.9465,-2.9602,-2.9602,-2.9602,-2.9602,-2.9602,-2.9602,-2.9602,-2.9602,-2.9602,-2.9602,-2.9602,-2.9602,-2.9602,-2.9602,-2.9602,-2.9602,-2.9602,-2.9602,-2.9602,-2.9602,-3.6229,-3.5318,-3.4522,-3.4439,-3.4397,-3.4397,-3.4397,-3.4397,-3.4397,-3.4397,-3.4397,-3.4397,-3.4397,-3.4397,-3.4397,-3.4397,-3.4397,-3.4397,-3.4397,-3.3901,-3.3326,-3.2725,-3.2111,-3.1536,-3.0999,-3.0986,-3.0986,-3.0986,-3.0986,-3.0986,-3.0986,-3.0986,-3.0986,-3.0986,-3.0986,-3.0986,-3.0986,-3.0986,-3.0986,-3.0986,-3.0986,-3.0986,-3.0986,-3.0986,-3.0986,-3.0986,-3.0986,-3.0986,-3.0986,-3.0986,-3.0986,-3.0986,-3.0986,-3.066,-3.0218,-3.0127,-2.9366,-2.8351,-2.7459,-2.7341,-2.749,-2.749,-2.749,-2.749,-2.749,-2.749,-2.749,-2.749,-2.749,-2.749,-2.749,-2.749,-2.7364,-2.6958,-2.7159,-2.7064,-2.6121,0.0,-2.6334,-2.5759,-2.5694,-2.5471,-2.4926,-2.4697,-2.436,-2.3842,-2.5011,-2.5776,-2.5835,-2.7364,-2.8108,-2.7743,-2.8676,-2.9408,-2.9839,-2.9713,-2.9634,-2.9634,-2.9602,-2.9602,-2.9602,-2.9602,-2.9602,-2.9602,-2.9602,-2.9602,-2.9602,-2.9602,-2.9602,-2.9602,-2.9602,-2.9602,-2.9602,-2.9602,-2.9602,-2.9602,-3.5897,-3.5507,-3.5072,-3.4481,-3.4397,-3.4397,-3.4397,-3.4397,-3.4397,-3.4397,-3.4397,-3.4397,-3.4397,-3.4397,-3.4397,-3.4397,-3.4397,-3.4397,-3.4397,-3.3901,-3.3326,-3.2725,-3.2111,-3.1536,-3.0999,-3.0986,-3.0986,-3.0986,-3.0986,-3.0986,-3.0986,-3.0986,-3.0986,-3.0986,-3.0986,-3.0986,-3.0986,-3.0986,-3.0986,-3.0986,-3.0986,-3.0986,-3.0986,-3.0986,-3.0986,-3.0986,-3.0986,-3.0986,-3.0986,-3.0986,-3.0986,-3.0986,-3.0986,-3.0934,-3.0764,-3.0244,-2.9666,-2.9013,-2.8377,-2.7855,-2.749,-2.749,-2.749,-2.749,-2.749,-2.749,-2.749,-2.749,-2.749,-2.749,-2.749,-2.749,-2.7233,-2.6431,-2.6596,-2.6511,-2.5576,0.0,-2.5746,-2.5201,-2.5136,-2.49,-2.4308,-2.4657,-2.4892,-2.4784,-2.5572,-2.6152,-2.6452,-2.7709,-2.8554,-2.8775,-2.9052,-2.9483,-3.0036,-2.9853,-2.9761,-2.9761,-2.9651,-2.9602,-2.9602,-2.9602,-2.9602,-2.9602,-2.9602,-2.9602,-2.9602,-2.9602,-2.9602,-2.9602,-2.9602,-2.9602,-2.9602,-2.9602,-2.9602,-2.9602,-3.5911,-3.5521,-3.5113,-3.4701,-3.4618,-3.4577,-3.4439,-3.4397,-3.4397,-3.4397,-3.4397,-3.4397,-3.4397,-3.4397,-3.4397,-3.4397,-3.4397,-3.428,-3.3979,-3.343,-3.2842,-3.2254,-3.1679,-3.1261,-3.0999,-3.0986,-3.0986,-3.0986,-3.0986,-3.0986,-3.0986,-3.0986,-3.0986,-3.0986,-3.0986,-3.0986,-3.0986,-3.0986,-3.0986,-3.0986,-3.0986,-3.0986,-3.0986,-3.0986,-3.0986,-3.0986,-3.0986,-3.0986,-3.0986,-3.0986,-3.0986,-3.0986,-3.0986,-3.0986,-3.0934,-3.0673,-2.9732,-2.866,-2.8085,-2.7699,-2.749,-2.749,-2.749,-2.749,-2.749,-2.749,-2.749,-2.749,-2.749,-2.749,-2.749,-2.749,-2.7274,-2.659,-2.6609,0.0,0.0,-2.5261,-2.5158,-2.457,-2.4809,-2.4887,-2.4596,-2.5092,-2.5432,-2.5432,-2.6272,-2.6872,-2.701,-2.8407,-2.9278,-2.9414,-2.9684,-2.9932,-3.0219,-3.0021,-2.9898,-2.9808,-2.9851,-2.982,-2.9713,-2.9713,-2.9713,-2.9699,-2.9634,-2.9602,-2.9602,-2.9602,-2.9602,-2.9602,-2.9602,-2.9602,-2.9602,-2.9602,-2.9602,-2.9602,-3.5871,-3.544,-3.5044,-3.488,-3.488,-3.4797,-3.4564,-3.4522,-3.4481,-3.4481,-3.4439,-3.4397,-3.4397,-3.4397,-3.4397,-3.4397,-3.428,-3.3979,-3.3417,-3.2829,-3.2293,-3.1823,-3.13,-3.0986,-3.0986,-3.0986,-3.0986,-3.0986,-3.0986,-3.0986,-3.0986,-3.0986,-3.0986,-3.0986,-3.0986,-3.0986,-3.0986,-3.0986,-3.0986,-3.0986,-3.0986,-3.0986,-3.0986,-3.0986,-3.0986,-3.0986,-3.0986,-3.0986,-3.0986,-3.0986,-3.0986,-3.0986,-3.0986,-3.0986,-3.0986,-3.0986,-2.9849,-2.8464,-2.7889,-2.7594,-2.749,-2.749,-2.749,-2.749,-2.749,-2.749,-2.749,-2.749,-2.749,-2.749,-2.749,-2.749,-2.7307,-2.67,0.0,0.0,0.0,-2.514,-2.5001,-2.454,-2.4896,-2.5201,-2.5201,-2.568,-2.602,-2.602,-2.7103,-2.7787,-2.7787,-2.9184,-3.0007,-3.0007,-3.0251,-3.0387,-3.0387,-3.0189,-3.0036,-2.9901,-2.9974,-2.9913,-2.9808,-2.9761,-2.9761,-2.9761,-2.962,-2.9602,-2.9602,-2.9602,-2.9602,-2.9602,-2.9602,-2.9602,-2.9602,-2.9602,-2.9602,-2.9602,-3.544,-3.5277,-3.5086,-3.5086,-3.5086,-3.5086,-3.5031,-3.488,-3.4756,-3.4756,-3.4535,-3.4397,-3.4397,-3.4397,-3.4397,-3.4397,-3.394,-3.3391,-3.2803,-3.2215,-3.185,-3.1797,-3.13,-3.0986,-3.0986,-3.0986,-3.0986,-3.0986,-3.0986,-3.0986,-3.0986,-3.0986,-3.0986,-3.0986,-3.0986,-3.0986,-3.0986,-3.0986,-3.0986,-3.0986,-3.0986,-3.0986,-3.0986,-3.0986,-3.0986,-3.0986,-3.0986,-3.0986,-3.0986,-3.0986,-3.0986,-3.0986,-3.0986,-3.0986,-3.0986,-3.0986,-3.0137,-2.9114,-2.8512,-2.7941,-2.749,-2.749,-2.749,-2.749,-2.749,-2.749,-2.749,-2.749,-2.749,-2.749,-2.749,-2.749,-2.7241,-2.6361,0.0,0.0,-2.5415,-2.5558,-2.5715,-2.5675,-2.5702,-2.5728,-2.5728,-2.6282,-2.6641,-2.6641,-2.8084,-2.8967,-2.8967,-2.9962,-3.0538,-3.0538,-3.0568,-3.0568,-3.0568,-3.0264,-3.0158,-3.0251,-2.9851,-2.9682,-2.9808,-2.9682,-2.9602,-2.9602,-2.9602,-2.9602,-2.9602,-2.9602,-2.9602,-2.9602,-2.9602,-2.9602,-2.9602,-2.9602,-2.9602,-2.9602,-3.5602,-3.5521,-3.544,-3.5318,-3.5277,-3.5236,-3.5127,-3.4921,-3.4839,-3.4962,-3.466,-3.4439,-3.4618,-3.4494,-3.4267,-3.3927,-3.3705,-3.3195,-3.2228,-3.1928,-3.1641,-3.1326,-3.1104,-3.0986,-3.0986,-3.0986,-3.0986,-3.0986,-3.0986,-3.0986,-3.0986,-3.0986,-3.0986,-3.0986,-3.0986,-3.0986,-3.0986,-3.0986,-3.0986,-3.0986,-3.0986,-3.0986,-3.0986,-3.0986,-3.0986,-3.0986,-3.0986,-3.0986,-3.0986,-3.0986,-3.0986,-3.0986,-3.0986,-3.0986,-3.0986,-3.0986,-3.0176,-2.9258,-2.9035,-2.8242,-2.749,-2.749,-2.749,-2.749,-2.749,-2.749,-2.749,-2.749,-2.749,-2.749,-2.749,-2.749,-2.7274,-2.6622,0.0,-2.6432,-2.5701,-2.5717,-2.5793,-2.5793,-2.6138,-2.6347,-2.6347,-2.687,-2.721,-2.721,-2.8082,-2.8592,-2.8592,-2.956,-3.0251,-3.0598,-3.0598,-3.0598,-3.0598,-3.0462,-3.0341,-3.0158,-3.0097,-3.0021,-2.9974,-2.9806,-2.9775,-2.9896,-2.9696,-2.9602,-2.9602,-2.9602,-2.9602,-2.9602,-2.9602,-2.9602,-2.9602,-2.9602,-2.9602,-2.9602,-3.571,-3.571,-3.5669,-3.5521,-3.548,-3.544,-3.5318,-3.5127,-3.5044,-3.5195,-3.4867,-3.4701,-3.488,-3.466,-3.4312,-3.383,-3.3498,-3.2934,-3.194,-3.1679,-3.1392,-3.0999,-3.0986,-3.0986,-3.0986,-3.0986,-3.0986,-3.0986,-3.0986,-3.0986,-3.0986,-3.0986,-3.0986,-3.0986,-3.0986,-3.0986,-3.0986,-3.0986,-3.0986,-3.0986,-3.0986,-3.0986,-3.0986,-3.0986,-3.0986,-3.0986,-3.0986,-3.0986,-3.0986,-3.0986,-3.0986,-3.0986,-3.0986,-3.0986,-3.0986,-3.0986,-3.0307,-2.951,-2.9362,-2.8556,-2.7758,-2.7542,-2.749,-2.749,-2.749,-2.749,-2.749,-2.749,-2.749,-2.749,-2.749,-2.749,-2.7372,-2.7,-2.6935,-2.6804,-2.638,-2.6328,-2.6328,-2.6328,-2.67,-2.6935,-2.6935,-2.7301,-2.749,-2.749,-2.8006,-2.8352,-2.8527,-2.9498,-3.0129,-3.0357,-3.0507,-3.0598,-3.0598,-3.0538,-3.0417,-3.0264,-3.0249,-3.0219,-3.0158,-2.9991,-2.9974,-3.008,-2.9865,-2.9772,-2.9772,-2.9772,-2.9727,-2.9651,-2.9651,-2.9634,-2.9602,-2.9602,-2.9602,-2.9602,-3.571,-3.571,-3.571,-3.571,-3.571,-3.571,-3.571,-3.5521,-3.5399,-3.5399,-3.5236,-3.5086,-3.5086,-3.4921,-3.4641,-3.422,-3.3265,-3.2516,-3.2131,-3.1414,-3.0986,-3.0986,-3.0986,-3.0986,-3.0986,-3.0986,-3.0986,-3.0986,-3.0986,-3.0986,-3.0986,-3.0986,-3.0986,-3.0986,-3.0986,-3.0986,-3.0986,-3.0986,-3.0986,-3.0986,-3.0986,-3.0986,-3.0986,-3.0986,-3.0986,-3.0986,-3.0986,-3.0986,-3.0986,-3.0986,-3.0986,-3.0986,-3.0986,-3.0986,-3.0986,-3.0986,-3.0581,-2.997,-2.9431,-2.8878,-2.8242,-2.7633,-2.749,-2.749,-2.749,-2.749,-2.749,-2.749,-2.749,-2.749,-2.749,-2.749,-2.749,-2.749,-2.749,-2.749,-2.749,-2.749,-2.749,-2.749,-2.749,-2.749,-2.749,-2.749,-2.749,-2.749,-2.8006,-2.8527,-2.9067,-3.0052,-3.0357,-2.9808,-3.0312,-3.0598,-3.0598,-3.0417,-3.0417,-3.0598,-3.0264,-3.0158,-3.0296,-3.0158,-3.008,-3.008,-3.008,-3.008,-3.008,-3.008,-2.9974,-2.9808,-2.9808,-2.9699,-2.9602,-2.9602,-2.9602,-2.9602,-3.571,-3.571,-3.571,-3.571,-3.571,-3.571,-3.571,-3.5521,-3.544,-3.5602,-3.5318,-3.5154,-3.5318,-3.4753,-3.4153,-3.362,-3.2918,-3.222,-3.1563,-3.1191,-3.0986,-3.0986,-3.0986,-3.0986,-3.0986,-3.0986,-3.0986,-3.0986,-3.0986,-3.0986,-3.0986,-3.0986,-3.0986,-3.0986,-3.0986,-3.0986,-3.0986,-3.0986,-3.0986,-3.0986,-3.0986,-3.0986,-3.0986,-3.0986,-3.0986,-3.0986,-3.0986,-3.0986,-3.0986,-3.0986,-3.0986,-3.0986,-3.0986,-3.0986,-3.0986,-3.0986,-3.0581,-2.997,-2.9431,-2.8878,-2.8242,-2.7633,-2.749,-2.749,-2.749,-2.749,-2.749,-2.749,-2.749,-2.749,-2.749,-2.749,-2.749,-2.749,-2.749,-2.749,-2.749,-2.749,-2.749,-2.749,-2.749,-2.749,-2.749,-2.749,-2.749,-2.749,-2.8006,-2.8527,-2.9067,-2.9369,-2.9463,-2.9306,-2.9792,-3.0038,-3.0038,-3.0357,-3.0477,-3.0387,-3.0296,-3.0266,-3.0296,-3.0158,-3.0158,-3.0249,-3.0142,-3.008,-3.008,-3.008,-3.008,-3.0005,-3.0005,-2.9988,-2.9958,-2.9958,-2.9958,-2.9958,-3.571,-3.571,-3.571,-3.571,-3.571,-3.571,-3.571,-3.5602,-3.5562,-3.5669,-3.548,-3.5264,-3.5197,-3.466,-3.4032,-3.3304,-3.2586,-3.1955,-3.1336,-3.1198,-3.1099,-3.0986,-3.0986,-3.0986,-3.0986,-3.0986,-3.0986,-3.0986,-3.0986,-3.0986,-3.0986,-3.0986,-3.0986,-3.0986,-3.0986,-3.0986,-3.0986,-3.0986,-3.0986,-3.0986,-3.0986,-3.0986,-3.0986,-3.0986,-3.0986,-3.0986,-3.0986,-3.0986,-3.0986,-3.0986,-3.0986,-3.0986,-3.0986,-3.0986,-3.0986,-3.0986,-3.0738,-3.0346,-2.9771,-2.9353,-2.8882,-2.8072,-2.7659,-2.749,-2.749,-2.749,-2.749,-2.749,-2.749,-2.749,-2.749,-2.749,-2.749,-2.749,-2.749,-2.749,-2.749,-2.749,-2.749,-2.749,-2.749,-2.749,-2.749,-2.749,-2.749,-2.749,-2.8006,-2.843,-2.8766,-2.918,-2.9369,-2.9369,-2.9853,-3.0129,-3.0129,-3.0447,-3.0538,-3.0417,-3.0417,-3.0417,-3.0417,-3.0341,-3.0341,-3.0417,-3.0341,-3.028,-3.028,-3.028,-3.0249,-3.0189,-3.0189,-3.0142,-3.008,-3.008,-3.008,-3.008,-3.571,-3.571,-3.571,-3.571,-3.571,-3.571,-3.571,-3.571,-3.571,-3.571,-3.5669,-3.5385,-3.4856,-3.455,-3.405,-3.3159,-3.2374,-3.173,-3.1384,-3.131,-3.1235,-3.1024,-3.1024,-3.0986,-3.0986,-3.0986,-3.0986,-3.0986,-3.0986,-3.0986,-3.0986,-3.0986,-3.0986,-3.0986,-3.0986,-3.0986,-3.0986,-3.0986,-3.0986,-3.0986,-3.0986,-3.0986,-3.0986,-3.0986,-3.0986,-3.0986,-3.0986,-3.0986,-3.0986,-3.0986,-3.0986,-3.0986,-3.0986,-3.0986,-3.0986,-3.0986,-3.0986,-3.0869,-3.0244,-3.01,-2.9826,-2.8739,-2.8033,-2.7555,-2.7503,-2.749,-2.749,-2.749,-2.749,-2.749,-2.749,-2.749,-2.749,-2.749,-2.749,-2.749,-2.749,-2.749,-2.749,-2.749,-2.749,-2.749,-2.749,-2.749,-2.749,-2.749,-2.8006,-2.8287,-2.8287,-2.9202,-2.9747,-2.9747,-3.0251,-3.0538,-3.0538,-3.0568,-3.0598,-3.0598,-3.0598,-3.0598,-3.0598,-3.0598,-3.0598,-3.0598,-3.0598,-3.0598,-3.0598,-3.0598,-3.0477,-3.0312,-3.0312,-3.0249,-3.0142,-3.0142,-3.0142,-3.0142,-3.571,-3.571,-3.571,-3.571,-3.571,-3.571,-3.571,-3.571,-3.571,-3.571,-3.5276,-3.4938,-3.4802,-3.3962,-3.3311,-3.3129,-3.2374,-3.1853,-3.178,-3.1458,-3.1272,-3.1235,-3.1099,-3.0986,-3.0986,-3.0986,-3.0986,-3.0986,-3.0986,-3.0986,-3.0986,-3.0986,-3.0986,-3.0986,-3.0986,-3.0986,-3.0986,-3.0986,-3.0986,-3.0986,-3.0986,-3.0986,-3.0986,-3.0986,-3.0986,-3.0986,-3.0986,-3.0986,-3.0986,-3.0986,-3.0986,-3.0986,-3.0986,-3.0986,-3.0986,-3.0986,-3.0986,-3.0869,-3.0244,-3.01,-2.9931,-2.9261,-2.8634,-2.8072,-2.7594,-2.749,-2.749,-2.749,-2.749,-2.749,-2.749,-2.749,-2.749,-2.749,-2.749,-2.749,-2.749,-2.749,-2.749,-2.749,-2.749,-2.749,-2.749,-2.749,-2.749,-2.749,-2.8006,-2.8287,-2.8287,-2.8912,-2.9243,-2.9243,-2.973,-2.9962,-2.9962,-3.0387,-3.0598,-3.0598,-3.0598,-3.0598,-3.0598,-3.0598,-3.0598,-3.0598,-3.0598,-3.0598,-3.0598,-3.0598,-3.0568,-3.0538,-3.0538,-3.0507,-3.0492,-3.0492,-3.0492,-3.0492,-3.571,-3.571,-3.571,-3.571,-3.571,-3.571,-3.571,-3.571,-3.571,-3.571,-3.5154,-3.468,-3.4395,-3.3607,-3.2979,-3.2707,-3.2285,-3.2,-3.189,-3.1693,-3.1495,-3.131,-3.1198,-3.1099,-3.0986,-3.0986,-3.0986,-3.0986,-3.0986,-3.0986,-3.0986,-3.0986,-3.0986,-3.0986,-3.0986,-3.0986,-3.0986,-3.0986,-3.0986,-3.0986,-3.0986,-3.0986,-3.0986,-3.0986,-3.0986,-3.0986,-3.0986,-3.0986,-3.0986,-3.0986,-3.0986,-3.0986,-3.0986,-3.0986,-3.0986,-3.0986,-3.0986,-3.0921,-3.062,-3.0542,-3.0398,-2.9836,-2.9444,-2.8987,-2.8137,-2.7699,-2.749,-2.749,-2.749,-2.749,-2.749,-2.749,-2.749,-2.749,-2.749,-2.749,-2.749,-2.749,-2.749,-2.749,-2.749,-2.749,-2.749,-2.749,-2.749,-2.749,-2.8006,-2.8287,-2.8287,-2.904,-2.9418,-2.9418,-2.9915,-3.019,-3.019,-3.0447,-3.0598,-3.0598,-3.0598,-3.0598,-3.0598,-3.0598,-3.0598,-3.0598,-3.0598,-3.0598,-3.0598,-3.0598,-3.0598,-3.0598,-3.0598,-3.0598,-3.0598,-3.0598,-3.0598,-3.0554,-3.571,-3.571,-3.571,-3.571,-3.571,-3.571,-3.571,-3.571,-3.571,-3.571,-3.5073,-3.4463,-3.3962,-3.3322,-3.2748,-3.2259,-3.2218,-3.2146,-3.1963,-3.1927,-3.173,-3.1421,-3.1347,-3.1272,-3.1099,-3.1061,-3.1024,-3.0986,-3.0986,-3.0986,-3.0986,-3.0986,-3.0986,-3.0986,-3.0986,-3.0986,-3.0986,-3.0986,-3.0986,-3.0986,-3.0986,-3.0986,-3.0986,-3.0986,-3.0986,-3.0986,-3.0986,-3.0986,-3.0986,-3.0986,-3.0986,-3.0986,-3.0986,-3.0986,-3.0986,-3.0986,-3.0986,-3.0986,-3.0986,-3.0986,-3.0869,-3.0361,-3.0179,-2.9839,-2.8908,-2.8164,-2.7633,-2.7633,-2.7555,-2.749,-2.749,-2.749,-2.749,-2.749,-2.749,-2.749,-2.749,-2.749,-2.749,-2.749,-2.749,-2.749,-2.749,-2.749,-2.749,-2.749,-2.8006,-2.8352,-2.8417,-2.931,-2.9839,-2.9931,-3.0387,-3.0598,-3.0598,-3.0598,-3.0598,-3.0598,-3.0598,-3.0598,-3.0598,-3.0598,-3.0598,-3.0598,-3.0598,-3.0598,-3.0598,-3.0598,-3.0598,-3.0598,-3.0598,-3.0598,-3.0598,-3.0481,-3.0438,-3.0321,-3.571,-3.571,-3.571,-3.571,-3.571,-3.571,-3.571,-3.571,-3.571,-3.571,-3.4707,-3.4002,-3.3921,-3.2969,-3.23,-3.2218,-3.2218,-3.2182,-3.2146,-3.2,-3.189,-3.1817,-3.1633,-3.1572,-3.1535,-3.136,-3.1161,-3.0986,-3.0986,-3.0986,-3.0986,-3.0986,-3.0986,-3.0986,-3.0986,-3.0986,-3.0986,-3.0986,-3.0986,-3.0986,-3.0986,-3.0986,-3.0986,-3.0986,-3.0986,-3.0986,-3.0986,-3.0986,-3.0986,-3.0986,-3.0986,-3.0986,-3.0986,-3.0986,-3.0986,-3.0986,-3.0986,-3.0986,-3.0986,-3.0986,-3.096,-3.0895,-3.0503,-3.0061,-2.9905,-2.9052,-2.8268,-2.8268,-2.7863,-2.749,-2.749,-2.749,-2.749,-2.749,-2.749,-2.749,-2.749,-2.749,-2.749,-2.749,-2.749,-2.749,-2.749,-2.749,-2.749,-2.749,-2.8006,-2.8495,-2.8972,-2.9512,-3.0007,-3.0477,-3.0568,-3.0598,-3.0598,-3.0598,-3.0598,-3.0598,-3.0598,-3.0598,-3.0598,-3.0598,-3.0598,-3.0598,-3.0598,-3.0598,-3.0598,-3.0598,-3.0598,-3.0598,-3.0598,-3.0598,-3.0539,-2.9958,-2.9726,-2.9668,-3.571,-3.571,-3.571,-3.571,-3.571,-3.571,-3.571,-3.571,-3.5601,-3.5222,-3.4436,-3.3786,-3.3485,-3.2684,-3.2218,-3.2218,-3.2218,-3.2218,-3.2218,-3.2109,-3.2036,-3.189,-3.1817,-3.172,-3.1609,-3.1522,-3.1397,-3.1336,-3.1099,-3.0986,-3.0986,-3.0986,-3.0986,-3.0986,-3.0986,-3.0986,-3.0986,-3.0986,-3.0986,-3.0986,-3.0986,-3.0986,-3.0986,-3.0986,-3.0986,-3.0986,-3.0986,-3.0986,-3.0986,-3.0986,-3.0986,-3.0986,-3.0986,-3.0986,-3.0986,-3.0986,-3.0986,-3.0986,-3.0986,-3.0986,-3.0986,-3.0986,-3.079,-3.0607,-3.0607,-2.9954,-2.9261,-2.8948,-2.8412,-2.8007,-2.8007,-2.7745,-2.749,-2.749,-2.749,-2.749,-2.749,-2.749,-2.749,-2.749,-2.749,-2.749,-2.749,-2.749,-2.749,-2.749,-2.8268,-2.872,-2.8656,-2.9668,-3.0221,-3.016,-3.0447,-3.0598,-3.0598,-3.0598,-3.0598,-3.0598,-3.0598,-3.0598,-3.0598,-3.0598,-3.0598,-3.0598,-3.0598,-3.0598,-3.0598,-3.0598,-3.0598,-3.0598,-3.0598,-3.0364,-3.0016,-2.9697,-2.9406,-2.9015]},{"header":{"parameterUnit":"m.s-1","parameterCategory":1,"la1":30.6,"la2":28.766,"lo1":-90.7593,"lo2":-88.6598,"dy":0.0162,"dx":0.0183,"nx":116,"ny":114,"refTime":"2023-06-06T12:00:00:Z","depth":0,"parameterNumber":3,"parameterNumberName":"V-component_of_WINDS"},"data":[0.0,0.0,0.0,0.0,0.0,0.0,0.0,0.0,0.0,0.0,0.0,0.0,0.0,0.0,0.0,0.0,0.0,0.0,0.0,0.0,0.0,0.0,0.0,0.0,0.0,0.0,0.0,0.0,0.0,0.0,0.0,0.0,0.0,0.0,0.0,0.0,0.0,0.0,0.0,0.0,0.0,0.0,0.0,0.0,0.0,0.0,0.0,0.0,0.0,0.0,0.0,0.0,0.0,0.0,0.0,0.0,0.0,0.0,0.0,0.0,0.0,0.0,0.0,0.0,0.0,0.0,0.0,0.0,0.0,0.0,0.0,0.0,0.0,0.0,0.0,0.0,0.0,0.0,0.0,0.0,0.0,0.0,0.0,0.0,0.0,0.0,0.0,0.0,0.0,0.0,0.0,0.0,0.0,0.0,0.0,0.0,0.0,0.0,0.0,0.0,0.0,0.0,0.0,0.0,0.0,0.0,0.0,0.0,0.0,0.0,0.0,0.0,0.0,0.0,0.0,0.0,0.0,0.0,0.0,0.0,0.0,0.0,0.0,0.0,0.0,0.0,0.0,0.0,0.0,0.0,0.0,0.0,0.0,0.0,0.0,0.0,0.0,0.0,0.0,0.0,0.0,0.0,0.0,0.0,0.0,0.0,0.0,0.0,0.0,0.0,0.0,0.0,0.0,0.0,0.0,0.0,0.0,0.0,0.0,0.0,0.0,0.0,0.0,0.0,0.0,0.0,0.0,0.0,0.0,0.0,0.0,0.0,0.0,0.0,0.0,0.0,0.0,0.0,0.0,0.0,0.0,0.0,0.0,0.0,0.0,0.0,0.0,0.0,0.0,0.0,0.0,0.0,0.0,0.0,0.0,0.0,0.0,0.0,0.0,0.0,0.0,0.0,0.0,0.0,0.0,0.0,0.0,0.0,0.0,0.0,0.0,0.0,0.0,0.0,0.0,0.0,0.0,0.0,0.0,0.0,0.0,0.0,0.0,0.0,0.0,0.0,0.0,0.0,0.0,0.0,0.0,0.0,0.0,0.0,0.0,0.0,0.0,0.0,0.0,0.0,0.0,0.0,0.0,0.0,0.0,0.0,0.0,0.0,0.0,0.0,0.0,0.0,0.0,0.0,0.0,0.0,0.0,0.0,0.0,0.0,0.0,0.0,0.0,0.0,0.0,0.0,0.0,0.0,0.0,0.0,0.0,0.0,0.0,0.0,0.0,0.0,0.0,0.0,0.0,0.0,0.0,0.0,0.0,0.0,0.0,0.0,0.0,0.0,0.0,0.0,0.0,0.0,0.0,0.0,0.0,0.0,0.0,0.0,0.0,0.0,0.0,0.0,0.0,0.0,0.0,0.0,0.0,0.0,0.0,0.0,0.0,0.0,0.0,0.0,0.0,0.0,0.0,0.0,0.0,0.0,0.0,0.0,0.0,0.0,0.0,0.0,0.0,0.0,0.0,0.0,0.0,0.0,0.0,0.0,0.0,0.0,0.0,0.0,0.0,0.0,0.0,0.0,0.0,0.0,0.0,0.0,0.0,0.0,0.0,0.0,0.0,0.0,0.0,0.0,0.0,0.0,0.0,0.0,0.0,0.0,0.0,0.0,0.0,0.0,0.0,0.0,0.0,0.0,0.0,0.0,0.0,0.0,0.0,0.0,0.0,0.0,0.0,0.0,0.0,0.0,0.0,0.0,0.0,0.0,0.0,0.0,0.0,0.0,0.0,0.0,0.0,0.0,0.0,0.0,0.0,0.0,0.0,0.0,0.0,0.0,0.0,0.0,0.0,0.0,0.0,0.0,0.0,0.0,0.0,0.0,0.0,0.0,0.0,0.0,0.0,0.0,0.0,0.0,0.0,0.0,0.0,0.0,0.0,0.0,0.0,0.0,0.0,0.0,0.0,0.0,0.0,0.0,0.0,0.0,0.0,0.0,0.0,0.0,0.0,0.0,0.0,0.0,0.0,0.0,0.0,0.0,0.0,0.0,0.0,0.0,0.0,0.0,0.0,0.0,0.0,0.0,0.0,0.0,0.0,0.0,0.0,0.0,0.0,0.0,0.0,0.0,0.0,0.0,0.0,0.0,0.0,0.0,0.0,0.0,0.0,0.0,0.0,0.0,0.0,0.0,0.0,0.0,0.0,0.0,0.0,0.0,0.0,0.0,0.0,0.0,0.0,0.0,0.0,0.0,0.0,0.0,0.0,0.0,0.0,0.0,0.0,0.0,0.0,0.0,0.0,0.0,0.0,0.0,0.0,0.0,0.0,0.0,0.0,0.0,0.0,0.0,0.0,0.0,0.0,0.0,0.0,0.0,0.0,0.0,0.0,0.0,0.0,0.0,0.0,0.0,0.0,0.0,0.0,0.0,0.0,0.0,0.0,0.0,0.0,0.0,0.0,0.0,0.0,0.0,0.0,0.0,0.0,0.0,0.0,0.0,0.0,0.0,0.0,0.0,0.0,0.0,0.0,0.0,0.0,0.0,0.0,0.0,0.0,0.0,0.0,0.0,0.0,0.0,0.0,0.0,0.0,0.0,0.0,0.0,0.0,0.0,0.0,0.0,0.0,0.0,0.0,0.0,0.0,0.0,0.0,0.0,0.0,0.0,0.0,0.0,0.0,0.0,0.0,0.0,0.0,0.0,0.0,0.0,0.0,0.0,0.0,0.0,0.0,0.0,0.0,0.0,0.0,0.0,0.0,0.0,0.0,0.0,0.0,0.0,0.0,0.0,0.0,0.0,0.0,0.0,0.0,0.0,0.0,0.0,0.0,0.0,0.0,0.0,0.0,0.0,0.0,0.0,0.0,0.0,0.0,0.0,0.0,0.0,0.0,0.0,0.0,0.0,0.0,0.0,0.0,0.0,0.0,0.0,0.0,0.0,0.0,0.0,0.0,0.0,0.0,0.0,0.0,0.0,0.0,0.0,0.0,0.0,0.0,0.0,0.0,0.0,0.0,0.0,0.0,0.0,0.0,0.0,0.0,0.0,0.0,0.0,0.0,0.0,0.0,0.0,0.0,0.0,0.0,0.0,0.0,0.0,0.0,0.0,0.0,0.0,0.0,0.0,0.0,0.0,0.0,0.0,0.0,0.0,0.0,0.0,0.0,0.0,0.0,0.0,0.0,0.0,0.0,0.0,0.0,0.0,0.0,0.0,0.0,0.0,0.0,0.0,0.0,0.0,0.0,0.0,0.0,0.0,0.0,0.0,0.0,0.0,0.0,0.0,0.0,0.0,0.0,0.0,0.0,0.0,0.0,0.0,0.0,0.0,0.0,0.0,0.0,0.0,0.0,0.0,0.0,0.0,0.0,0.0,0.0,0.0,0.0,0.0,0.0,0.0,0.0,0.0,0.0,0.0,0.0,0.0,0.0,0.0,0.0,0.0,0.0,0.0,0.0,0.0,0.0,0.0,0.0,0.0,0.0,0.0,0.0,0.0,0.0,0.0,0.0,0.0,0.0,0.0,0.0,0.0,0.0,0.0,0.0,0.0,0.0,0.0,0.0,0.0,0.0,0.0,0.0,0.0,0.0,0.0,0.0,0.0,0.0,0.0,0.0,0.0,0.0,0.0,0.0,0.0,0.0,0.0,0.0,0.0,0.0,0.0,0.0,0.0,0.0,0.0,0.0,0.0,0.0,0.0,0.0,0.0,0.0,0.0,0.0,0.0,0.0,0.0,0.0,0.0,0.0,0.0,0.0,0.0,0.0,0.0,0.0,0.0,0.0,0.0,0.0,0.0,0.0,0.0,0.0,0.0,0.0,0.0,0.0,0.0,0.0,0.0,0.0,0.0,0.0,0.0,0.0,0.0,0.0,0.0,0.0,0.0,0.0,0.0,0.0,0.0,0.0,0.0,0.0,0.0,0.0,0.0,0.0,0.0,0.0,0.0,0.0,0.0,0.0,0.0,0.0,0.0,0.0,0.0,0.0,0.0,0.0,0.0,0.0,0.0,0.0,0.0,0.0,0.0,0.0,0.0,0.0,0.0,0.0,0.0,0.0,0.0,0.0,0.0,0.0,0.0,0.0,0.0,0.0,0.0,0.0,0.0,0.0,0.0,0.0,0.0,0.0,0.0,0.0,0.0,0.0,0.0,0.0,0.0,0.0,0.0,0.0,0.0,0.0,0.0,0.0,0.0,0.0,0.0,0.0,0.0,0.0,0.0,0.0,0.0,0.0,0.0,0.0,0.0,0.0,0.0,0.0,0.0,0.0,0.0,0.0,0.0,0.0,0.0,0.0,0.0,0.0,0.0,0.0,0.0,0.0,0.0,0.0,0.0,0.0,0.0,0.0,0.0,0.0,0.0,0.0,0.0,0.0,0.0,0.0,0.0,0.0,0.0,0.0,0.0,0.0,0.0,0.0,0.0,0.0,0.0,0.0,0.0,0.0,0.0,0.0,0.0,0.0,0.0,0.0,0.0,0.0,0.0,0.0,0.0,0.0,0.0,0.0,0.0,0.0,0.0,0.0,0.0,0.0,0.0,0.0,0.0,0.0,0.0,0.0,0.0,0.0,0.0,0.0,0.0,0.0,0.0,0.0,0.0,0.0,0.0,0.0,0.0,0.0,0.0,0.0,0.0,0.0,0.0,0.0,0.0,0.0,0.0,0.0,0.0,0.0,0.0,0.0,0.0,0.0,0.0,0.0,0.0,0.0,0.0,0.0,0.0,0.0,0.0,0.0,0.0,0.0,0.0,0.0,0.0,0.0,0.0,0.0,0.0,0.0,0.0,0.0,0.0,0.0,0.0,0.0,0.0,0.0,0.0,0.0,0.0,0.0,0.0,0.0,0.0,0.0,0.0,0.0,0.0,0.0,0.0,0.0,0.0,0.0,0.0,0.0,0.0,0.0,0.0,0.0,0.0,0.0,0.0,0.0,0.0,0.0,0.0,0.0,0.0,0.0,0.0,0.0,0.0,0.0,0.0,0.0,0.0,0.0,0.0,0.0,0.0,0.0,0.0,0.0,0.0,0.0,0.0,0.0,0.0,0.0,0.0,0.0,0.0,0.0,0.0,0.0,0.0,0.0,0.0,0.0,0.0,0.0,0.0,0.0,0.0,0.0,0.0,0.0,0.0,0.0,0.0,0.0,0.0,0.0,0.0,0.0,0.0,0.0,0.0,0.0,0.0,0.0,0.0,0.0,0.0,0.0,0.0,0.0,0.0,0.0,0.0,0.0,0.0,0.0,0.0,0.0,0.0,0.0,0.0,0.0,0.0,0.0,0.0,0.0,0.0,0.0,0.0,0.0,0.0,0.0,0.0,0.0,0.0,0.0,0.0,0.0,0.0,0.0,0.0,0.0,0.0,0.0,0.0,0.0,0.0,0.0,0.0,0.0,0.0,0.0,0.0,0.0,0.0,0.0,0.0,0.0,0.0,0.0,0.0,0.0,0.0,0.0,0.0,0.0,0.0,0.0,0.0,0.0,0.0,0.0,0.0,0.0,0.0,0.0,0.0,0.0,0.0,0.0,0.0,0.0,0.0,0.0,0.0,0.0,0.0,0.0,0.0,0.0,0.0,0.0,0.0,0.0,0.0,0.0,0.0,0.0,0.0,0.0,0.0,0.0,0.0,0.0,0.0,0.0,0.0,0.0,0.0,0.0,0.0,0.0,0.0,0.0,0.0,0.0,0.0,0.0,0.0,0.0,0.0,0.0,0.0,0.0,0.0,0.0,0.0,0.0,0.0,0.0,0.0,0.0,0.0,0.0,0.0,0.0,0.0,0.0,0.0,0.0,0.0,0.0,0.0,0.0,0.0,0.0,0.0,0.0,0.0,0.0,0.0,0.0,0.0,0.0,0.0,0.0,0.0,0.0,0.0,0.0,0.0,0.0,0.0,0.0,0.0,0.0,0.0,0.0,0.0,0.0,0.0,0.0,0.0,0.0,0.0,0.0,0.0,0.0,0.0,0.0,0.0,0.0,0.0,0.0,0.0,0.0,0.0,0.0,0.0,0.0,0.0,0.0,0.0,0.0,0.0,0.0,0.0,0.0,0.0,0.0,0.0,0.0,0.0,0.0,0.0,0.0,0.0,0.0,0.0,0.0,0.0,0.0,0.0,0.0,0.0,0.0,0.0,0.0,0.0,0.0,0.0,0.0,0.0,0.0,0.0,-2.5934,0.0,0.0,0.0,0.0,0.0,0.0,0.0,0.0,0.0,0.0,0.0,0.0,0.0,0.0,0.0,0.0,0.0,0.0,0.0,0.0,0.0,0.0,0.0,0.0,0.0,0.0,0.0,0.0,0.0,0.0,0.0,0.0,0.0,0.0,0.0,0.0,0.0,0.0,0.0,-2.5895,-2.6063,-2.6396,-2.6396,-2.6396,-2.6396,0.0,0.0,0.0,0.0,0.0,0.0,0.0,0.0,0.0,0.0,0.0,0.0,0.0,0.0,0.0,0.0,0.0,0.0,0.0,0.0,0.0,0.0,0.0,0.0,0.0,0.0,0.0,0.0,0.0,0.0,0.0,0.0,0.0,0.0,0.0,0.0,0.0,0.0,0.0,0.0,0.0,0.0,0.0,0.0,0.0,0.0,0.0,0.0,0.0,0.0,0.0,0.0,0.0,0.0,0.0,0.0,0.0,0.0,0.0,0.0,0.0,0.0,0.0,0.0,0.0,0.0,0.0,0.0,0.0,0.0,0.0,-2.5716,0.0,0.0,0.0,0.0,0.0,0.0,0.0,0.0,0.0,0.0,0.0,0.0,0.0,0.0,0.0,0.0,0.0,0.0,0.0,0.0,0.0,0.0,0.0,0.0,-2.1526,-2.2078,-2.2494,0.0,0.0,0.0,0.0,0.0,0.0,0.0,0.0,-2.5895,-2.5895,-2.5895,-2.6032,-2.6354,-2.6891,-2.7003,-2.7126,-2.7208,-2.7126,0.0,0.0,0.0,0.0,0.0,0.0,0.0,0.0,0.0,0.0,0.0,0.0,0.0,0.0,0.0,0.0,0.0,0.0,0.0,0.0,0.0,0.0,0.0,0.0,0.0,0.0,0.0,0.0,0.0,0.0,0.0,0.0,0.0,0.0,0.0,0.0,0.0,0.0,0.0,0.0,0.0,0.0,0.0,0.0,0.0,0.0,0.0,0.0,0.0,0.0,0.0,0.0,0.0,0.0,0.0,0.0,0.0,0.0,0.0,0.0,0.0,0.0,0.0,-2.7858,-2.7688,-2.7465,-2.792,-2.7874,-2.7438,-2.66,-2.6129,-2.598,-2.598,0.0,0.0,0.0,0.0,0.0,0.0,0.0,0.0,0.0,0.0,0.0,0.0,0.0,0.0,0.0,0.0,0.0,0.0,0.0,0.0,0.0,-2.1531,-2.2138,-2.2969,-2.3381,-2.4012,0.0,0.0,0.0,0.0,0.0,0.0,-2.5895,-2.5895,-2.5895,-2.5895,-2.6479,-2.6809,-2.6891,-2.7429,-2.7983,-2.8514,-2.7943,-2.8063,-2.8673,0.0,0.0,0.0,0.0,0.0,0.0,0.0,0.0,0.0,0.0,0.0,0.0,0.0,0.0,0.0,0.0,0.0,0.0,0.0,0.0,0.0,0.0,0.0,0.0,0.0,0.0,0.0,0.0,0.0,0.0,0.0,0.0,0.0,0.0,0.0,0.0,0.0,0.0,0.0,0.0,0.0,-2.6844,-2.7829,0.0,0.0,0.0,0.0,0.0,0.0,0.0,0.0,0.0,0.0,0.0,0.0,0.0,-3.1091,-3.1714,-3.1714,-3.1297,-3.039,-3.039,-2.9725,-2.8505,-2.8574,-2.8574,-2.8494,-2.8367,0.0,-2.6984,-2.6984,0.0,0.0,0.0,0.0,0.0,0.0,0.0,0.0,0.0,0.0,0.0,0.0,0.0,0.0,0.0,0.0,0.0,0.0,0.0,0.0,0.0,-2.1988,-2.2493,-2.3155,-2.3587,-2.4186,-2.5162,0.0,0.0,0.0,0.0,-2.5895,-2.5895,-2.5895,-2.5895,-2.5895,-2.6188,-2.6704,-2.7429,-2.7689,-2.8343,-2.9339,-2.9052,-2.9091,-2.9378,-2.9378,0.0,0.0,0.0,0.0,0.0,0.0,0.0,0.0,0.0,0.0,0.0,0.0,0.0,0.0,0.0,0.0,0.0,0.0,0.0,0.0,0.0,0.0,0.0,0.0,0.0,0.0,0.0,0.0,0.0,0.0,0.0,0.0,0.0,0.0,0.0,0.0,0.0,0.0,0.0,-2.7674,-2.8111,-2.8976,-2.8621,-2.8716,0.0,0.0,0.0,0.0,0.0,0.0,0.0,0.0,0.0,-3.3754,-3.3523,-3.3361,-3.3454,-3.3454,-3.298,-3.2074,-3.2426,-3.2265,-3.161,-3.1407,-3.0962,-3.0363,-2.9804,-2.8987,-2.8057,-2.8057,-2.8057,-2.8035,0.0,0.0,0.0,0.0,-2.719,-2.719,0.0,0.0,0.0,0.0,0.0,0.0,0.0,0.0,0.0,0.0,0.0,0.0,-2.1771,-2.2322,-2.2833,-2.3223,-2.3812,-2.4504,-2.5348,-2.538,0.0,0.0,-2.5895,-2.5895,-2.5895,-2.5895,-2.5895,-2.5895,-2.6063,-2.6704,-2.7799,-2.7971,-2.8673,-2.9792,-2.9792,-2.9792,-2.9792,-2.9792,-2.9792,-2.9792,0.0,0.0,0.0,0.0,0.0,0.0,0.0,0.0,0.0,0.0,0.0,0.0,0.0,0.0,0.0,0.0,0.0,0.0,0.0,0.0,0.0,0.0,0.0,0.0,0.0,0.0,0.0,0.0,0.0,0.0,0.0,0.0,0.0,0.0,0.0,0.0,0.0,-2.9314,-2.9566,-3.0131,-3.0206,-3.0419,0.0,0.0,0.0,0.0,0.0,0.0,-3.438,-3.4164,-3.4591,-3.5886,-3.5628,-3.5407,-3.522,-3.5178,-3.4731,-3.3797,-3.4247,-3.4375,-3.4123,-3.3558,-3.2858,-3.2066,-3.1052,-3.0181,-2.9447,-2.8919,-2.87,-2.8666,-2.831,-2.8172,-2.8126,-2.7748,-2.7557,-2.7557,0.0,0.0,0.0,0.0,0.0,0.0,0.0,0.0,0.0,0.0,0.0,-2.1771,-2.1455,-2.2461,-2.3233,-2.3374,-2.4467,-2.5348,-2.5812,-2.5853,-2.5895,-2.5895,-2.5895,-2.5895,-2.5895,-2.5895,-2.5895,-2.5895,-2.652,-2.7196,-2.7799,-2.8462,-2.9131,-2.9792,-2.9792,-2.9792,-2.9792,-2.9792,-2.9792,-2.9792,-2.9792,0.0,0.0,0.0,0.0,0.0,0.0,0.0,0.0,0.0,0.0,0.0,0.0,0.0,0.0,0.0,0.0,0.0,0.0,0.0,0.0,0.0,0.0,0.0,0.0,0.0,0.0,0.0,0.0,0.0,0.0,0.0,0.0,0.0,0.0,0.0,0.0,0.0,0.0,-3.1248,-3.1311,0.0,0.0,0.0,0.0,-3.3555,-3.3636,-3.4069,-3.4991,-3.5032,-3.5491,-3.6537,-3.6551,-3.6794,-3.7348,-3.7348,-3.6882,-3.5922,-3.5948,-3.5579,-3.4715,-3.3729,-3.3256,-3.3162,-3.2136,-3.171,-3.1503,-2.9504,-2.87,-2.87,-2.8666,-2.8666,-2.8666,-2.8632,-2.862,-2.862,0.0,0.0,0.0,0.0,0.0,0.0,0.0,0.0,0.0,-2.1921,-2.2432,-2.2615,-2.2491,-2.3169,-2.3358,-2.2799,-2.3983,-2.4669,-2.4541,-2.5105,-2.5591,-2.5906,-2.5895,-2.5895,-2.5895,-2.5895,-2.5895,-2.5895,-2.6561,-2.7196,-2.7799,-2.8502,-2.917,-2.9792,-2.9792,-2.9792,-2.9792,-2.9792,-2.9792,-2.9792,-2.9792,-2.974,0.0,0.0,0.0,0.0,0.0,0.0,0.0,0.0,0.0,0.0,0.0,0.0,0.0,0.0,0.0,0.0,0.0,0.0,0.0,0.0,0.0,0.0,0.0,0.0,0.0,0.0,0.0,0.0,0.0,0.0,0.0,0.0,0.0,0.0,0.0,0.0,0.0,-3.1901,-3.2252,0.0,-3.2754,-3.3009,-3.3326,-3.3658,-3.4611,-3.5339,-3.5673,-3.6298,-3.6818,-3.7147,-3.7202,-3.7268,-3.7485,-3.7485,-3.7344,-3.6989,-3.7407,-3.7407,-3.7069,-3.5818,-3.5028,-3.4613,-3.2959,-3.2101,-3.1756,-3.0973,-3.0675,-3.0652,-2.994,-2.9676,-2.9596,-2.8941,-2.87,-2.87,0.0,0.0,0.0,0.0,0.0,0.0,0.0,0.0,-2.1675,-2.2255,-2.2785,-2.296,-2.2643,-2.2994,-2.3169,-2.2984,-2.3671,-2.4231,-2.4498,-2.5105,-2.5549,-2.5906,-2.5895,-2.5895,-2.5895,-2.5895,-2.6021,-2.6229,-2.6685,-2.7319,-2.8143,-2.8593,-2.917,-2.9792,-2.9792,-2.9792,-2.9792,-2.9792,-2.9792,-2.9792,-2.9702,-2.9702,-2.9753,0.0,0.0,0.0,0.0,0.0,0.0,0.0,0.0,0.0,0.0,0.0,0.0,0.0,0.0,0.0,0.0,0.0,0.0,0.0,0.0,0.0,0.0,0.0,0.0,0.0,0.0,0.0,0.0,0.0,0.0,0.0,0.0,0.0,0.0,0.0,-3.229,-3.2478,-3.2842,-3.3156,-3.3332,-3.3591,-3.3926,-3.4246,-3.521,-3.5947,-3.6244,-3.6916,-3.7439,-3.7783,-3.7783,-3.7878,-3.8095,-3.8095,-3.8095,-3.8095,-3.8532,-3.8708,-3.8634,-3.7037,-3.6116,-3.5683,-3.3633,-3.2569,-3.2331,-3.2331,-3.2331,-3.2179,-3.1146,-3.0744,-3.0663,-2.9975,-2.9734,-2.9734,0.0,0.0,0.0,0.0,0.0,0.0,0.0,-2.1885,-2.1968,-2.208,-2.2687,-2.274,-2.1828,-2.1961,-2.2668,-2.3963,-2.3651,-2.4092,-2.577,-2.5895,-2.5895,-2.5895,-2.5895,-2.5895,-2.5895,-2.5895,-2.6229,-2.685,-2.6891,-2.7574,-2.8776,-2.8828,-2.9207,-2.9842,-2.9829,-2.9817,-2.9817,-2.9804,-2.9792,-2.9753,-2.9509,-2.956,-2.9753,0.0,0.0,0.0,0.0,0.0,0.0,0.0,0.0,0.0,0.0,0.0,0.0,0.0,0.0,0.0,0.0,0.0,0.0,0.0,0.0,0.0,0.0,0.0,0.0,0.0,0.0,0.0,0.0,0.0,0.0,0.0,0.0,0.0,-3.2315,-3.224,-3.2453,-3.3031,-3.3106,-3.3319,-3.3872,-3.3922,-3.4325,-3.5302,-3.5424,-3.588,-3.6784,-3.6867,-3.7377,-3.8434,-3.8461,-3.8732,-3.9346,-3.9359,-3.9359,-3.9359,-3.9359,-3.9359,-3.927,-3.7315,-3.6367,-3.6225,-3.4272,-3.3377,-3.3304,-3.3304,-3.3292,-3.3178,-3.2227,-3.1836,-3.1836,-3.1743,-3.1743,-3.1813,0.0,0.0,0.0,0.0,0.0,0.0,0.0,-2.1885,-2.1968,-2.208,-2.2687,-2.2828,-2.205,-2.2359,-2.2799,-2.3313,-2.3704,-2.4178,-2.484,-2.5506,-2.5895,-2.5895,-2.5895,-2.5895,-2.5895,-2.5895,-2.599,-2.6188,-2.7103,-2.7981,-2.8767,-2.9681,-3.0423,-3.0934,-3.0557,-3.0394,-3.0357,-2.9967,-2.9702,-2.9509,-2.9419,-2.9419,-2.947,0.0,0.0,0.0,0.0,0.0,0.0,0.0,0.0,0.0,0.0,0.0,0.0,0.0,0.0,0.0,0.0,0.0,0.0,0.0,0.0,0.0,0.0,0.0,0.0,0.0,0.0,0.0,0.0,0.0,0.0,0.0,-3.2968,-3.3018,-3.2867,-3.2842,-3.3043,-3.3608,-3.3671,-3.3884,-3.4449,-3.45,-3.4607,-3.4893,-3.5958,-3.6922,-3.7558,-3.8346,-3.9256,-4.0318,-3.9997,-4.0018,-4.0621,-4.0621,-4.0621,-4.0621,-4.0621,-4.0621,-4.0562,-3.9286,-3.8249,-3.7365,-3.6118,-3.4883,-3.3809,-3.3809,-3.3602,-3.3212,-3.2546,-3.2294,-3.2248,-3.1892,-3.1766,-3.1813,0.0,0.0,0.0,0.0,0.0,0.0,0.0,-2.1451,-2.141,-2.1185,-2.2059,-2.2511,-2.1971,-2.173,-2.2031,-2.3129,-2.3337,-2.3467,-2.3747,-2.4712,-2.5506,-2.5895,-2.5895,-2.5895,-2.5895,-2.5895,-2.6177,-2.6693,-2.738,-2.8345,-2.9496,-3.0163,-3.0801,-3.1373,-3.1004,-3.0661,-3.0463,-3.0019,-2.9615,-2.9275,-2.9184,-2.9197,-2.9236,-2.891,-2.8791,-2.8803,-2.8657,-2.8578,-2.851,-2.851,0.0,0.0,0.0,0.0,0.0,0.0,0.0,0.0,0.0,0.0,0.0,0.0,0.0,0.0,0.0,0.0,0.0,0.0,0.0,0.0,0.0,0.0,0.0,0.0,-3.3269,-3.342,-3.342,-3.342,-3.3621,-3.4173,-3.4248,-3.4462,-3.4969,-3.5278,-3.5504,-3.573,-3.6843,-3.7718,-3.8251,-3.9064,-3.9907,-4.0737,-4.0441,-4.0535,-4.1063,-4.0877,-4.0877,-4.1123,-4.1123,-4.1123,-4.1077,-4.0057,-3.9254,-3.8515,-3.7044,-3.589,-3.4945,-3.4289,-3.3832,0.0,0.0,0.0,0.0,0.0,-3.2457,-3.2457,0.0,0.0,0.0,0.0,0.0,0.0,0.0,-2.0941,-2.0753,-1.9983,-2.1195,-2.1971,-2.1561,-2.052,-2.0782,-2.2999,-2.2585,-2.241,-2.2814,-2.4006,-2.502,-2.5853,-2.5895,-2.5895,-2.5895,-2.5895,-2.6437,-2.7557,-2.7618,-2.8627,-3.0422,-3.0416,-3.0827,-3.1492,-3.1236,-3.0831,-3.0323,-3.0047,-2.9582,-2.9052,-2.8882,-2.8922,-2.9052,-2.8843,-2.8764,-2.8764,-2.8764,-2.8657,-2.851,-2.851,0.0,0.0,0.0,0.0,0.0,0.0,0.0,0.0,0.0,0.0,0.0,0.0,0.0,0.0,0.0,0.0,0.0,0.0,0.0,0.0,0.0,0.0,0.0,0.0,-3.3633,-3.401,-3.4073,-3.4085,-3.4274,-3.4705,-3.4831,-3.5082,-3.5633,-3.6232,-3.6795,-3.7236,-3.7789,-3.8362,-3.8879,0.0,0.0,0.0,0.0,-4.0594,-4.1126,-4.0736,-4.0736,-4.122,-4.1266,-4.1313,-4.1266,-4.0351,-3.9895,-3.9655,-3.763,-3.6647,-3.636,-3.4799,-3.4108,-3.3947,-3.3465,-3.3281,-3.3281,-3.3281,-3.3281,-3.3231,0.0,0.0,0.0,0.0,0.0,0.0,0.0,-2.1316,-2.1283,-2.0065,-2.1195,-2.165,-2.0385,-2.0031,-2.0475,-2.1908,-2.1355,-2.1782,-2.3694,-2.4978,-2.5728,-2.5895,-2.5895,-2.5895,-2.5895,-2.5895,-2.5986,-2.6206,-2.7496,-2.8599,-2.943,-3.0669,-3.1583,-3.2185,-3.1644,-3.1151,-3.0676,-3.0126,-2.9502,-2.8831,-2.8843,-2.8831,-2.8843,-2.8618,-2.8538,-2.8538,-2.8538,-2.855,-2.851,-2.851,-2.851,-2.851,-2.851,-2.851,0.0,0.0,0.0,0.0,0.0,0.0,0.0,0.0,0.0,0.0,0.0,0.0,0.0,0.0,0.0,0.0,0.0,0.0,0.0,-3.3746,-3.4211,-3.468,-3.5119,-3.5182,-3.5219,-3.532,-3.5746,-3.6295,-3.681,-3.7362,-3.7739,-3.7839,-3.8379,-3.8956,-3.9504,-3.9626,-4.0107,-4.1094,-4.0659,-4.0709,-4.1242,-4.1599,-4.1794,-4.1892,0.0,0.0,-4.2548,-4.2342,-4.1768,-4.0843,-3.9525,-3.8265,-3.6936,-3.5719,-3.4739,-3.3947,-3.3465,-3.3281,-3.3281,-3.3281,-3.3181,-3.2992,0.0,0.0,0.0,0.0,0.0,0.0,0.0,-2.0596,-2.0497,-1.9492,-2.0303,-2.0701,-1.9985,-1.9583,-1.972,-2.0701,-2.0782,-2.1747,-2.3963,-2.4797,-2.5285,-2.5549,-2.577,-2.5812,-2.5549,-2.577,-2.6282,-2.7032,-2.7813,-2.8927,-3.0312,-3.1076,-3.177,-3.2388,-3.192,-3.1302,-3.0563,-3.017,-2.9476,-2.8657,-2.8657,-2.8657,-2.8657,-2.855,-2.851,-2.851,-2.851,-2.851,-2.851,-2.851,-2.851,-2.851,-2.851,-2.851,-2.851,0.0,0.0,0.0,0.0,0.0,0.0,0.0,0.0,0.0,0.0,0.0,0.0,0.0,0.0,-3.3027,-3.3445,0.0,-3.3985,-3.4274,-3.4731,-3.5182,-3.5458,-3.5972,-3.637,-3.637,-3.6621,-3.701,-3.755,-3.8115,-3.8442,-3.8442,-3.8969,-3.9436,-3.969,-3.9943,-4.0351,-4.0883,-4.0643,-4.0744,-4.1272,-4.1571,-4.1819,-4.2128,-4.2631,-4.2887,-4.2887,-4.2887,-4.2582,-4.1954,-4.0313,-3.9137,-3.8221,-3.6075,-3.46,-3.3754,-3.3275,-3.3181,-3.3281,-3.3281,-3.3142,-3.2891,0.0,0.0,0.0,0.0,0.0,0.0,0.0,0.0,-1.9687,-1.8819,-1.9405,-1.9849,-1.9712,-1.9142,-1.905,-1.9621,-2.0557,-2.1889,-2.3641,-2.4231,-2.4712,-2.52,-2.5454,-2.5464,-2.5062,-2.5422,-2.6271,-2.7552,-2.7811,-2.8902,-3.0699,-3.1033,-3.1456,-3.1951,-3.1831,-3.1186,-3.0155,-3.0013,-2.9388,-2.851,-2.851,-2.851,-2.851,-2.851,-2.851,-2.851,-2.851,-2.851,-2.851,-2.851,-2.851,-2.851,-2.851,-2.851,-2.8534,-2.8631,-2.8667,0.0,0.0,0.0,0.0,0.0,0.0,0.0,0.0,-3.2636,-3.2748,-3.2903,-3.3102,-3.3407,-3.396,-3.4148,-3.4361,-3.4768,-3.5307,-3.5696,-3.5809,-3.6621,-3.7262,-3.7487,-3.7513,-3.7688,-3.8128,-3.8693,-3.9082,-3.9082,-3.9446,-3.9697,-3.9697,-4.0096,-4.0351,-4.0351,-4.0351,-4.0542,-4.0971,-4.1071,-4.1372,-4.1782,-4.2324,-4.2582,-4.2582,-4.2582,-4.2471,-4.2213,-4.0058,-3.8966,-3.8482,-3.5771,-3.4175,-3.3498,-3.3022,-3.293,-3.3131,-3.3131,-3.298,-3.2729,0.0,0.0,0.0,0.0,0.0,0.0,0.0,0.0,0.0,-1.8572,-1.9249,-1.9675,-1.9004,-1.8874,-1.8827,-1.892,-2.0574,-2.1898,-2.2532,-2.378,-2.4712,-2.52,-2.485,-2.4627,-2.4584,-2.4627,-2.4726,-2.4938,-2.6584,-2.7495,-2.7832,-2.9953,-3.0711,-3.0375,-3.0845,-3.0417,-2.9429,-2.9388,-2.9051,-2.851,-2.851,-2.851,-2.851,-2.851,-2.851,-2.851,-2.851,-2.851,-2.851,-2.851,-2.851,-2.851,-2.851,-2.851,-2.8607,-2.9076,-2.9208,-2.9424,-3.0477,-3.1269,-3.1923,-3.232,-3.24,-3.2531,0.0,-3.2853,-3.2903,-3.3621,-3.3809,-3.3972,-3.4525,-3.4981,-3.5332,-3.5395,-3.5918,-3.6493,-3.6923,-3.7111,-3.7563,-3.8605,-3.873,-3.8705,-3.8768,-3.927,-3.9597,-3.9597,-3.9659,-3.9697,-3.9697,-3.9749,-3.98,-3.98,-3.98,-3.9839,-3.989,-4.0351,-4.0593,-4.0707,-4.1235,-4.1471,-4.1471,-4.1471,-4.1045,-4.0185,-3.823,-3.6677,-3.5501,-3.4422,-3.3694,-3.3189,-3.2746,-3.2544,-3.2594,-3.2594,-3.2392,-3.2128,0.0,0.0,0.0,0.0,0.0,0.0,0.0,0.0,0.0,0.0,-1.887,-1.9134,-1.8827,-1.8781,-1.8781,-1.8781,-2.0212,-2.132,-2.1943,-2.3173,-2.4016,-2.4391,-2.4456,-2.437,-2.409,-2.437,-2.5017,-2.6141,-2.6915,-2.7856,-2.8947,-2.9962,-3.0302,-3.0098,-3.0314,-3.0001,-2.9304,-2.9304,-2.8991,-2.851,-2.851,-2.851,-2.851,-2.851,-2.851,-2.851,-2.851,-2.851,0.0,-2.851,-2.851,-2.851,-2.851,-2.8727,-2.9015,-2.9232,-2.952,-3.0013,-3.1028,-3.1754,-3.2344,-3.2692,-3.3059,-3.3339,-3.3514,-3.3709,-3.3965,-3.4292,-3.4374,-3.455,-3.5056,-3.5345,-3.5596,-3.5968,-3.6267,-3.6606,-3.7111,-3.7462,-3.7965,-3.8781,-3.9208,-3.9346,-3.9346,-3.9559,-3.9697,-3.9697,-3.9697,-3.9697,-3.9697,-3.9697,-3.9697,-3.9697,-3.9697,-3.9697,-3.9697,-4.0249,-4.0504,-4.0504,-4.1034,-4.1322,-4.1259,-4.0781,-3.9549,-3.7773,-3.6692,-3.5538,-3.4414,-3.3761,-3.328,-3.2942,-3.243,-3.2128,-3.2037,-3.2392,-3.2291,-3.2015,0.0,0.0,0.0,0.0,0.0,0.0,0.0,0.0,0.0,0.0,0.0,-1.8716,-1.8773,-1.8781,-1.8781,-1.8781,-1.9803,-2.0692,-2.1329,-2.2429,-2.3193,-2.3517,-2.3907,-2.395,-2.3624,-2.395,-2.4783,-2.6151,-2.662,-2.7572,-2.8909,-2.9577,-2.9797,-2.9665,-2.9797,-2.9581,-2.9076,-2.9076,-2.8859,-2.851,-2.851,-2.851,-2.851,-2.851,-2.851,-2.851,-2.851,-2.851,-2.851,-2.851,-2.851,-2.851,-2.851,-2.8871,-2.9328,-2.9472,-2.9989,-3.0688,-3.1443,-3.2117,-3.2709,-3.3046,-3.3633,-3.4123,-3.4123,-3.4437,-3.4718,-3.4868,-3.4906,-3.5069,-3.5667,-3.5768,-3.5893,-3.6342,-3.6405,-3.6656,-3.7312,-3.7996,-3.8613,-3.9057,-3.9689,-3.9981,-3.9749,-3.9697,-3.9697,-3.9697,-3.9697,-3.9697,-3.9697,-3.9697,-3.9697,-3.9697,-3.9697,-3.9697,-3.9697,-4.0096,-4.03,-4.03,-4.0526,-4.0537,-4.026,-3.9042,-3.7512,-3.5841,-3.5207,-3.4416,-3.3645,-3.3183,-3.2753,-3.2443,-3.2068,-3.1772,-3.1669,-3.2088,-3.2088,-3.1863,0.0,0.0,0.0,0.0,0.0,0.0,0.0,0.0,0.0,0.0,0.0,0.0,0.0,-1.8781,-1.8781,-1.8781,-1.9492,-2.0113,-2.0593,-2.1596,-2.2369,-2.2799,-2.3038,-2.3144,-2.3135,-2.3144,-2.3188,-2.3242,-2.5009,-2.5852,-2.5999,-2.8263,-2.9051,-2.8582,-2.9088,-2.9027,-2.8534,-2.8534,-2.8522,-2.851,-2.851,-2.851,-2.851,-2.851,-2.851,-2.851,-2.851,-2.851,-2.851,-2.851,-2.851,-2.851,-2.851,-2.8871,-2.94,-2.9917,-3.0838,-3.1669,-3.1681,-3.2447,-3.3174,-3.3174,-3.3928,-3.47,-3.47,-3.4668,-3.4831,-3.537,-3.547,-3.5633,-3.6279,-3.638,-3.6392,-3.6405,-3.6405,-3.6782,-3.7826,-3.8894,-3.9563,-3.9688,-4.0541,-4.0794,-3.9788,-3.9697,-3.9697,-3.9697,-3.9697,-3.9697,-3.9697,-3.9697,-3.9697,-3.9697,-3.9697,-3.9697,-3.9697,-3.9697,-3.9749,-3.9736,-3.9196,-3.8564,-3.7761,-3.5579,-3.468,-3.4773,-3.3646,-3.3074,-3.2801,-3.254,-3.2088,-3.164,-3.1629,-3.1618,-3.1618,-3.1629,-3.1629,-3.1618,0.0,0.0,0.0,0.0,0.0,0.0,0.0,0.0,0.0,0.0,0.0,0.0,0.0,0.0,0.0,0.0,-1.905,-1.9446,-2.0113,-2.0889,-2.1659,-2.2325,-2.2818,-2.3091,-2.3091,-2.3091,-2.3396,-2.4026,-2.4616,-2.5537,-2.6764,-2.7521,-2.8132,-2.8522,-2.8703,-2.8679,-2.851,-2.851,-2.851,-2.851,-2.851,-2.851,-2.851,-2.851,-2.851,-2.851,0.0,-2.851,-2.851,-2.851,-2.851,-2.851,-2.851,-2.9112,-2.9989,-3.0922,-3.1428,-3.1789,-3.2285,-3.2784,-3.333,-3.381,-3.4591,-3.5219,-3.5219,-3.5542,-3.5855,-3.6044,-3.6094,-3.6144,-3.6367,-3.6405,-3.6581,-3.7222,-3.7315,-3.7935,-3.973,-4.0314,-4.0564,-4.0665,-4.0982,-4.0794,-3.9788,0.0,0.0,-3.9697,-3.9697,-3.9697,-3.9697,-3.9697,-3.9697,-3.9697,-3.9697,-3.9697,-3.9697,-3.9333,-3.9145,-3.9145,-3.8039,-3.711,-3.6228,-3.4682,-3.3689,-3.3168,-3.2408,-3.2074,-3.1973,-3.1932,-3.1771,-3.1618,-3.1618,-3.1618,-3.1618,-3.1618,-3.1618,-3.1618,0.0,0.0,0.0,0.0,0.0,0.0,0.0,0.0,0.0,0.0,0.0,0.0,0.0,0.0,0.0,0.0,0.0,-1.9096,-1.9849,-2.0583,-2.1347,-2.2059,-2.2731,-2.3091,-2.3091,-2.3091,-2.356,-2.4498,-2.4829,-2.5746,-2.7226,-2.751,-2.7966,-2.851,-2.851,-2.851,-2.851,-2.851,-2.851,-2.851,-2.851,-2.851,-2.851,-2.851,-2.851,0.0,-2.851,-2.851,-2.851,-2.851,-2.851,-2.851,-2.851,-2.9232,-3.029,-3.1404,-3.1849,-3.209,-3.2563,-3.3165,-3.3771,-3.4333,-3.5059,-3.5703,-3.5796,-3.5956,-3.6069,-3.6069,-3.5918,-3.583,-3.6031,-3.6069,-3.6366,-3.7196,-3.7315,-3.8074,-4.0201,-4.0829,-4.1214,-4.1718,-4.1752,-4.1382,-4.0313,-3.9929,0.0,-3.9697,-3.9697,-3.9697,-3.9697,-3.9697,-3.9697,-3.9697,-3.9496,-3.9396,-3.9396,-3.8843,-3.8354,-3.7842,-3.6658,-3.5574,-3.4546,-3.3458,-3.2656,-3.2088,-3.1771,-3.1618,-3.1618,-3.1618,-3.1618,-3.1618,-3.1618,-3.1618,-3.1618,-3.1618,-3.1618,-3.1618,0.0,0.0,0.0,0.0,0.0,0.0,0.0,0.0,0.0,0.0,0.0,0.0,0.0,0.0,0.0,0.0,0.0,0.0,-1.9803,-2.0583,-2.1302,-2.2015,-2.2731,-2.3091,-2.3091,-2.3091,-2.3517,-2.4413,-2.5284,-2.6205,-2.7133,-2.8007,-2.8471,-2.851,-2.851,-2.851,-2.851,-2.851,-2.851,-2.851,-2.851,-2.851,-2.851,-2.851,-2.851,-2.851,-2.851,-2.851,-2.851,-2.851,-2.851,-2.851,-2.8546,-2.9256,-3.029,-3.1368,-3.2046,-3.2515,-3.2527,-3.347,-3.448,-3.4752,-3.5441,-3.6051,-3.6285,-3.5918,-3.5495,-3.5458,-3.5044,-3.4843,-3.5357,-3.5529,-3.5751,-3.642,-3.6568,-3.7373,-3.9501,-4.0635,-4.1641,-4.2698,-4.2861,-4.2452,-4.1319,-4.0364,0.0,-3.9697,0.0,-3.9697,-3.9697,-3.9672,-3.9647,-3.9647,-3.912,-3.8831,-3.8831,-3.8253,-3.7283,-3.5928,-3.5123,-3.4063,-3.2762,-3.1964,-3.1618,-3.1618,-3.1618,-3.1618,-3.1618,-3.1618,-3.1618,-3.1618,-3.1618,-3.1618,-3.1618,-3.1618,-3.1618,-3.1618,0.0,0.0,0.0,0.0,0.0,0.0,0.0,0.0,0.0,0.0,0.0,0.0,0.0,0.0,0.0,0.0,0.0,0.0,-1.905,-2.0266,-2.1078,-2.1257,-2.2467,-2.3091,-2.3091,-2.3091,-2.3222,-2.3484,-2.437,-2.5284,-2.6163,-2.7092,-2.7886,-2.851,-2.851,-2.851,-2.851,-2.851,-2.851,-2.851,-2.851,-2.851,-2.851,-2.851,-2.851,-2.851,-2.851,-2.851,-2.851,-2.851,-2.851,-2.8582,-2.8979,-2.9556,-3.0218,-3.0922,-3.1757,-3.2587,-3.2984,-3.3736,-3.4518,-3.4967,-3.5558,-3.5904,-3.5587,-3.5515,-3.5382,-3.4969,-3.4702,-3.4549,-3.4868,-3.5684,-3.6657,-3.7741,-3.8824,-4.0118,-4.189,-4.2793,-4.3243,-4.3264,-4.3659,-4.3197,-4.1369,-4.0982,-4.0503,0.0,-3.9697,-3.9697,-3.9697,-3.9308,-3.9082,-3.9082,-3.853,-3.8228,-3.8228,-3.7676,-3.6711,-3.5369,-3.4588,-3.3726,-3.2762,-3.1964,-3.1618,-3.1618,-3.1618,-3.1618,-3.1618,-3.1618,-3.1618,-3.1618,-3.1618,-3.1618,-3.1618,-3.1618,-3.1618,-3.1618,0.0,0.0,0.0,0.0,0.0,0.0,0.0,0.0,0.0,0.0,0.0,0.0,0.0,0.0,0.0,0.0,0.0,0.0,0.0,-2.0357,-2.1123,-2.1481,-2.2511,-2.3091,-2.3091,-2.3091,-2.3474,-2.4274,-2.4819,-2.5746,-2.6999,-2.751,-2.8007,-2.851,-2.851,-2.851,-2.851,-2.851,-2.851,0.0,0.0,-2.851,-2.851,-2.851,-2.851,-2.851,-2.851,-2.851,-2.851,-2.851,-2.851,-2.8607,-2.9136,-2.9665,-3.0242,-3.0999,-3.1997,-3.2959,-3.3477,-3.4088,-3.4703,-3.5102,-3.5245,-3.5238,-3.5083,-3.4764,-3.4421,-3.411,-3.3772,-3.364,-3.4088,-3.5054,-3.623,-3.7594,-3.8817,-4.0248,-4.2138,-4.2925,-4.3511,-4.4022,-4.421,-4.3687,-4.2048,-4.1468,-4.069,-3.9448,-3.9333,-3.9333,-3.9333,-3.8793,-3.8492,-3.8492,-3.7939,-3.7525,-3.7287,-3.6973,-3.6264,-3.5174,-3.4385,-3.3598,-3.2762,-3.1964,-3.1618,-3.1618,0.0,-3.1618,-3.1618,-3.1618,-3.1618,-3.1618,-3.1618,-3.1618,-3.1618,-3.1618,-3.1618,-3.1618,0.0,0.0,0.0,0.0,0.0,0.0,0.0,0.0,0.0,0.0,0.0,0.0,0.0,0.0,0.0,0.0,0.0,0.0,0.0,0.0,-2.1347,-2.2059,-2.2731,-2.3091,-2.3091,-2.3222,-2.4059,-2.5621,-2.5872,-2.6782,-2.8351,-2.8431,-2.851,-2.851,-2.851,-2.8471,-2.8431,-2.8471,-2.8471,-2.8431,-2.8471,-2.851,-2.851,0.0,-2.851,-2.851,-2.851,-2.851,-2.851,-2.851,-2.851,-2.8595,-2.9051,-2.9605,-3.029,-3.1308,-3.2382,-3.3404,-3.385,-3.4378,-3.486,-3.4981,-3.4725,-3.4478,-3.4531,-3.3863,-3.3219,-3.3101,-3.2676,-3.2579,-3.3244,-3.4178,-3.5249,-3.6731,-3.7843,-3.9216,-4.1252,-4.2144,-4.306,-4.4472,-4.4464,-4.3971,-4.2849,-4.1888,-4.0631,-3.9082,-3.8781,-3.873,-3.8806,-3.8216,-3.7864,-3.7789,-3.7324,-3.6895,-3.6417,-3.631,-3.581,-3.503,-3.4239,-3.34,-3.2611,-3.1924,-3.1618,-3.1618,-3.1618,-3.1618,-3.1618,-3.1618,-3.1618,-3.1618,-3.1618,-3.1618,-3.1618,-3.1618,-3.1618,-3.1618,0.0,0.0,0.0,0.0,0.0,0.0,0.0,0.0,0.0,0.0,-1.6012,-1.7021,0.0,0.0,0.0,0.0,0.0,0.0,0.0,0.0,0.0,-2.2059,-2.2731,-2.3091,-2.3091,-2.3864,-2.4413,-2.4744,-2.6205,-2.7133,-2.7429,-2.8179,-2.851,-2.851,-2.851,-2.8311,-2.8054,-2.8351,-2.8323,-2.8042,-2.8351,-2.851,-2.851,-2.851,0.0,0.0,-2.851,-2.851,-2.851,-2.851,-2.851,-2.8522,-2.8619,-2.9304,-3.0206,-3.0874,-3.2094,-3.3404,-3.385,-3.4378,-3.4727,-3.4294,-3.4494,-3.4436,-3.3405,-3.3322,-3.3274,-3.2665,-3.2274,-3.2237,-3.2748,-3.3824,-3.5076,-3.6446,-3.8282,-3.9928,-4.104,-4.2161,-4.3011,-4.3311,-4.4211,-4.4185,-4.2611,-4.209,0.0,0.0,-3.8189,-3.7676,-3.8128,-3.7626,-3.7123,-3.6707,-3.6606,-3.6505,-3.6405,-3.5763,-3.4981,-3.419,-3.34,-3.2611,-3.1823,-3.1669,-3.1618,-3.1618,-3.1618,0.0,-3.1618,-3.1618,-3.1618,-3.1618,-3.1618,-3.1618,-3.1618,-3.1618,-3.1618,-3.1618,0.0,0.0,0.0,0.0,0.0,0.0,0.0,-1.425,-1.4454,-1.465,-1.5239,-1.6007,-1.7067,-1.7461,-1.7901,0.0,0.0,0.0,0.0,0.0,0.0,0.0,0.0,0.0,-2.382,-2.4284,-2.4956,-2.5924,0.0,-2.7429,-2.7886,-2.8299,-2.851,-2.851,-2.851,-2.8391,-2.8243,-2.8431,-2.8271,-2.7933,-2.8351,-2.8351,-2.8203,0.0,0.0,0.0,0.0,-2.851,-2.851,-2.851,-2.851,-2.851,-2.851,-2.9232,-3.0194,-3.0766,-3.2022,-3.3404,-3.385,-3.4174,-3.4306,-3.4054,-3.3786,-3.3438,-3.278,-3.2609,-3.2462,-3.213,-3.1937,-3.2145,-3.3061,-3.4104,-3.5332,-3.7015,-3.8531,-3.9883,-4.0963,-4.1918,-4.2644,-4.2948,-4.3834,-4.3876,-4.2514,-4.1828,-4.077,-3.9089,-3.7878,-3.7299,-3.7563,-3.7109,-3.6681,-3.6417,-3.6405,-3.6405,-3.6405,-3.5619,-3.503,-3.4629,-3.34,-3.2611,-3.2218,-3.1772,-3.1618,-3.1618,-3.1618,-3.1618,-3.1618,-3.1618,-3.1618,-3.1618,-3.1618,-3.1618,-3.1618,-3.1618,-3.1618,-3.1618,0.0,0.0,0.0,0.0,0.0,0.0,0.0,-1.4088,-1.4208,-1.4531,-1.4573,-1.5,-1.6085,-1.6672,-1.7301,0.0,0.0,0.0,0.0,0.0,0.0,0.0,0.0,0.0,0.0,0.0,0.0,-2.7185,-2.7389,0.0,0.0,0.0,0.0,0.0,-2.851,-2.8431,-2.8391,-2.8471,-2.8271,0.0,0.0,-2.8323,0.0,0.0,0.0,0.0,0.0,-2.851,-2.851,-2.851,-2.851,-2.851,-2.851,-2.916,-3.005,-3.073,-3.1853,-3.308,-3.3705,-3.3838,-3.3802,-3.3694,-3.323,-3.2681,-3.2391,-3.2152,-3.1925,-3.1749,-3.1793,-3.222,-3.3177,-3.4207,-3.5453,-3.7077,-3.8229,-3.9386,-4.0688,-4.1453,-4.2107,-4.2716,-4.3384,-4.3387,-4.243,-4.1442,0.0,-3.884,-3.7641,-3.701,-3.701,-3.6644,-3.6405,-3.6405,-3.6405,-3.6405,-3.6405,-3.5619,-3.5126,-3.4933,-3.3499,-3.2711,-3.251,-3.1863,-3.1618,-3.1618,-3.1618,-3.1618,-3.1618,-3.1618,-3.1618,-3.1618,-3.1618,-3.1618,-3.1618,-3.1618,-3.1618,-3.1618,0.0,0.0,0.0,0.0,0.0,0.0,0.0,-1.4088,-1.413,-1.4166,-1.4166,-1.4341,-1.4818,-1.5943,-1.6909,0.0,0.0,0.0,0.0,0.0,0.0,0.0,0.0,0.0,0.0,0.0,0.0,-2.7185,-2.8007,0.0,0.0,0.0,0.0,0.0,0.0,-2.8323,-2.7962,-2.8351,0.0,0.0,0.0,0.0,0.0,0.0,0.0,0.0,0.0,-2.851,-2.851,-2.851,-2.851,-2.851,-2.851,-2.8907,-2.9569,-3.0621,-3.1368,-3.209,-3.308,-3.3356,-3.3248,-3.2767,-3.3159,-3.3337,-3.2075,-3.2344,-3.2655,-3.1881,-3.2189,-3.2494,-3.2201,-3.356,-3.4924,-3.5453,-3.6939,-3.8541,-4.001,-4.0771,-4.1439,-4.2092,-4.2716,-4.2819,-4.2185,-4.0984,-3.9956,-3.9199,-3.7518,-3.648,-3.648,-3.643,-3.6405,-3.6405,-3.6405,-3.6405,-3.6405,-3.5619,-3.4836,-3.4091,-3.3201,-3.242,-3.1721,-3.1618,-3.1618,-3.1618,-3.1618,-3.1618,0.0,-3.1618,-3.1618,-3.1618,-3.1618,-3.1618,-3.1618,-3.1618,-3.1618,-3.1618,0.0,0.0,0.0,0.0,0.0,0.0,-1.4088,-1.4088,-1.4088,-1.4088,-1.4088,-1.4166,-1.4328,-1.5014,-1.5933,-1.7165,0.0,0.0,0.0,0.0,0.0,0.0,0.0,0.0,0.0,0.0,-2.747,-2.7966,-2.8351,0.0,0.0,0.0,0.0,0.0,0.0,-2.8391,-2.8271,-2.8431,0.0,0.0,0.0,0.0,0.0,0.0,0.0,0.0,0.0,0.0,-2.851,-2.851,-2.851,-2.851,-2.851,-2.8655,-2.8967,-2.9713,-3.053,-3.1392,-3.2151,-3.2082,-3.1865,-3.1973,-3.2054,-3.1925,-3.1371,-3.1739,-3.2145,-3.1749,-3.2232,-3.2828,-3.3292,-3.4319,-3.544,-3.6506,-3.7278,-3.8143,-3.9387,-4.0104,-4.0742,-4.1424,-4.2063,-4.2353,0.0,0.0,-3.9867,-3.8432,-3.7129,-3.6405,-3.6405,-3.6405,-3.6405,-3.6405,-3.6405,-3.6405,-3.6405,-3.5126,-3.4337,-3.3993,-3.2711,-3.1924,-3.1618,-3.1618,-3.1618,-3.1618,-3.1618,-3.1455,0.0,-3.1498,-3.1455,-3.1214,-3.1509,-3.1618,-3.1618,-3.1618,-3.1618,-3.1618,0.0,0.0,0.0,0.0,0.0,-1.4088,-1.4088,-1.4088,-1.4088,-1.4088,-1.4088,-1.4088,-1.4088,-1.4573,-1.5452,-1.683,-1.7914,0.0,0.0,0.0,0.0,0.0,0.0,0.0,0.0,0.0,-2.7886,-2.851,-2.851,-2.851,0.0,0.0,-2.851,-2.851,0.0,0.0,0.0,0.0,0.0,0.0,0.0,0.0,0.0,0.0,0.0,0.0,0.0,0.0,0.0,0.0,0.0,-2.851,-2.851,-2.851,-2.8619,-2.9136,-2.9821,-3.0518,-3.1103,-3.1088,-3.1022,-3.1399,-3.1486,-3.14,-3.1199,-3.1742,-3.2171,-3.1794,-3.2407,-3.3153,-3.3519,-3.4419,-3.5364,-3.6263,-3.693,-3.7668,-3.8621,-3.9518,-4.035,-4.1018,0.0,-4.2092,-4.2092,-4.0944,-3.9505,-3.7946,-3.6956,-3.6405,-3.6405,-3.6405,-3.6405,-3.6405,-3.6405,-3.6405,-3.6405,-3.5271,-3.4483,-3.3993,-3.2851,-3.2066,-3.1618,-3.1476,-3.14,-3.14,-3.1269,-3.1094,0.0,-3.1269,-3.1291,-3.1149,-3.1487,-3.1618,-3.1618,-3.1618,-3.1618,-3.1618,0.0,0.0,0.0,0.0,0.0,0.0,-1.4088,-1.4088,-1.4088,-1.4088,-1.4088,-1.4088,-1.4088,-1.4859,-1.5735,-1.6537,-1.7607,0.0,0.0,0.0,0.0,0.0,0.0,0.0,0.0,0.0,-2.8471,-2.851,-2.851,-2.851,-2.851,-2.851,-2.851,-2.851,0.0,0.0,0.0,0.0,0.0,0.0,0.0,0.0,0.0,0.0,0.0,0.0,0.0,0.0,0.0,0.0,0.0,0.0,0.0,-2.851,-2.8619,-2.9136,-2.9304,-2.9436,-2.9965,-3.0545,-3.1017,-3.103,-3.1899,-3.2635,-3.1938,-3.2756,-3.3305,-3.2062,-3.2867,-3.3392,-3.2164,-3.3404,-3.4403,-3.374,-3.5366,-3.6957,-3.7615,-3.9073,-4.035,0.0,-4.1686,-4.2092,-4.2092,-4.0331,-3.881,-3.7854,-3.6956,0.0,-3.6405,-3.6405,-3.6405,-3.6405,-3.6405,-3.6405,-3.6405,-3.6358,-3.5571,-3.3993,-3.3993,-3.3151,-3.1556,-3.1116,-3.0898,-3.0876,-3.0428,-3.0482,0.0,-3.0898,-3.1181,-3.1567,-3.1618,-3.1618,-3.1618,-3.1618,-3.1618,-3.1618,0.0,0.0,0.0,0.0,0.0,0.0,0.0,-1.4088,-1.4088,-1.4088,-1.4088,-1.4088,-1.4088,-1.4866,-1.5722,-1.6609,-1.833,0.0,0.0,0.0,0.0,0.0,0.0,0.0,0.0,0.0,-2.851,-2.851,-2.851,-2.851,-2.851,-2.851,-2.851,-2.851,-2.851,0.0,0.0,0.0,0.0,0.0,0.0,0.0,0.0,0.0,0.0,0.0,0.0,0.0,0.0,0.0,0.0,0.0,0.0,0.0,0.0,-2.9327,-2.9071,-2.8952,-2.9919,-3.0026,-3.0094,-3.0867,-3.1361,-3.1569,-3.1369,-3.1934,-3.2373,-3.1937,-3.2587,-3.3054,-3.2672,-3.3443,-3.4175,-3.4276,-3.5017,-3.5952,-3.6891,-3.8438,0.0,-4.0336,-4.141,-4.2092,0.0,0.0,-3.9077,-3.8765,-3.7302,-3.6405,-3.6405,-3.6405,-3.6405,-3.6405,-3.6405,-3.6405,-3.6405,-3.5858,-3.4896,-3.3488,-3.2952,-3.1995,-3.0657,-3.0493,-3.0603,-3.0887,-3.0745,-3.0756,0.0,-3.1258,-3.1291,-3.116,-3.1487,-3.1618,-3.1618,-3.1618,-3.1618,-3.1618,0.0,0.0,0.0,0.0,0.0,0.0,0.0,-1.4088,-1.4088,-1.4088,-1.4088,-1.4208,-1.4538,-1.5352,-1.6247,-1.7107,-1.9009,0.0,0.0,0.0,0.0,0.0,0.0,0.0,0.0,-2.7886,-2.851,-2.851,-2.851,-2.851,-2.851,-2.851,-2.8618,-2.8855,-2.8855,-2.8855,0.0,0.0,0.0,0.0,0.0,0.0,-2.8471,0.0,0.0,0.0,0.0,0.0,0.0,0.0,0.0,0.0,0.0,0.0,0.0,0.0,-2.9484,-2.9337,-3.0025,-3.0174,-3.0254,-3.0945,-3.1268,-3.1436,-3.1436,-3.1875,-3.2211,-3.1965,-3.2476,-3.2926,-3.2661,-3.299,-3.3356,-3.3655,-3.4288,-3.5094,-3.5989,0.0,0.0,-4.0713,0.0,0.0,0.0,-4.0674,-3.9724,-3.9724,-3.8011,-3.6853,-3.6649,-3.6277,-3.5956,-3.5742,-3.6191,-3.6304,-3.6056,-3.5561,-3.4663,-3.3386,-3.2624,-3.1746,-3.0843,-3.0433,-3.0461,-3.0887,-3.0712,-3.0734,0.0,-3.1225,-3.128,-3.1203,-3.1509,-3.1618,-3.1618,-3.1618,-3.1618,-3.1618,0.0,0.0,0.0,0.0,0.0,0.0,0.0,-1.413,-1.413,-1.4166,-1.4173,-1.4538,-1.5394,-1.6247,-1.7107,-1.7917,0.0,0.0,0.0,0.0,0.0,0.0,0.0,0.0,0.0,-2.8059,-2.851,-2.851,-2.851,-2.851,-2.8538,-2.8538,-2.8895,-2.9445,-2.9445,-2.9445,0.0,0.0,0.0,0.0,0.0,0.0,0.0,0.0,0.0,0.0,0.0,0.0,0.0,0.0,0.0,0.0,0.0,0.0,0.0,0.0,0.0,0.0,0.0,-3.0809,-3.122,-3.127,-3.1629,-3.2024,-3.2024,-3.2447,0.0,-3.2143,-3.2557,-3.2857,-3.2314,-3.2218,-3.2218,-3.2218,-3.3309,-3.4401,-3.5091,-3.7562,0.0,0.0,-4.2092,0.0,-4.2092,-4.1198,-4.0575,-4.0547,-3.8787,-3.7495,-3.6964,-3.5971,-3.5207,-3.4738,-3.5742,-3.6044,-3.5445,-3.5483,-3.4792,-3.3409,-3.2852,-3.2331,-3.1848,-3.0689,-3.0461,0.0,-3.045,-3.0526,0.0,-3.0952,-3.1214,-3.1618,-3.1618,-3.1618,-3.1618,-3.1618,-3.1618,-3.1618,0.0,0.0,0.0,0.0,0.0,0.0,0.0,0.0,0.0,0.0,-1.511,-1.5436,-1.6288,-1.718,-1.7796,0.0,0.0,0.0,0.0,0.0,0.0,0.0,0.0,0.0,0.0,-2.8231,-2.851,-2.851,-2.851,-2.8736,-2.9197,-2.9197,-2.9535,-3.0101,-3.0101,-3.0101,0.0,0.0,0.0,0.0,0.0,0.0,0.0,0.0,0.0,0.0,-2.8922,-2.9197,0.0,0.0,0.0,0.0,0.0,0.0,0.0,0.0,-3.1357,-3.1753,-3.1753,0.0,-3.1307,-3.1827,-3.2044,-3.2139,0.0,-3.2246,-3.2314,-3.2179,-3.2299,-3.2381,-3.2246,-3.2218,-3.2218,-3.2218,-3.2949,-3.3909,-3.5034,-3.7921,0.0,-4.1918,-4.2092,-4.2092,-4.2092,-4.1198,-4.0407,-3.9971,-3.8239,-3.6894,-3.6248,-3.5385,-3.4806,-3.468,-3.5332,-3.5433,-3.4868,-3.5282,-3.4561,-3.2723,-3.2983,-3.2264,-3.0607,-3.0302,-3.0461,-3.0887,-3.0777,0.0,-3.1455,-3.1455,-3.152,-3.1618,-3.1618,-3.1618,-3.1618,-3.1618,-3.1618,-3.1618,0.0,0.0,0.0,0.0,0.0,0.0,0.0,0.0,0.0,0.0,0.0,0.0,0.0,0.0,0.0,0.0,0.0,0.0,0.0,0.0,0.0,0.0,0.0,-2.7196,-2.7893,-2.8122,-2.8471,-2.8922,-2.8922,-2.9223,-2.9832,-2.9832,-3.0126,-3.0696,-3.0696,-3.0696,0.0,0.0,0.0,0.0,-2.8618,0.0,0.0,0.0,0.0,0.0,-2.9067,-2.9406,0.0,-3.0177,-3.0469,-3.0696,0.0,0.0,0.0,0.0,-3.19,-3.2218,-3.2218,-3.1936,-3.174,-3.2096,-3.2218,-3.2218,-3.2218,-3.2218,-3.2218,-3.2218,-3.2218,-3.2218,-3.2218,-3.235,-3.2372,-3.2218,-3.2945,-3.4236,0.0,0.0,-4.0945,-4.1976,-4.2092,-4.2092,0.0,-4.1633,-4.1168,-4.084,-3.9054,-3.7732,-3.7133,-3.5821,-3.4944,-3.4726,-3.4969,-3.4981,-3.468,-3.4897,-3.4328,-3.2945,-3.2581,-3.1917,-3.1007,-3.0674,-3.0788,-3.1225,-3.1225,0.0,-3.1618,-3.1618,-3.1618,-3.1618,-3.1618,-3.1618,-3.1618,-3.1618,-3.1618,-3.1618,0.0,0.0,0.0,0.0,0.0,0.0,0.0,0.0,0.0,0.0,0.0,0.0,0.0,0.0,0.0,0.0,0.0,0.0,0.0,0.0,0.0,0.0,0.0,-2.6925,-2.7646,-2.7806,-2.8333,-2.9294,-2.9372,-2.9706,-3.0315,-3.0315,-3.0654,-3.1212,-3.1304,-3.1344,0.0,0.0,-2.9986,0.0,-2.9223,0.0,0.0,0.0,0.0,0.0,0.0,0.0,0.0,-3.0558,-3.0934,-3.1344,-3.1344,0.0,0.0,0.0,0.0,0.0,-3.2218,-3.2218,-3.2218,-3.2218,-3.2218,-3.2218,-3.2218,-3.2218,-3.2218,-3.2218,-3.2218,-3.2218,-3.2277,-3.248,-3.2538,0.0,0.0,0.0,-3.7794,-3.9784,-4.1221,-4.2005,-4.2092,0.0,-4.2092,-4.2092,-4.2049,-4.1961,-4.0277,-3.8992,-3.8306,-3.6534,-3.5327,-3.4738,-3.4756,-3.4806,-3.4806,-3.4656,-3.4177,-3.3425,-3.2297,-3.1791,-3.1942,-3.1296,-3.1236,-3.1618,0.0,0.0,-3.1618,-3.1618,-3.1618,-3.1618,-3.1618,-3.1618,-3.1618,-3.1618,-3.1524,-3.1498,0.0,0.0,0.0,0.0,0.0,0.0,0.0,0.0,0.0,0.0,0.0,0.0,0.0,0.0,0.0,0.0,0.0,0.0,0.0,0.0,0.0,-2.4551,-2.6131,-2.687,-2.6553,-2.7341,-2.805,-2.8723,-2.9176,-2.9736,-3.0388,-3.0388,-3.0715,-3.1294,-3.183,-3.2059,-3.2009,-3.1233,-3.0959,-3.0996,-3.0279,0.0,0.0,0.0,0.0,0.0,0.0,0.0,0.0,-3.1716,-3.1986,-3.2059,-3.2059,0.0,0.0,0.0,0.0,0.0,-3.2218,-3.2218,-3.2218,-3.2218,-3.2218,-3.2218,-3.2218,-3.2218,-3.2218,-3.2218,-3.2218,-3.2277,-3.2561,-3.2444,-3.2336,0.0,0.0,-3.5733,0.0,0.0,-4.0713,-4.1947,0.0,-4.2092,-4.2092,-4.2092,-4.186,-4.1294,-4.029,-3.9074,-3.7638,-3.6581,-3.5601,-3.4726,-3.5132,-3.537,-3.537,-3.5365,-3.4642,-3.3255,-3.351,-3.2918,-3.1662,-3.156,-3.1553,-3.1618,0.0,-3.1618,-3.1618,-3.1618,-3.1618,-3.1618,-3.1618,-3.1618,-3.1618,-3.1618,-3.1356,-3.0952,0.0,0.0,0.0,0.0,0.0,0.0,0.0,0.0,0.0,0.0,0.0,0.0,0.0,0.0,0.0,0.0,0.0,0.0,0.0,0.0,0.0,-2.3989,-2.5215,-2.6083,-2.6411,-2.7062,-2.7927,-2.9108,-2.9313,-2.9771,-3.0427,-3.0748,-3.1038,-3.1327,-3.1911,-3.2218,-3.2146,-3.1468,-3.1418,-3.1666,0.0,0.0,0.0,0.0,0.0,0.0,0.0,0.0,0.0,0.0,-3.2218,-3.2218,-3.2218,0.0,0.0,0.0,0.0,0.0,-3.2218,-3.2467,-3.2632,-3.2277,-3.2218,-3.2218,-3.2218,-3.2218,-3.2218,-3.2218,-3.2218,-3.2241,-3.2408,0.0,-3.2966,-3.3528,0.0,-3.6502,-3.7997,-3.961,-4.1004,0.0,0.0,-4.2092,-4.2092,-4.2092,-4.1961,-4.1657,-4.0785,-3.9688,-3.8453,-3.752,-3.6606,-3.5651,-3.5855,-3.5994,-3.5994,-3.5994,-3.5392,-3.427,-3.363,-3.2951,-3.2207,-3.1823,-3.1618,-3.1618,0.0,-3.1618,-3.1618,-3.1618,-3.1618,-3.1618,-3.1618,-3.1465,-3.1203,-3.0952,-3.0723,-3.0461,0.0,0.0,0.0,0.0,0.0,0.0,0.0,0.0,0.0,0.0,0.0,0.0,0.0,0.0,0.0,0.0,0.0,0.0,0.0,0.0,-2.318,-2.3738,-2.4498,-2.5284,-2.607,-2.6748,-2.7756,-2.9131,-2.9376,-2.9816,-3.0418,-3.0866,-3.1151,-3.1327,-3.1911,-3.2218,-3.2182,-3.1666,-3.174,-3.2096,0.0,0.0,0.0,0.0,0.0,0.0,0.0,0.0,0.0,0.0,0.0,0.0,0.0,0.0,0.0,-3.2588,-3.2574,-3.248,-3.2646,-3.3066,-3.3332,-3.281,-3.2682,-3.2646,-3.248,-3.2574,-3.2646,-3.248,-3.2444,-3.2408,-3.2336,-3.286,0.0,-3.4059,-3.544,-3.6897,-3.8049,-3.9741,-4.1163,-4.199,-4.2092,-4.2092,-4.2092,-4.2092,-4.2092,-4.2092,-4.1395,-4.0518,-3.9593,-3.8644,-3.7717,-3.6769,-3.6499,-3.6405,-3.6405,-3.6405,-3.6013,-3.5174,-3.3747,-3.3001,-3.2762,-3.1964,-3.1618,-3.1618,-3.1618,-3.1618,-3.1618,-3.1618,-3.1564,-3.1455,-3.1455,-3.116,-3.0679,-3.022,-3.0046,-2.9969,0.0,0.0,0.0,0.0,0.0,0.0,0.0,0.0,0.0,0.0,0.0,0.0,0.0,0.0,0.0,0.0,0.0,0.0,0.0,0.0,-2.2988,-2.4207,-2.4721,-2.4956,-2.4931,-2.6298,-2.7344,-2.8009,-2.9019,-2.9801,-3.0405,-3.0446,-3.0758,-3.1327,-3.1911,-3.2218,-3.2218,-3.2132,-3.2146,-3.2182,-3.2096,0.0,0.0,0.0,0.0,0.0,0.0,0.0,0.0,0.0,0.0,0.0,0.0,0.0,-3.2444,-3.3782,-3.3665,-3.3297,-3.3973,-3.4177,-3.4211,-3.4177,-3.4143,-3.3973,-3.3297,-3.3665,-3.3973,-3.3262,-3.3122,-3.3017,-3.2725,-3.3023,-3.3304,-3.3374,-3.4775,-3.6423,-3.7991,0.0,-4.0655,-4.1947,-4.2092,-4.2092,-4.2092,-4.2092,-4.2092,-4.2092,-4.2051,-4.1535,-4.0546,-3.9593,-3.8675,-3.7717,-3.6862,-3.6405,-3.6405,-3.6405,-3.6013,-3.5174,-3.4337,-3.3499,-3.2762,-3.1964,-3.1618,-3.1618,-3.1618,-3.1618,-3.1618,-3.1618,-3.1356,-3.0952,-3.0952,-3.0668,-3.0199,-2.9718,-2.9532,-2.9467,0.0,0.0,0.0,0.0,0.0,0.0,0.0,0.0,0.0,0.0,0.0,0.0,0.0,0.0,0.0,0.0,0.0,0.0,0.0,-2.2875,-2.3461,-2.4218,-2.498,-2.53,-2.5111,-2.6688,-2.7782,-2.8352,-2.8749,-2.9238,-2.9835,-3.0228,-3.073,-3.1327,-3.1911,-3.2218,-3.2218,-3.2218,-3.2218,-3.2182,-3.2073,-3.2,0.0,0.0,0.0,0.0,0.0,0.0,0.0,0.0,-3.2218,-3.2314,-3.2995,-3.303,-3.303,-3.4007,-3.4109,-3.3939,-3.423,-3.4647,-3.4879,-3.4413,-3.4993,-3.5367,-3.4177,-3.4109,-3.4211,-3.3939,-3.3526,-3.3087,-3.2761,0.0,-3.376,-3.4178,-3.5082,-3.6314,-3.7991,-3.878,-3.9726,-4.1282,-4.1482,-4.1642,-4.2049,-4.1715,-4.1482,-4.1482,-4.1091,-4.0426,-3.9451,-3.8925,-3.8171,-3.7201,-3.6671,-3.6405,-3.6405,-3.6031,-3.5703,-3.5375,-3.4425,-3.3845,-3.3499,-3.2218,-3.1618,-3.1607,-3.1302,-3.1171,-3.1149,-3.0865,-3.0635,-3.0439,-3.0133,-2.9915,-2.9707,-2.9263,-2.9077,-2.9055,0.0,0.0,0.0,0.0,0.0,0.0,0.0,0.0,0.0,0.0,0.0,0.0,0.0,0.0,0.0,0.0,0.0,0.0,-2.2327,-2.315,-2.3787,-2.4189,-2.5252,-2.5836,-2.5826,-2.7297,-2.8052,-2.8085,-2.8425,-2.8994,-2.9781,-3.0215,-3.0825,-3.1585,-3.2042,-3.2218,-3.2218,-3.2218,-3.2218,-3.2182,-3.2036,-3.2,0.0,0.0,0.0,0.0,0.0,0.0,0.0,0.0,-3.1897,-3.2091,-3.3206,-3.3227,-3.3157,-3.4581,-3.4647,-3.4346,-3.4581,-3.519,-3.5561,-3.4813,-3.5561,-3.6258,-3.5222,-3.4978,-3.4927,-3.4681,-3.3871,-3.3052,-3.2632,-3.3129,0.0,0.0,-3.5024,-3.6119,-3.7379,-3.814,-3.9111,-4.0455,-4.0706,-4.096,-4.1424,-4.1047,-4.0786,-4.0786,-4.035,-3.9812,-3.9183,-3.87,-3.7987,-3.703,-3.6509,-3.6143,-3.5889,-3.5466,-3.5245,-3.5245,-3.4304,-3.3753,-3.3463,-3.2099,-3.1372,-3.116,-3.0821,-3.0679,-3.0657,-3.0341,-3.0122,-2.9936,-2.9445,-2.9296,-2.9263,-2.8924,-2.8803,-2.8803,0.0,0.0,0.0,0.0,0.0,0.0,0.0,0.0,0.0,0.0,0.0,0.0,0.0,0.0,0.0,0.0,0.0,0.0,-2.2927,-2.3372,-2.3787,-2.4189,-2.5627,-2.6595,-2.7007,-2.8052,-2.8085,-2.7007,-2.8085,-2.9224,-3.0405,-3.0418,-3.1042,-3.2218,-3.2218,-3.2218,-3.2218,-3.2218,-3.2218,-3.2218,-3.2218,-3.2218,-3.2205,0.0,0.0,0.0,0.0,0.0,0.0,0.0,-3.13,-3.165,-3.367,-3.3332,-3.2789,-3.5655,-3.5464,-3.448,-3.519,-3.5943,-3.632,-3.5593,-3.5943,-3.6492,-3.6492,-3.6492,-3.6289,-3.5529,-3.423,-3.2995,-3.2314,-3.2803,0.0,-3.2803,-3.4395,-3.5793,-3.6071,-3.7522,-3.8821,-3.9396,-3.9852,-4.0089,-4.0104,-4.0089,-4.0089,-4.0089,-4.0089,-4.0075,-4.0075,-3.9209,-3.8297,-3.7419,-3.6492,-3.56,-3.4726,-3.4713,-3.4668,-3.4668,-3.3857,-3.3166,-3.2489,-3.1683,-3.0879,-3.0209,-3.0209,-3.0209,-3.0209,-3.0199,-2.9915,-2.9434,-2.8989,-2.8803,-2.8803,-2.8803,-2.8803,-2.8803,0.0,0.0,0.0,0.0,0.0,0.0,0.0,0.0,0.0,0.0,0.0,0.0,0.0,0.0,0.0,0.0,0.0,0.0,-2.3372,-2.3787,-2.4322,-2.4969,-2.5534,-2.6079,-2.6552,-2.741,-2.7921,-2.8118,-2.8876,-2.9618,-3.0418,-3.0839,-3.1436,-3.2218,-3.2218,-3.2218,-3.2218,-3.2218,-3.2218,-3.2218,-3.2218,-3.1938,-3.1558,0.0,0.0,0.0,0.0,0.0,0.0,0.0,0.0,0.0,-3.3169,-3.3323,-3.3367,-3.5784,-3.58,-3.5222,-3.5975,-3.632,-3.646,-3.6226,-3.6352,-3.6492,-3.6492,-3.6492,-3.6148,-3.4894,-3.4075,-3.3438,-3.2932,-3.3453,0.0,-3.4612,-3.5131,-3.5767,-3.6627,-3.6931,-3.7512,-3.8714,-3.8982,-3.9312,-4.0021,-3.9712,-3.9465,-3.9465,-3.903,-3.8754,-3.8754,-3.8317,-3.7957,-3.77,-3.658,-3.5895,-3.5644,-3.4622,-3.4148,-3.4135,-3.3514,-3.3191,-3.3178,-3.1862,-3.1168,-3.0905,-3.009,-2.9707,-2.9674,-2.9325,-2.9142,-2.9,-2.8858,-2.8803,-2.8803,-2.8803,-2.8803,-2.8803,0.0,0.0,0.0,0.0,0.0,0.0,0.0,0.0,0.0,0.0,0.0,0.0,0.0,0.0,0.0,0.0,0.0,0.0,0.0,-2.3751,-2.4141,-2.4599,-2.5394,-2.6217,-2.7116,-2.7676,-2.8271,-2.894,-2.9339,-2.9794,-3.0418,-3.1015,-3.1612,-3.2218,-3.2218,-3.2218,-3.2218,-3.2218,-3.2218,-3.2218,-3.2218,-3.1829,-3.13,0.0,0.0,0.0,0.0,0.0,0.0,0.0,0.0,0.0,-3.2549,-3.2894,-3.3166,-3.5083,-3.5091,-3.4614,-3.5059,-3.54,-3.5576,-3.5255,-3.54,-3.564,-3.564,-3.5847,-3.5625,-3.4177,-3.3899,-3.3754,-3.3205,-3.3776,0.0,-3.4816,-3.5184,-3.5493,-3.5734,-3.6113,-3.6631,-3.7278,-3.7714,-3.8193,-3.88,-3.8668,-3.8544,-3.8544,-3.8359,-3.8202,-3.8202,-3.8069,-3.7802,-3.7433,-3.6743,-3.6045,-3.5361,-3.4534,-3.3906,-3.3571,-3.3232,-3.319,-3.3289,-3.213,-3.1402,-3.11,-3.0045,-2.9465,-2.9219,-2.8924,-2.8803,-2.8803,-2.8803,-2.8803,-2.8803,-2.8803,-2.8803,-2.8803,0.0,0.0,0.0,0.0,0.0,0.0,0.0,0.0,0.0,0.0,0.0,0.0,0.0,0.0,0.0,0.0,0.0,0.0,0.0,0.0,-2.3666,-2.3813,-2.5381,-2.6867,-2.8189,-2.8444,-2.8885,-2.9515,-2.957,-2.9876,-3.0513,-3.1097,-3.1653,-3.2218,-3.2218,-3.2218,-3.2218,-3.2218,-3.2218,-3.2218,-3.2218,-3.1789,-3.1219,-3.1219,0.0,0.0,0.0,0.0,0.0,0.0,0.0,0.0,-3.1747,-3.2114,-3.2378,-3.3816,-3.3725,-3.3213,-3.3283,-3.3802,-3.4143,-3.3457,-3.3788,-3.4293,-3.4269,-3.4802,-3.4902,-3.3577,-3.3732,-3.389,-3.3349,-3.3964,-3.4423,-3.4095,-3.4829,-3.5109,-3.4177,-3.5374,-3.6144,-3.5643,-3.6328,-3.6883,-3.6978,-3.7285,-3.7477,-3.7534,-3.7915,-3.8165,-3.8165,-3.8165,-3.7848,-3.7053,-3.6936,-3.6175,-3.4634,-3.4481,-3.3992,-3.3197,-3.3154,-3.3056,-3.2993,-3.2326,-3.1581,-3.0756,-3.0079,-2.9417,-2.8803,-2.8803,-2.8803,-2.8803,-2.8803,-2.8803,-2.8803,-2.8803,-2.8803,-2.8803,0.0,0.0,0.0,0.0,0.0,0.0,0.0,0.0,0.0,0.0,0.0,0.0,0.0,0.0,0.0,0.0,0.0,0.0,0.0,0.0,-2.4129,-2.5358,-2.671,-2.7451,-2.7425,-2.8045,-2.8727,-2.9515,-2.9971,-3.0513,-3.111,-3.1707,-3.2096,-3.2218,-3.2218,-3.2218,-3.2218,-3.2218,-3.2218,-3.2218,-3.2218,-3.1544,-3.0595,-3.0595,-2.9835,0.0,0.0,0.0,0.0,0.0,0.0,0.0,-3.0699,-3.1187,-3.1764,-3.3164,-3.3416,-3.3318,-3.3905,-3.4177,-3.4279,-3.4095,-3.4177,-3.4273,-3.4172,-3.4285,-3.4285,-3.398,-3.3914,-3.4031,-3.4353,-3.4595,-3.4866,-3.5262,-3.5478,-3.5559,-3.5357,-3.5641,-3.5924,-3.6172,-3.5983,-3.6136,-3.6936,-3.6658,-3.6626,-3.7106,-3.7495,-3.7725,-3.7725,-3.8014,-3.8127,-3.7924,-3.7246,-3.6741,-3.6373,-3.5073,-3.4314,0.0,-3.3411,-3.283,-3.2373,-3.2099,-3.1258,-3.0034,-2.9852,-2.9417,-2.8803,-2.8803,-2.8803,-2.8803,-2.8803,-2.8803,-2.8803,-2.8803,-2.8803,-2.8896,0.0,0.0,0.0,0.0,0.0,0.0,0.0,0.0,0.0,0.0,0.0,0.0,0.0,0.0,0.0,0.0,0.0,0.0,0.0,0.0,-2.4034,-2.565,-2.6458,-2.7069,-2.763,-2.8438,-2.916,-2.9801,-3.0492,-3.0988,-3.13,-3.1897,-3.2218,-3.2218,-3.2218,-3.2218,-3.2218,-3.2218,-3.2218,-3.2218,-3.2218,-3.1477,-3.0405,-3.0405,-2.9659,-2.8587,-2.8587,0.0,0.0,0.0,0.0,0.0,0.0,0.0,-3.1453,-3.2176,-3.2556,-3.2797,-3.3171,-3.3276,-3.3276,-3.3276,-3.3541,-3.3766,-3.3631,-3.4102,-3.4505,-3.444,-3.4405,-3.4423,-3.4734,-3.5032,-3.5317,-3.5669,-3.571,-3.5615,-3.529,-3.5533,-3.5695,-3.5622,-3.5593,-3.5807,-3.6322,-3.6323,-3.6384,-3.6705,-3.707,-3.7175,-3.6916,-3.7266,-3.7362,-3.7059,-3.6771,-3.6391,-3.5985,-3.4775,-3.3966,-3.352,-3.267,-3.2114,-3.1825,-3.1725,-3.1113,-3.0007,-2.9723,-2.9203,-2.8555,-2.8194,-2.8058,-2.8058,-2.8058,-2.8211,-2.8453,-2.8819,-2.909,-2.9371,0.0,0.0,0.0,0.0,0.0,0.0,0.0,0.0,0.0,0.0,0.0,0.0,0.0,0.0,0.0,0.0,0.0,0.0,0.0,0.0,0.0,-2.5415,-2.5777,-2.6679,-2.8193,-2.9026,-2.972,-3.025,-3.0972,-3.1341,-3.1463,-3.1951,-3.2218,-3.2218,-3.2218,-3.2218,-3.2218,-3.2218,-3.2218,-3.2218,-3.2218,-3.1531,-3.0554,-3.0446,-2.9713,-2.8736,-2.8627,-2.8587,-2.8587,-2.8587,0.0,0.0,0.0,0.0,-3.1146,-3.1149,-3.1639,-3.2218,-3.2218,-3.2218,-3.2218,-3.2218,-3.2596,-3.3056,-3.31,-3.3904,-3.4719,-3.4796,-3.487,-3.4951,-3.4951,-3.5344,-3.571,-3.571,-3.571,-3.5547,-3.5019,-3.5371,-3.5533,-3.4992,-3.5276,-3.5601,-3.571,-3.5963,-3.6162,-3.6272,0.0,-3.669,-3.6185,-3.6538,-3.6536,-3.6023,-3.6172,-3.5941,-3.531,-3.4314,-3.3468,-3.2804,-3.1771,-3.1248,-3.1248,-3.116,-3.0819,-3.0276,-2.967,-2.8958,-2.8236,-2.758,-2.7315,-2.7315,-2.7315,-2.76,-2.8141,-2.8756,-2.9363,-2.9953,0.0,0.0,0.0,0.0,0.0,0.0,0.0,0.0,0.0,0.0,0.0,0.0,0.0,0.0,0.0,0.0,0.0,0.0,-2.3001,0.0,0.0,-2.5451,-2.6205,-2.728,-2.8758,-2.9074,-2.9766,-3.0895,-3.114,-3.1558,-3.2096,-3.2178,-3.2218,-3.2218,-3.2218,-3.2218,-3.2218,-3.2218,-3.2218,-3.2218,-3.2218,-3.1775,-3.111,-3.0608,-2.9971,-2.9325,-2.8777,-2.8587,-2.8587,-2.8587,-2.8651,0.0,0.0,0.0,-3.0521,-3.05,-3.1314,-3.2218,-3.2218,-3.2218,-3.2218,-3.2218,-3.2277,-3.2464,-3.3003,-3.323,-3.3636,0.0,-3.5209,-3.5601,-3.5601,-3.5669,-3.571,-3.571,-3.571,-3.5683,-3.5601,-3.5669,-3.5683,-3.5601,-3.5181,-3.5114,-3.5669,-3.5288,-3.5246,-3.5763,-3.6218,-3.6429,-3.636,-3.6763,-3.6901,-3.6856,-3.6372,-3.624,-3.6465,-3.4432,-3.3482,-3.37,-3.1666,-3.0721,-3.0708,-3.0231,-3.0136,-3.0276,-2.967,-2.8958,-2.8236,-2.758,-2.7315,-2.7315,-2.7315,-2.7701,-2.8282,-2.837,-2.9102,-3.0188,0.0,0.0,0.0,0.0,0.0,0.0,0.0,0.0,0.0,0.0,0.0,0.0,0.0,0.0,0.0,-2.259,-2.2852,-2.3001,-2.3001,-2.3313,-2.4084,-2.5451,-2.6154,-2.7294,-2.8911,-2.977,-3.0478,-3.0989,-3.1447,-3.1816,-3.2218,-3.2073,-3.2109,-3.2218,-3.2218,-3.2218,-3.2218,-3.2218,-3.2218,-3.2218,-3.2218,-3.1829,-3.126,-3.1015,-3.031,-2.9475,-2.9217,-2.8872,-2.8587,-2.8587,-2.8587,-2.8587,-2.8587,0.0,0.0,0.0,-3.1246,-3.2218,-3.2218,-3.2218,-3.2218,-3.2218,-3.2218,-3.2368,-3.2966,-3.3101,-3.3346,-3.4124,-3.4504,-3.4897,-3.5601,-3.571,-3.571,-3.571,-3.571,-3.571,-3.571,-3.571,-3.571,-3.571,-3.5493,-3.5385,-3.5683,-3.5479,-3.5385,0.0,-3.5884,-3.5868,-3.5526,-3.5892,-3.5958,-3.5624,-3.5549,-3.5634,-3.5783,-3.4347,-3.3244,-3.2422,-3.0905,-3.0156,-3.0143,-2.9905,-2.9886,-2.9992,-2.9334,-2.8669,-2.8006,-2.7702,-2.7389,-2.7115,-2.7462,-2.7927,-2.8476,-2.8897,-2.9479,-3.0179,0.0,0.0,0.0,0.0,0.0,0.0,0.0,0.0,0.0,0.0,0.0,0.0,0.0,0.0,0.0,0.0,-2.3001,-2.3056,-2.3176,-2.3187,-2.388,-2.5469,-2.6227,-2.7351,-2.8991,-3.025,-3.0998,-3.1169,-3.1662,-3.1963,-3.2109,-3.2036,-3.2073,-3.2218,-3.2218,-3.2218,-3.2218,-3.2218,-3.2218,-3.2218,-3.2218,-3.1911,-3.1504,-3.1355,-3.073,-2.995,-2.9767,-2.9333,-2.8817,-2.8817,-2.8722,-2.8587,-2.8587,-2.9428,0.0,0.0,0.0,-3.2218,-3.2218,-3.2218,-3.2218,-3.2218,-3.2218,-3.2327,0.0,0.0,-3.3047,0.0,-3.3691,-3.4002,-3.5032,-3.5358,-3.5533,-3.5696,-3.571,-3.571,-3.571,-3.571,-3.571,-3.571,-3.571,-3.571,-3.571,-3.571,-3.571,0.0,-3.571,-3.552,-3.5032,-3.5321,-3.5272,-3.4832,-3.4934,-3.5077,-3.5204,-3.4164,-3.2867,-3.1392,-3.0552,-3.0088,-3.0036,-3.0088,-3.0052,-2.9863,-2.9101,-2.8514,-2.8051,-2.7891,-2.7539,-2.7156,-2.7609,-2.8127,-2.8644,-2.9145,-2.9658,-3.0221,0.0,0.0,0.0,0.0,0.0,0.0,0.0,0.0,0.0,0.0,0.0,0.0,-2.2101,-2.2628,-2.2964,-2.3001,-2.3001,-2.3198,-2.3618,-2.3651,-2.4232,-2.5539,-2.6615,0.0,-2.9073,-3.0168,-3.1019,-3.1556,-3.1803,-3.189,-3.1927,-3.2109,-3.2182,-3.2218,-3.2218,-3.2218,-3.2218,-3.2218,-3.2218,-3.2218,-3.2218,-3.2191,-3.211,-3.1504,-3.126,-3.1124,-3.0568,-2.9957,-2.9461,-2.9461,-2.9081,-2.8587,-2.8587,-2.9428,-3.0405,0.0,0.0,0.0,-3.2218,-3.2218,-3.2218,-3.2218,-3.2218,-3.2218,0.0,0.0,-3.2436,-3.302,-3.3142,-3.3308,-3.388,-3.4463,-3.5019,-3.5628,-3.571,-3.571,-3.571,-3.571,-3.571,-3.571,-3.571,-3.571,-3.571,-3.571,-3.571,-3.571,-3.571,-3.571,-3.5669,-3.5669,-3.5655,-3.5628,-3.5112,-3.5022,-3.5372,-3.3788,-3.2501,-3.1648,-3.1242,-3.0914,-3.0655,-3.0914,-3.0711,-3.0124,-2.9209,-2.8791,-2.8712,-2.8051,-2.777,-2.777,-2.781,-2.8195,-2.8761,-2.8626,-2.9285,-3.0347,0.0,0.0,0.0,0.0,0.0,0.0,0.0,0.0,0.0,0.0,0.0,0.0,0.0,-2.2852,-2.3001,-2.3001,-2.3798,-2.4265,-2.422,-2.5214,-2.5995,-2.6422,-2.7678,-2.886,-2.9902,-3.0684,-3.1259,-3.1609,-3.1683,-3.172,-3.172,-3.189,-3.2,-3.2,-3.2146,-3.2218,-3.2218,-3.2218,-3.2218,-3.2218,-3.2218,-3.2218,-3.2191,-3.1938,-3.1626,-3.126,-3.1056,-3.0581,-3.0079,-3.0079,-2.993,-2.9767,-2.9767,-3.0323,-3.1042,-3.1436,-3.1843,-3.2218,-3.2218,-3.2218,-3.2218,-3.2218,-3.2218,-3.2218,-3.2218,-3.2218,-3.2273,-3.249,-3.2531,-3.2707,-3.3268,-3.3826,-3.4423,-3.5005,-3.51,-3.5249,-3.5669,-3.571,-3.571,-3.571,-3.571,-3.571,-3.571,-3.571,-3.571,-3.571,0.0,-3.571,-3.571,-3.571,-3.571,-3.571,-3.5506,-3.5438,-3.5597,-3.4339,-3.3356,-3.2628,-3.1876,-3.1223,-3.0699,-3.0794,-3.0725,-3.0503,-2.9948,-2.9346,-2.8791,-2.9013,-2.8843,-2.8462,-2.8922,-2.9209,-2.9417,-2.917,-2.9293,-2.9579,0.0,0.0,0.0,0.0,0.0,0.0,0.0,0.0,0.0,-2.3001,0.0,0.0,0.0,0.0,-2.3847,-2.4314,-2.5145,-2.5637,-2.5599,-2.6606,-2.7288,-2.7392,-2.8648,-2.9641,-3.0348,-3.084,-3.1309,-3.172,-3.1433,-3.1409,-3.1609,-3.1817,-3.189,-3.189,-3.2109,-3.2218,-3.2218,-3.2218,-3.2218,-3.2218,-3.2218,-3.2218,-3.2218,-3.2218,-3.1938,-3.1585,-3.1585,-3.1205,-3.0703,-3.0703,-3.0581,-3.0405,-3.0405,-3.0812,-3.1409,-3.2042,-3.2218,-3.2218,-3.2218,-3.2218,-3.2218,-3.2218,-3.2218,-3.2218,-3.2218,-3.2218,-3.2218,-3.2218,-3.2218,-3.2327,-3.2721,-3.3091,-3.3569,-3.4368,-3.4504,-3.4639,-3.5032,-3.5249,-3.5385,-3.5385,-3.5601,-3.571,-3.571,-3.571,-3.571,0.0,0.0,0.0,-3.571,-3.571,-3.571,-3.571,-3.571,-3.571,-3.571,-3.4821,-3.4054,-3.3356,-3.2517,-3.1772,-3.104,-3.1125,-3.1027,-3.0873,-3.063,-3.0052,-2.9285,-2.966,-2.9546,-2.917,-2.9624,-2.9792,-2.9753,-2.9404,-2.9197,-2.9126,0.0,0.0,0.0,0.0,0.0,0.0,0.0,0.0,-2.3001,-2.3001,0.0,0.0,0.0,0.0,0.0,-2.6926,-2.7049,-2.7267,-2.7698,-2.7772,-2.8002,-2.8402,-2.9447,-3.0114,-3.033,-3.0595,-3.1082,-3.189,-3.1118,-3.1023,-3.1609,-3.178,-3.189,-3.189,-3.2109,-3.2218,-3.2218,-3.2218,-3.2218,-3.2218,-3.2218,-3.2218,-3.2218,-3.2218,-3.2218,-3.2218,-3.2218,-3.1802,-3.1327,-3.1327,-3.0934,-3.0459,-3.0459,-3.0866,-3.1436,-3.2042,-3.2205,-3.2191,0.0,0.0,0.0,-3.2218,-3.2218,0.0,-3.2218,0.0,-3.2218,-3.2218,-3.2218,-3.2218,-3.2218,-3.2218,-3.2548,-3.3664,-3.3867,-3.3894,-3.3908,-3.4395,-3.4761,-3.4761,-3.529,-3.5683,-3.5683,-3.571,-3.571,0.0,-3.571,-3.571,-3.571,-3.571,-3.571,-3.571,-3.571,-3.571,-3.571,-3.5046,-3.4384,-3.367,-3.3245,-3.2568,-3.1717,-3.1893,-3.1702,-3.1217,-3.1204,-3.0837,-3.0198,-2.9913,-2.9817,-2.9817,-2.9804,-2.9792,-2.9702,-2.9248,-2.9091,-2.9086,0.0,0.0,0.0,0.0,0.0,0.0,-2.3001,-2.3001,-2.3001,0.0,0.0,0.0,-2.4434,-2.563,-2.675,-2.7444,-2.8074,-2.8384,-2.8213,-2.9389,-2.9859,-2.9381,-3.0216,-3.0735,-3.0823,-3.0891,-3.1016,-3.1248,-3.1188,-3.1225,-3.1397,-3.1743,-3.189,-3.189,-3.2109,-3.2218,-3.2218,-3.2218,-3.2218,-3.2218,-3.2218,-3.2218,-3.2218,-3.2218,-3.2218,-3.2218,-3.2218,-3.211,-3.1938,-3.1938,-3.1829,-3.168,-3.168,-3.1802,-3.2001,-3.2164,-3.187,-3.1626,-3.2096,0.0,0.0,0.0,0.0,0.0,0.0,0.0,-3.2218,-3.2218,-3.2218,-3.2218,-3.2218,-3.2218,-3.2291,-3.2616,-3.3023,-3.3457,-3.3853,-3.4043,-3.4151,-3.4151,-3.468,-3.5032,-3.5032,-3.5425,0.0,0.0,-3.571,-3.571,-3.571,-3.571,-3.571,-3.571,-3.571,-3.571,-3.571,-3.5507,-3.484,-3.3713,-3.3586,-3.2859,-3.1705,-3.1761,-3.1721,-3.1564,-3.1319,-3.1107,-3.088,-3.0154,-2.988,-2.9843,-2.9448,-2.93,-2.9248,-2.8961,-2.8882,-2.8867,0.0,0.0,0.0,0.0,0.0,-2.3001,-2.3001,-2.3453,-2.3847,0.0,0.0,0.0,-2.662,-2.7383,-2.8163,-2.9012,-2.953,-2.9745,-2.9485,-3.0419,-3.0785,-3.0266,-3.0748,-3.1061,-3.1123,-3.09,-3.0961,-3.1373,-3.1146,-3.1219,-3.1545,-3.178,-3.189,-3.189,-3.2109,-3.2218,-3.2218,-3.2218,-3.2218,-3.2218,-3.2218,-3.2218,-3.2218,-3.2218,-3.2218,-3.2218,-3.2218,-3.2218,-3.2218,-3.2218,-3.2218,-3.2218,-3.2218,-3.2218,-3.2164,-3.1884,-3.1572,-3.1314,-3.1409,-3.1192,-3.1015,-3.1355,0.0,0.0,-3.1802,-3.2042,-3.2218,0.0,-3.2218,-3.2218,-3.2218,-3.2218,-3.2218,-3.2218,-3.2504,-3.2806,-3.3159,-3.3417,-3.358,-3.358,-3.4057,-3.4423,-3.4423,-3.4734,-3.4938,-3.4938,-3.4938,-3.5046,-3.529,-3.5574,-3.571,-3.571,-3.571,-3.571,-3.571,-3.571,-3.5018,-3.3713,-3.3713,-3.2988,-3.1705,-3.1705,-3.1705,-3.1693,-3.1467,-3.139,-3.1361,-3.0639,-3.0143,-2.9865,-2.9558,-2.9288,-2.9091,-2.8882,-2.8791,-2.8764,0.0,0.0,-2.3001,-2.3001,-2.3045,-2.3078,-2.3078,-2.4224,-2.5093,0.0,-2.6324,-2.7717,-2.91,-2.9226,-2.9717,-3.0897,-3.0986,-3.0986,-3.0986,-3.0986,-3.1024,-3.1024,-3.1024,-3.1136,-3.131,-3.0808,-3.099,-3.1853,-3.1122,-3.1135,-3.1853,-3.1853,-3.189,-3.189,-3.2109,-3.2218,-3.2218,-3.2218,-3.2218,-3.2218,-3.2218,-3.2218,-3.2218,-3.2218,-3.2218,-3.2218,-3.2218,-3.2218,-3.2218,-3.2277,-3.2241,-3.2205,-3.2277,-3.2241,-3.2096,-3.1477,-3.1246,-3.1083,-3.0554,-3.0364,-3.0323,-3.0391,-3.0798,0.0,-3.1192,-3.1612,-3.2015,0.0,-3.2069,-3.211,-3.211,-3.2164,-3.2218,-3.2218,-3.2218,-3.2218,-3.2218,-3.2667,-3.3006,-3.3006,-3.3485,-3.3813,-3.3813,-3.388,-3.3908,-3.3908,-3.3908,-3.4138,-3.4666,-3.5195,-3.552,-3.552,-3.5588,-3.5615,-3.5615,-3.5683,-3.5018,-3.3713,-3.3713,-3.2988,-3.1705,-3.1705,-3.1705,-3.1705,-3.1705,-3.1705,-3.1669,-3.1139,-3.0567,-2.998,-2.9857,-2.9527,-2.9098,-2.8867,-2.8764,-2.8724,0.0,-2.3001,-2.3001,-2.3001,-2.3329,-2.3553,-2.3553,-2.4705,-2.5559,-2.5559,-2.7353,-2.9113,-3.0464,-3.0616,-3.0706,-3.0973,-3.0986,-3.0986,-3.0986,-3.0986,-3.1061,-3.1235,-3.1235,-3.1323,-3.1522,-3.1415,-3.1452,-3.1683,-3.1352,-3.1365,-3.1683,-3.1683,-3.1743,-3.189,-3.2109,-3.2218,-3.2218,-3.2218,-3.2218,-3.2218,-3.2218,-3.2218,-3.2218,-3.2218,-3.2218,-3.2218,-3.2218,-3.2218,-3.2277,-3.2832,-3.2632,-3.2277,-3.2832,-3.2632,-3.2096,-3.1477,-3.0961,-3.0554,-3.0446,-3.0052,-2.9781,-3.0283,-3.05,0.0,-3.0581,-3.0676,-3.0758,0.0,-3.1137,-3.1477,-3.1477,-3.1857,-3.2218,-3.2218,-3.2218,-3.2218,-3.2218,-3.2314,-3.2395,-3.2395,-3.2911,-3.3278,-3.3278,-3.3661,-3.3908,-3.3908,-3.3908,-3.3962,-3.407,-3.4192,-3.4246,-3.4246,-3.4707,-3.4965,-3.4965,-3.5479,-3.5018,-3.3713,-3.3713,-3.2988,-3.1705,-3.1705,-3.1705,-3.1705,-3.1705,-3.1705,-3.1669,-3.1139,-3.0845,-3.061,-2.9753,-2.9354,-2.9209,-2.8747,-2.8538,-2.855,-2.3001,-2.3198,-2.3512,-2.3903,-2.4392,-2.4833,-2.5279,-2.6496,-2.7362,-2.7362,-2.8913,-3.0261,-3.0923,-3.0986,-3.0986,-3.0986,-3.0986,-3.0986,-3.0986,-3.0986,-3.1061,-3.1161,-3.1161,-3.1211,-3.1299,-3.1299,-3.1373,-3.1434,-3.136,-3.1471,-3.1743,-3.1743,-3.2059,-3.2525,-3.23,-3.2372,-3.2704,-3.2704,-3.2704,-3.2668,-3.2336,-3.2218,-3.2255,-3.2561,-3.2704,-3.2739,-3.3115,-3.3009,-3.2704,-3.2704,-3.248,-3.2241,-3.261,-3.248,-3.2042,-3.111,-3.0649,-3.0283,-2.9672,-2.9279,-2.9102,-2.9428,-2.9726,0.0,0.0,-3.0188,-3.0405,-3.0405,-3.0649,-3.0853,-3.0853,-3.1097,-3.13,-3.13,-3.13,-3.13,-3.13,-3.1802,-3.2218,-3.2218,-3.2477,-3.2653,-3.2653,-3.2888,-3.3064,-3.3064,-3.3335,-3.3498,-3.3498,-3.3745,-3.3908,-3.3908,-3.4192,-3.4355,-3.4355,-3.4938,-3.4566,-3.3235,-3.3572,-3.2988,-3.1705,-3.1705,-3.1705,-3.1693,-3.1428,-3.1308,-3.1271,-3.0699,-3.0482,-3.0398,-2.9605,-2.9136,-2.8871,-2.8607,-2.851,-2.851,-2.3787,-2.4073,-2.457,-2.5263,-2.5768,-2.6335,-2.7019,-2.8262,-2.9189,-2.9339,-3.0337,-3.0986,-3.0986,-3.0986,-3.0986,-3.0986,-3.0986,-3.0986,-3.0986,-3.0986,-3.1024,-3.1061,-3.1061,-3.1061,-3.1099,-3.1136,-3.1248,-3.1421,-3.1421,-3.1582,-3.189,-3.189,-3.23,-3.2925,-3.2574,-3.2704,-3.3213,-3.3353,-3.3422,-3.3353,-3.281,-3.261,-3.2646,-3.3206,-3.3422,-3.3492,-3.4109,-3.3939,-3.3332,-3.2775,-3.2516,-3.2372,-3.2372,-3.2314,-3.1938,-3.0758,-3.0405,-3.0147,-2.8926,-2.8587,-2.8587,-2.8587,-2.8953,-2.9339,0.0,0.0,0.0,-3.0052,0.0,0.0,0.0,0.0,0.0,0.0,0.0,0.0,0.0,-3.1232,0.0,-3.1829,-3.1829,-3.1829,-3.1829,-3.1938,-3.2001,-3.1843,-3.2422,-3.2707,-3.2599,-3.301,-3.323,-3.323,-3.3447,-3.3569,-3.3569,-3.4273,-3.402,-3.2787,-3.3213,-3.2724,-3.1548,-3.1452,-3.1404,-3.138,-3.0946,-3.0766,-3.0687,-3.0158,-2.9941,-2.9893,-2.946,-2.9039,-2.8655,-2.8546,-2.851,-2.851,-2.6545,-2.6593,-2.6666,-2.6741,-2.7162,-2.7498,-2.7625,-2.8742,-2.9885,-3.0681,-3.091,-3.0986,-3.0986,-3.0986,-3.0986,-3.0986,-3.0986,-3.0986,-3.0986,-3.0986,-3.1099,-3.1272,-3.1272,-3.136,-3.1535,-3.1706,-3.1817,-3.1817,-3.1817,-3.1853,-3.189,-3.189,-3.1963,-3.2096,-3.2797,-3.3122,-3.3248,-3.3905,-3.4177,-3.4177,-3.4075,-3.4075,0.0,-3.4143,-3.4177,-3.4211,-3.4279,-3.4245,-3.4177,0.0,-3.363,-3.3087,0.0,-3.2668,-3.1938,-3.0758,-3.0405,-3.0147,-2.8926,-2.8587,-2.8587,0.0,-2.8641,-2.8695,0.0,0.0,-2.8804,-2.8804,0.0,0.0,-2.9611,0.0,0.0,0.0,0.0,0.0,-3.0405,-3.0527,-3.0608,-3.0608,-3.0608,-3.0608,-3.0608,-3.1083,-3.1178,-3.0649,-3.1151,-3.126,-3.0744,-3.0771,-3.0812,-3.0812,-3.1829,-3.2386,-3.2386,-3.3447,-3.3621,-3.2787,-3.2393,-3.1772,-3.0995,-3.0482,-3.0266,-3.0266,-3.0206,-3.017,-3.0134,-2.9605,-2.9388,-2.9388,-2.9316,-2.9256,-2.9148,-2.8691,-2.851,-2.851,-2.7221,-2.7217,-2.7586,-2.8076,-2.8559,-2.9033,-2.9555,-3.01,-3.0583,-3.0949,-3.0986,-3.0986,-3.0986,-3.0986,-3.0986,-3.0986,-3.0986,-3.0986,-3.0986,-3.0986,-3.1061,-3.1123,-3.1123,-3.1174,-3.1261,-3.1323,-3.136,-3.136,-3.136,-3.1582,-3.2009,-3.1817,-3.2191,-3.3009,-3.3122,-3.3422,-3.3905,-3.4614,-3.496,0.0,0.0,-3.5576,0.0,-3.5091,-3.519,-3.5529,-3.5091,-3.496,-3.4861,0.0,-3.3802,0.0,0.0,0.0,0.0,-3.1281,-3.0733,-3.0147,-2.8926,0.0,0.0,0.0,0.0,0.0,-2.8683,0.0,-2.8587,0.0,0.0,0.0,0.0,0.0,0.0,0.0,-2.936,0.0,0.0,0.0,-2.9618,0.0,0.0,0.0,-3.0405,0.0,0.0,-3.0432,-3.0635,-3.0676,-3.0418,-3.0405,-3.0405,-3.0405,-3.0893,-3.1151,-3.1151,-3.1992,-3.1865,-3.0816,-3.1277,-3.0969,-2.9965,-3.005,-3.0086,-3.0074,-2.9761,-2.9629,-2.9593,-2.9063,-2.8847,-2.8847,-2.8847,-2.8847,-2.8823,-2.8595,-2.851,-2.851,-2.8337,-2.8373,-2.8785,-2.9453,-2.9834,-3.0266,-3.0898,-3.0986,-3.0986,-3.0986,-3.0986,-3.0986,-3.0986,-3.0986,-3.0986,-3.0986,-3.0986,-3.1061,-3.1198,-3.1099,-3.1123,-3.1445,-3.1161,-3.1061,-3.1235,-3.1123,-3.1198,-3.1482,-3.1421,-3.1836,-3.2712,-3.2345,-3.2832,-3.3919,-3.3837,-3.4109,-3.4647,0.0,-3.5705,-3.5737,-3.6289,-3.6492,-3.6445,-3.5911,-3.6038,-3.6429,-3.5911,-3.5705,-3.5593,-3.4846,-3.4245,0.0,-3.4197,-3.3462,-3.2388,0.0,-3.125,-3.0392,-2.9169,0.0,0.0,0.0,0.0,0.0,0.0,0.0,0.0,0.0,0.0,0.0,0.0,0.0,-2.8587,-2.8587,0.0,-2.8587,0.0,-2.8587,0.0,0.0,0.0,0.0,0.0,0.0,-3.0079,-2.993,-3.0066,-3.0079,-2.993,-2.9916,-2.9916,-2.9916,-3.0066,-3.0161,-3.0161,-3.0744,-3.0579,-2.9658,-3.0163,-3.0018,-2.9278,-2.941,-2.952,-2.9629,-2.9256,-2.9088,-2.9051,-2.8667,-2.851,-2.851,-2.851,-2.851,-2.851,-2.851,-2.851,-2.851,-3.0897,-3.0859,-3.091,-3.0923,-3.0936,-3.0986,-3.0986,-3.0986,-3.0986,-3.0986,-3.0986,-3.0986,-3.0986,-3.0986,-3.0986,-3.0986,-3.0986,-3.1235,-3.174,-3.1272,-3.1482,-3.2596,-3.1593,-3.1235,-3.1776,-3.1445,-3.174,-3.2668,-3.2453,-3.2995,-3.4211,-3.3885,-3.3919,-3.4312,-3.5026,-3.5335,-3.54,-3.6148,-3.646,-3.646,-3.6492,-3.6492,-3.6492,0.0,-3.6492,-3.6492,-3.646,0.0,0.0,-3.5608,-3.5367,0.0,0.0,0.0,0.0,0.0,0.0,0.0,0.0,0.0,0.0,-2.8734,0.0,0.0,0.0,0.0,-2.8587,0.0,0.0,0.0,0.0,-2.8587,-2.8587,-2.8587,-2.8587,0.0,0.0,0.0,0.0,0.0,0.0,0.0,0.0,-2.9203,-2.9298,-2.8695,-2.9217,-2.9252,-2.8682,-2.8655,-2.8655,-2.8655,-2.9211,-2.9543,-2.9543,-3.012,-3.0368,-3.027,-2.9202,-2.8898,-2.9287,-2.8251,-2.8077,-2.8558,-2.8546,-2.8534,-2.8534,-2.8522,-2.851,-2.851,-2.851,-2.851,-2.851,-2.851,-2.851,-2.851,-3.0986,-3.0986,-3.0986,-3.0986,-3.0986,-3.0986,-3.0986,-3.0986,-3.0986,-3.0986,-3.0986,-3.0986,-3.0986,-3.0986,-3.0986,-3.0986,-3.131,-3.1593,-3.1776,-3.1629,-3.1873,-3.2668,-3.1593,-3.1235,-3.1776,-3.1703,-3.1776,-3.2092,-3.2453,-3.3009,-3.3845,-3.3465,-3.3534,-3.3982,-3.4743,-3.5073,0.0,0.0,0.0,0.0,0.0,-3.6492,-3.6492,0.0,-3.6492,-3.6492,-3.6492,-3.6492,0.0,-3.6211,-3.58,-3.5357,-3.516,-3.4273,-3.3184,-3.2637,-3.1951,0.0,0.0,0.0,-3.0659,-3.0009,0.0,0.0,0.0,0.0,0.0,0.0,0.0,0.0,0.0,-2.8587,-2.8587,-2.8587,-2.8587,-2.8587,0.0,0.0,0.0,0.0,0.0,0.0,0.0,0.0,0.0,-2.8614,-2.8777,-2.8804,-2.86,-2.8587,-2.8587,-2.8587,-2.879,-2.8885,-2.8885,-2.9102,-2.9026,-2.8639,-2.8256,-2.8138,-2.8237,-2.7863,-2.7978,-2.851,-2.851,-2.851,-2.851,-2.851,-2.851,-2.851,-2.851,-2.851,-2.851,-2.851,-2.851,-2.851,-3.0986,-3.0986,-3.0986,-3.0986,-3.0986,-3.0986,-3.0986,-3.0986,-3.0986,-3.0986,-3.0986,-3.1061,-3.1272,-3.1272,-3.1384,-3.1593,-3.1909,-3.2128,-3.2128,-3.2128,-3.2381,-3.2988,-3.2092,-3.1873,-3.2417,-3.2237,-3.2295,-3.2618,-3.2868,-3.343,-3.4221,-3.3845,-3.3997,-3.4606,-3.5088,-3.535,-3.5512,-3.6226,-3.6492,0.0,0.0,-3.6492,0.0,0.0,-3.6492,-3.6492,0.0,-3.6492,-3.6492,-3.6492,-3.6027,-3.544,-3.5493,-3.4515,-3.3283,-3.2915,-3.2302,-3.1634,-3.1014,-3.1175,0.0,-3.0673,-3.0494,0.0,-3.0494,0.0,-2.9404,0.0,0.0,0.0,0.0,-2.9293,-2.9198,-2.8976,-2.8912,-2.8849,0.0,-2.8587,0.0,0.0,0.0,-2.8587,0.0,-2.8587,-2.8587,-2.8587,-2.8587,-2.8587,-2.8587,0.0,-2.8587,-2.8587,-2.8587,-2.8587,-2.8587,-2.8587,-2.8425,-2.8085,-2.7707,-2.7596,-2.7736,-2.7528,-2.769,-2.8246,-2.8426,-2.851,-2.851,-2.851,-2.851,-2.851,-2.851,-2.851,-2.851,-2.851,-2.851,-2.851,-3.0986,-3.0986,-3.0986,-3.0986,-3.0986,0.0,0.0,0.0,-3.0986,-3.0986,-3.1024,-3.1235,-3.174,-3.185,-3.2092,-3.2668,-3.2739,-3.2739,-3.2739,-3.2739,-3.3023,-3.3632,-3.3058,-3.2988,-3.3597,-3.3058,-3.3185,-3.4085,-3.3791,-3.4221,-3.5335,-3.5004,-3.5264,-3.5941,-3.5973,0.0,-3.6492,-3.6492,-3.6492,-3.6492,-3.6492,-3.6492,-3.6492,-3.6492,-3.6492,-3.6492,-3.6492,-3.6492,-3.6492,-3.6445,-3.6014,-3.5506,-3.5429,-3.4475,-3.3398,-3.3367,-3.2906,-3.2272,-3.1709,-3.1537,-3.1393,-3.0763,-3.0584,0.0,0.0,0.0,-3.0524,0.0,0.0,0.0,0.0,0.0,-3.0269,-2.9597,-2.9473,-2.9251,-2.8683,-2.8587,-2.8587,-2.8587,-2.8587,-2.8587,-2.8587,-2.8587,-2.8587,-2.8587,-2.8587,-2.8587,0.0,0.0,-2.8587,-2.8587,-2.8587,-2.8587,-2.8587,-2.8587,-2.8587,-2.8587,-2.7543,-2.7336,-2.7831,-2.7262,-2.7262,-2.7792,-2.8321,-2.851,-2.851,-2.851,-2.851,-2.855,-2.851,-2.851,-2.851,-2.851,-2.851,-2.851,-3.0986,-3.0986,-3.0986,-3.0986,-3.0986,-3.0986,0.0,0.0,0.0,0.0,-3.1347,-3.1666,-3.1776,-3.22,-3.2525,-3.2704,-3.3094,-3.3374,-3.3374,-3.3374,-3.3632,-3.4162,-3.3234,-3.2988,-3.3597,-3.3444,-3.3479,-3.3722,-3.4045,-3.4366,-3.4654,-3.4568,-3.4769,-3.5184,-3.5447,-3.5784,-3.6132,-3.6398,-3.6492,-3.6492,-3.6492,-3.6492,-3.6492,0.0,-3.6492,-3.6492,-3.6492,-3.6492,-3.6415,-3.5907,-3.566,-3.5337,-3.426,-3.369,-3.3306,-3.2798,-3.2521,-3.237,-3.2216,-3.216,-3.2132,-3.1964,-3.1595,-3.1349,0.0,0.0,0.0,0.0,0.0,0.0,0.0,0.0,0.0,-2.9597,-2.9139,-2.8798,-2.8619,-2.8587,0.0,-2.8587,-2.8587,-2.8587,-2.8587,-2.8587,-2.8587,-2.8587,-2.8587,-2.8587,-2.8587,0.0,0.0,-2.8587,-2.8587,-2.8587,-2.8587,-2.8587,-2.8587,-2.8587,-2.7921,-2.7878,-2.8386,-2.8216,-2.8201,-2.8344,-2.8924,-2.8922,-2.851,-2.851,-2.8776,-2.9106,-2.8657,-2.851,-2.851,-2.851,-2.851,-2.851,-3.0986,-3.0986,-3.0986,-3.0986,0.0,0.0,-3.0986,-3.0986,0.0,-3.0986,-3.1482,0.0,-3.2164,-3.2974,-3.3592,-3.3854,-3.4184,-3.4274,-3.3994,-3.3962,-3.3991,-3.4059,-3.3667,-3.3597,-3.3942,-3.3942,-3.3942,-3.3942,-3.423,-3.4414,-3.4414,-3.4414,-3.4668,-3.5136,-3.5317,-3.5608,-3.6005,-3.6195,-3.6367,-3.6492,-3.6492,-3.6492,0.0,-3.6492,-3.6307,-3.6045,-3.6045,-3.6045,-3.603,-3.5645,-3.5076,-3.4429,-3.3644,-3.3198,-3.289,-3.2505,-3.2398,-3.2398,-3.2398,-3.2398,-3.2398,-3.2398,-3.2132,-3.1992,-3.2327,-3.1836,-3.1436,0.0,-3.158,-3.1334,0.0,0.0,0.0,-3.0495,-2.9842,-2.9435,-2.9435,-2.9435,0.0,0.0,-2.8994,0.0,-2.8619,-2.8587,-2.8587,-2.8587,-2.8587,-2.8587,0.0,0.0,0.0,-2.8587,-2.8587,-2.8587,-2.8587,-2.8587,-2.8587,-2.8587,-2.8052,-2.7947,-2.8257,-2.8234,-2.8371,-2.8574,-2.9164,-2.9349,-2.9302,-2.9302,-2.9496,-2.9716,-2.9118,-2.8882,-2.8858,-2.8587,-2.8503,-2.855,-3.0986,-3.0986,-3.0986,0.0,0.0,0.0,0.0,-3.1099,0.0,-3.1099,0.0,-3.2386,-3.301,-3.4072,-3.496,-3.5604,-3.5566,-3.5299,-3.479,-3.4603,-3.4326,-3.3864,-3.4205,-3.4414,-3.4414,-3.4414,-3.4414,-3.4414,-3.4414,-3.4414,-3.4414,-3.4414,-3.4721,-3.5335,-3.5335,0.0,0.0,-3.5973,-3.6163,-3.6429,-3.6429,-3.6399,-3.6368,-3.643,-3.5984,-3.5383,-3.5475,-3.5444,-3.5367,-3.5275,-3.4398,-3.3383,-3.3306,-3.2875,-3.2398,-3.2398,-3.2398,-3.2398,-3.2398,-3.2398,-3.2398,-3.2398,-3.2398,-3.2398,-3.2398,-3.2398,-3.2398,-3.2398,-3.2398,-3.2398,0.0,0.0,0.0,-3.161,-3.094,0.0,0.0,0.0,-3.0238,-2.9566,0.0,0.0,0.0,-2.8587,-2.8587,-2.8587,-2.8587,0.0,0.0,0.0,0.0,-2.8587,-2.8587,-2.8587,-2.8587,0.0,-2.8587,-2.8587,-2.8118,-2.7908,-2.7901,-2.8009,-2.8289,-2.8749,-2.9277,-2.9804,-3.0279,-3.0279,-3.0279,-3.0241,-2.9718,-2.9462,-2.9322,-2.8736,-2.8504,-2.8557,-3.0986,-3.0986,-3.0986,-3.0986,0.0,-3.1161,-3.1593,-3.1666,-3.1666,-3.1666,-3.3059,-3.4275,-3.4955,-3.5604,-3.6252,-3.6925,-3.646,0.0,0.0,0.0,0.0,-3.5094,-3.4656,-3.4414,-3.4414,-3.4414,-3.4414,-3.4414,-3.4414,-3.4414,-3.4414,-3.4414,-3.4601,-3.4986,-3.4986,0.0,-3.5544,-3.5863,0.0,-3.61,-3.61,-3.5936,-3.5722,-3.5981,-3.5508,-3.4751,-3.5306,-3.5152,-3.4582,-3.3967,-3.3598,-3.3306,-3.2752,-3.249,-3.2398,-3.2398,-3.2398,-3.2398,-3.2398,-3.2398,-3.2398,-3.2398,-3.2398,-3.2398,-3.2398,-3.2398,-3.2398,-3.2398,-3.2398,-3.2398,-3.2398,0.0,0.0,0.0,0.0,0.0,0.0,0.0,0.0,0.0,0.0,-2.9251,0.0,0.0,-2.8587,-2.8587,-2.8587,0.0,0.0,0.0,0.0,0.0,-2.8587,0.0,0.0,0.0,-2.8587,-2.8587,-2.849,-2.8457,-2.8484,-2.8966,-2.9238,-2.9403,-2.9958,-3.0227,-3.0279,-3.0279,-3.0279,-3.0279,-3.0253,-2.9873,-2.9351,-2.8729,-2.8504,-2.8506,-3.0986,-3.0986,-3.0986,-3.0986,0.0,0.0,0.0,-3.2809,-3.3101,-3.2773,-3.3748,-3.4874,-3.5838,-3.6755,-3.7418,-3.7738,-3.7476,-3.7157,-3.6852,-3.6214,-3.5741,-3.5407,-3.5101,-3.4748,-3.4428,-3.4414,-3.4414,-3.4414,0.0,-3.4414,-3.4414,-3.4414,-3.4582,-3.4902,0.0,-3.507,0.0,0.0,0.0,-3.5267,-3.5552,-3.5391,-3.5047,-3.5747,-3.5491,-3.4819,-3.5338,-3.4814,-3.3875,-3.3521,-3.3167,-3.2813,-3.249,-3.2398,-3.2398,-3.2398,-3.2398,-3.2398,-3.2398,-3.2398,-3.2398,-3.2398,-3.2398,-3.2398,-3.2398,-3.2398,-3.2398,-3.2398,-3.2398,-3.2398,-3.2398,-3.216,0.0,0.0,0.0,0.0,0.0,0.0,-3.1247,0.0,-3.0525,-3.0133,0.0,0.0,0.0,0.0,0.0,-2.8587,-2.8587,0.0,-2.8587,0.0,0.0,0.0,0.0,0.0,0.0,-2.8587,-2.8587,-2.8587,-2.86,-2.8885,-2.9376,-2.9977,-3.0271,-3.0743,-3.127,-3.0966,-3.0614,-3.034,-3.0033,-2.9738,-2.9382,-2.8763,-2.8752,-2.9013,-3.0986,-3.0986,0.0,0.0,-3.1644,-3.2263,-3.303,-3.4052,-3.4538,-3.4066,-3.4651,-3.5581,-3.6873,-3.7838,-3.8463,-3.8594,-3.8492,-3.8159,-3.7535,-3.6881,-3.6228,-3.5625,-3.5465,-3.5101,-3.4428,-3.4414,-3.4414,0.0,0.0,0.0,-3.4414,-3.4414,-3.4534,0.0,0.0,0.0,0.0,0.0,-3.4596,-3.4422,-3.4914,-3.4842,-3.4578,-3.543,-3.5315,-3.4713,-3.5217,-3.4587,-3.3512,-3.3416,-3.2952,-3.2398,-3.2398,-3.2398,-3.2398,-3.2398,-3.2398,-3.2398,-3.2398,-3.2398,-3.2398,-3.2398,-3.2398,-3.2398,-3.2398,-3.2398,-3.2398,-3.2398,-3.2398,-3.2398,-3.2398,-3.2342,0.0,0.0,0.0,0.0,0.0,0.0,-3.216,0.0,0.0,0.0,-2.9813,0.0,0.0,0.0,0.0,-2.8587,-2.8587,-2.8587,-2.8587,0.0,0.0,-2.8587,-2.8587,0.0,-2.8587,-2.8587,-2.8587,-2.8587,-2.8587,-2.8587,-2.9265,-3.0405,-3.0405,-3.1015,-3.1938,-3.1355,-3.0815,-3.0356,-2.9737,-2.9485,-2.9427,-2.8809,-2.8913,-2.9327,-3.0986,0.0,0.0,0.0,0.0,-3.3094,-3.4169,-3.4929,-3.5399,-3.5325,-3.6314,-3.7533,-3.8793,-3.9035,-3.9334,-3.9871,-3.9421,-3.8826,-3.8159,-3.7549,-3.6925,-3.6243,-3.5697,-3.5101,-3.4428,-3.4414,-3.4414,0.0,0.0,-3.4414,0.0,-3.4414,-3.4414,0.0,0.0,0.0,0.0,-3.3968,-3.4053,-3.4041,-3.41,-3.4246,-3.4437,-3.4848,-3.4394,-3.368,-3.4697,-3.4516,-3.3802,-3.3483,-3.2952,-3.2398,-3.2398,-3.2398,-3.2398,-3.2398,-3.2398,-3.2398,-3.2398,-3.2398,-3.2398,-3.2398,-3.2398,-3.2398,-3.2398,-3.2398,-3.2398,-3.2398,-3.2398,-3.2398,-3.2398,-3.2191,-3.2122,0.0,0.0,0.0,0.0,0.0,-3.216,-3.1566,0.0,0.0,-3.0494,-2.9858,0.0,0.0,-2.8912,-2.8587,-2.8587,-2.8587,-2.8587,-2.8587,0.0,-2.8587,-2.8587,-2.8587,-2.8587,-2.8587,-2.8587,-2.8587,-2.8587,-2.8587,-2.9265,-3.0405,-3.0405,-3.0771,-3.1327,-3.073,-3.0452,-3.0329,-2.974,-2.9483,-2.9416,-2.882,-2.8649,-2.8682,0.0,0.0,0.0,0.0,0.0,0.0,0.0,-3.5925,-3.6712,-3.7071,-3.7228,-3.7926,-3.9567,-3.9741,-3.9842,-4.0075,-3.9871,-3.9305,-3.8275,-3.797,-3.7389,-3.6359,-3.6069,-3.5459,-3.4428,-3.4414,-3.4414,0.0,0.0,0.0,0.0,0.0,0.0,0.0,0.0,-3.3736,-3.3503,-3.362,-3.3685,-3.3714,-3.4109,-3.4087,-3.3939,-3.4618,-3.4643,-3.4377,-3.5,-3.4796,-3.4163,-3.4061,-3.3541,-3.2921,-3.2521,-3.2398,-3.2398,-3.2398,-3.2398,-3.2398,-3.2398,-3.2398,-3.2398,-3.2398,-3.2398,-3.2398,-3.2398,-3.2398,-3.2398,-3.2398,-3.2398,-3.2398,-3.2398,-3.2163,-3.2094,-3.2342,0.0,0.0,0.0,0.0,0.0,-3.1824,0.0,-3.1379,-3.0299,-3.0133,0.0,0.0,0.0,-2.8587,-2.8587,-2.8587,-2.8587,-2.8587,0.0,-2.8587,-2.8587,-2.8587,-2.8587,-2.8587,-2.8587,-2.8587,-2.8587,-2.8587,-2.9048,-2.9876,-3.0242,-3.0554,-3.0717,-3.0106,-2.9849,-2.9794,-2.9184,-2.894,-2.8912,-2.8682,-2.8587,-2.8587,-3.1967,0.0,-3.2306,0.0,-3.4086,-3.5072,-3.5889,-3.6916,-3.7723,-3.8144,-3.7839,-3.8217,-3.99,-4.0104,-4.0104,-4.0104,-4.0104,-3.9567,-3.8275,-3.8202,-3.7636,-3.6359,-3.6301,0.0,-3.4443,-3.4414,-3.4414,-3.4414,-3.4414,0.0,0.0,0.0,0.0,0.0,-3.3779,-3.3678,-3.3503,-3.3503,-3.3503,-3.3547,-3.3949,-3.3978,-3.3823,-3.4493,-3.4735,-3.4802,-3.5136,-3.4937,-3.4535,-3.4437,-3.409,-3.3554,-3.2798,-3.2412,-3.2287,-3.237,-3.2398,-3.2398,-3.2398,-3.2398,-3.237,-3.2287,-3.2274,-3.2259,-3.2176,-3.2132,-3.2176,-3.2259,-3.2342,-3.237,-3.2287,-3.2051,-3.1938,-3.2247,0.0,0.0,0.0,-3.2178,0.0,-3.2122,-3.1868,-3.1437,-3.0763,-3.0405,0.0,0.0,0.0,-2.8587,-2.8587,-2.8587,-2.8587,0.0,0.0,0.0,-2.8587,-2.8587,-2.8587,-2.8587,-2.8587,-2.8587,-2.86,-2.8763,-2.9122,-2.9529,-2.9944,-3.0133,-3.0093,-2.9469,-2.9257,-2.9203,-2.8763,-2.8587,-2.8587,-2.8587,-2.8587,-2.8587,-3.2685,-3.2685,-3.3054,-3.4285,-3.5022,-3.5878,-3.7074,-3.7787,-3.8188,-3.8202,-3.8188,-3.8681,-3.9958,-4.0104,-4.0104,-4.0104,-4.0104,-3.9567,-3.8275,-3.8202,-3.7636,0.0,0.0,-3.5706,-3.4443,-3.4414,-3.4414,-3.4414,0.0,0.0,-3.4414,0.0,-3.4414,-3.4399,-3.4399,-3.4051,-3.3503,-3.3503,-3.3503,-3.3503,-3.3518,-3.3848,-3.4399,-3.4414,-3.4414,-3.4448,-3.4802,-3.4887,-3.485,-3.4522,-3.4394,-3.4203,-3.32,-3.2482,-3.2066,-3.2315,-3.2398,-3.2398,-3.2398,-3.2398,-3.2342,-3.2066,-3.1981,-3.1925,-3.1581,-3.1508,-3.161,-3.1925,-3.2219,-3.2315,-3.2038,-3.1739,-3.161,-3.1953,0.0,0.0,0.0,-3.2178,0.0,-3.237,-3.1566,-3.1364,-3.2272,-3.0645,0.0,0.0,0.0,0.0,0.0,0.0,0.0,-2.8587,-2.8587,0.0,-2.8587,-2.8587,-2.8587,-2.8587,-2.8587,-2.8587,-2.8614,-2.923,-2.9502,-2.9515,-2.9515,-2.9515,-2.9475,-2.8845,-2.86,-2.86,-2.8587,-2.8587,-2.8587,-2.8587,-2.8587,-2.8587,-3.386,-3.4295,-3.4837,-3.5607,-3.6281,-3.6884,-3.7236,-3.7825,-3.8202,-3.8202,-3.8202,-3.8522,-3.9392,-3.9842,-3.9929,0.0,-3.9857,-3.9567,0.0,-3.8202,-3.7636,-3.6359,-3.6301,-3.5706,-3.4443,-3.4414,-3.4414,-3.4414,0.0,0.0,0.0,-3.4414,-3.4182,-3.3808,-3.3808,-3.3692,-3.3503,-3.3503,-3.375,-3.4109,-3.4109,-3.424,-3.4414,-3.4414,-3.4414,-3.4414,-3.4501,-3.4582,-3.4539,-3.4434,-3.4149,-3.3759,-3.3619,-3.3156,-3.2543,-3.2216,-3.2274,-3.2398,-3.2398,-3.2398,-3.2342,-3.2066,-3.1996,-3.1896,-3.1581,-3.1682,-3.1868,-3.1996,-3.2066,-3.2094,-3.2025,-3.1538,-3.135,-3.1896,-3.171,0.0,-3.2315,0.0,-3.1695,-3.1781,-3.1306,-3.097,-3.0822,-3.0658,0.0,0.0,0.0,0.0,0.0,0.0,0.0,0.0,-2.799,0.0,-2.799,-2.8383,-2.8587,-2.8587,-2.8587,-2.8587,-2.86,-2.879,-2.8872,-2.8872,-2.8872,-2.8872,-2.8858,-2.8668,-2.8587,-2.8587,-2.8587,-2.8587,-2.8587,-2.8587,-2.8587,-2.8587,-3.4754,-3.5377,-3.6011,-3.6568,-3.7003,-3.738,-3.7596,-3.7938,-3.8202,-3.8202,-3.8202,-3.8362,-3.8783,-3.9392,0.0,-3.9233,-3.9538,-3.932,-3.8275,-3.8202,-3.7636,-3.6359,-3.6301,-3.5706,-3.4443,-3.4414,0.0,-3.4414,-3.4414,-3.4414,-3.4414,-3.4414,-3.4196,-3.3819,-3.3819,-3.3819,-3.3819,-3.3819,-3.4051,-3.4414,-3.4414,-3.4414,-3.4414,-3.4414,-3.4414,-3.4414,-3.4414,-3.4414,-3.4414,-3.4414,-3.4153,-3.3842,-3.3758,-3.3382,-3.2871,-3.2456,-3.2205,-3.2092,-3.2219,-3.2148,-3.2007,-3.171,-3.1625,-3.1538,-3.1234,-3.1408,-3.1625,-3.1625,-3.171,-3.1768,-3.1668,-3.1263,-3.1175,-3.171,-3.1523,-3.1523,-3.2163,0.0,-3.1364,0.0,0.0,0.0,0.0,-3.0249,-2.9753,0.0,0.0,0.0,0.0,0.0,0.0,-2.7691,-2.7705,0.0,-2.8044,-2.841,-2.8587,-2.8587,-2.8587,-2.8587,-2.8587,-2.8587,-2.8587,-2.8587,-2.8587,-2.8587,-2.8587,-2.8587,-2.8587,-2.8587,-2.8587,-2.8587,-2.8587,-2.8587,-2.8587,-2.8587,-3.5426,-3.5964,-3.6598,0.0,-3.738,0.0,-3.8127,-3.8202,-3.8202,-3.8202,-3.8202,-3.8202,-3.8202,-3.8754,-3.9131,-3.9131,0.0,0.0,0.0,-3.8202,-3.7636,-3.6359,-3.6301,-3.5706,-3.4443,-3.4414,-3.4414,-3.4414,-3.4414,-3.4414,-3.4414,-3.4414,-3.4414,-3.4414,-3.4414,-3.4414,-3.4414,-3.4414,-3.4414,-3.4414,-3.4414,-3.4414,-3.4414,-3.4414,-3.4414,-3.4414,-3.4414,-3.4414,-3.4414,-3.4414,-3.4414,-3.4312,-3.375,-3.332,-3.3024,-3.2885,-3.2192,-3.1581,-3.1868,-3.1739,-3.1422,-3.1087,-3.0999,-3.0911,-3.0657,-3.0807,-3.0999,-3.0999,-3.1248,-3.1379,-3.1058,-3.097,-3.1087,-3.1393,-3.1204,-3.1234,-3.1868,-3.1423,-3.1102,0.0,0.0,0.0,-3.044,-2.9566,-2.8958,0.0,0.0,0.0,0.0,0.0,-2.7026,-2.7623,-2.7651,-2.7936,-2.8519,-2.8573,-2.8587,-2.8587,-2.8587,-2.8587,-2.8587,-2.8587,-2.8587,-2.8587,-2.8587,-2.8587,-2.8587,-2.8587,-2.8587,-2.8587,-2.8587,-2.8587,-2.8587,-2.8587,-2.8587,-2.8587,0.0,0.0,-3.725,-3.7863,-3.7976,-3.8052,-3.8165,-3.8202,-3.8202,-3.8202,-3.8202,-3.8202,-3.8202,-3.8347,-3.8434,-3.8434,-3.8899,-3.8913,-3.8246,-3.8202,-3.7636,-3.6359,-3.6301,-3.5706,-3.4443,-3.4414,-3.4414,-3.4414,-3.4414,-3.4414,-3.4414,-3.4414,-3.4414,-3.4414,-3.4414,-3.4414,-3.4414,-3.4414,-3.4414,-3.4414,-3.4414,-3.4414,-3.4414,-3.4414,-3.4414,-3.4414,-3.4414,-3.4414,-3.4414,-3.4414,-3.4414,-3.4385,-3.424,-3.3827,-3.3232,-3.2448,-3.1886,-3.1508,-3.161,-3.1552,-3.1422,-3.1087,-3.0851,-3.0687,-3.0598,-3.0807,-3.0999,-3.0999,-3.1043,-3.1087,-3.1029,-3.0822,-3.0807,-3.1058,-3.1058,-3.1146,-3.1552,-3.1263,-3.0866,0.0,-3.0017,-2.9566,-2.9198,-2.911,-2.8678,0.0,0.0,0.0,0.0,-2.6467,-2.6717,-2.7013,-2.6996,-2.7311,-2.7908,-2.837,-2.8587,-2.8587,-2.8587,-2.8587,-2.8587,-2.8587,-2.8587,-2.8587,-2.8587,-2.8587,-2.8587,-2.8587,-2.8587,-2.8587,-2.8587,-2.8587,-2.8587,-2.8587,-2.8587,-2.8587,-3.6229,-3.7067,-3.7825,-3.8127,-3.8202,-3.8202,-3.8202,-3.8202,-3.8202,-3.8202,-3.8202,-3.8202,-3.8202,-3.8202,-3.8202,-3.8202,-3.8536,-3.8594,-3.8217,-3.7941,-3.7346,-3.6344,-3.604,-3.5415,-3.4428,-3.4414,-3.4414,-3.4414,-3.4414,-3.4414,-3.4414,-3.4414,-3.4414,-3.4414,-3.4414,-3.4414,-3.4414,-3.4414,-3.4414,-3.4414,-3.4414,-3.4414,-3.4414,-3.4414,-3.4414,-3.4414,-3.4414,-3.4414,-3.4414,-3.4414,-3.4414,-3.4414,-3.4414,-3.3978,-3.3391,-3.2837,-3.2131,-3.1456,-3.1308,-3.1175,-3.1029,-3.0851,-3.0717,-3.0598,-3.0598,-3.0717,-3.0836,-3.0836,-3.0836,-3.0836,-3.0836,-3.0687,-3.0687,-3.097,-3.0881,-3.0837,-3.0862,-3.0557,-3.0134,-2.9532,-2.9303,-2.8942,-2.8303,-2.8479,-2.8255,-2.7316,-2.7451,0.0,-2.6398,-2.6377,-2.6549,-2.6873,-2.6958,-2.7297,-2.7958,-2.8392,-2.8587,-2.8587,-2.8587,-2.8587,-2.8587,-2.8587,-2.8587,-2.8587,-2.8587,-2.8587,-2.8587,-2.8587,-2.8587,-2.8587,-2.8587,-2.8587,-2.8587,-2.8587,-2.8587,-2.8587,-3.6387,-3.7299,-3.8089,-3.8165,-3.8202,-3.8202,-3.8202,-3.8202,-3.8202,-3.8202,-3.8202,-3.8202,-3.8202,-3.8202,-3.8202,-3.8202,-3.8202,-3.8202,-3.8202,-3.7651,-3.7012,-3.6344,-3.5741,-3.5101,-3.4428,-3.4414,-3.4414,-3.4414,-3.4414,-3.4414,-3.4414,-3.4414,-3.4414,-3.4414,-3.4414,-3.4414,-3.4414,-3.4414,-3.4414,-3.4414,-3.4414,-3.4414,-3.4414,-3.4414,-3.4414,-3.4414,-3.4414,-3.4414,-3.4414,-3.4414,-3.4414,-3.4414,-3.4414,-3.4051,-3.3634,-3.3532,-3.2614,-3.1556,-3.1174,-3.0835,-3.0598,-3.0598,-3.0598,-3.0598,-3.0598,-3.0598,-3.0598,-3.0598,-3.0598,-3.0598,-3.0598,-3.0598,-3.0658,-3.0808,-3.0631,-3.0323,-2.9983,0.0,-2.9247,-2.8608,-2.8536,-2.8289,-2.7623,-2.7854,-2.7839,-2.7306,-2.7176,-2.7103,-2.7046,-2.6715,-2.6674,-2.7026,-2.7153,-2.7544,-2.8254,-2.8444,-2.8554,-2.8554,-2.8587,-2.8587,-2.8587,-2.8587,-2.8587,-2.8587,-2.8587,-2.8587,-2.8587,-2.8587,-2.8587,-2.8587,-2.8587,-2.8587,-2.8587,-2.8587,-2.8587,-2.8587,-3.6769,-3.7173,-3.761,-3.8127,-3.8202,-3.8202,-3.8202,-3.8202,-3.8202,-3.8202,-3.8202,-3.8202,-3.8202,-3.8202,-3.8202,-3.8202,-3.8202,-3.8202,-3.8202,-3.7651,-3.7012,-3.6344,-3.5741,-3.5101,-3.4428,-3.4414,-3.4414,-3.4414,-3.4414,-3.4414,-3.4414,-3.4414,-3.4414,-3.4414,-3.4414,-3.4414,-3.4414,-3.4414,-3.4414,-3.4414,-3.4414,-3.4414,-3.4414,-3.4414,-3.4414,-3.4414,-3.4414,-3.4414,-3.4414,-3.4414,-3.4414,-3.4414,-3.4414,-3.4356,-3.4167,-3.3663,-3.2948,-3.2222,-3.1586,-3.1004,-3.0598,-3.0598,-3.0598,-3.0598,-3.0598,-3.0598,-3.0598,-3.0598,-3.0598,-3.0598,-3.0598,-3.0598,-3.0513,-3.0205,-2.9929,-2.9638,-2.9292,0.0,-2.8594,-2.7927,-2.7855,-2.7594,-2.6997,-2.7445,-2.7706,-2.7646,-2.7907,-2.7983,-2.7753,-2.7589,-2.7394,-2.7247,-2.721,-2.7493,-2.8131,-2.8268,-2.8365,-2.8365,-2.8509,-2.8587,-2.8587,-2.8587,-2.8587,-2.8587,-2.8587,-2.8587,-2.8587,-2.8587,-2.8587,-2.8587,-2.8587,-2.8587,-2.8587,-2.8587,-2.8587,-2.8587,-3.6783,-3.7187,-3.7572,-3.7953,-3.8028,-3.8066,-3.8165,-3.8202,-3.8202,-3.8202,-3.8202,-3.8202,-3.8202,-3.8202,-3.8202,-3.8202,-3.8202,-3.8072,-3.7738,-3.7128,-3.6475,-3.5822,-3.5183,-3.4719,-3.4428,-3.4414,-3.4414,-3.4414,-3.4414,-3.4414,-3.4414,-3.4414,-3.4414,-3.4414,-3.4414,-3.4414,-3.4414,-3.4414,-3.4414,-3.4414,-3.4414,-3.4414,-3.4414,-3.4414,-3.4414,-3.4414,-3.4414,-3.4414,-3.4414,-3.4414,-3.4414,-3.4414,-3.4414,-3.4414,-3.4356,-3.4066,-3.3021,-3.183,-3.1192,-3.083,-3.0598,-3.0598,-3.0598,-3.0598,-3.0598,-3.0598,-3.0598,-3.0598,-3.0598,-3.0598,-3.0598,-3.0598,-3.0424,-2.9857,-2.9682,0.0,0.0,-2.8241,-2.794,-2.7287,-2.7492,-2.7579,-2.7316,-2.7868,-2.8245,-2.8245,-2.8484,-2.8566,-2.8462,-2.8161,-2.7966,-2.7852,-2.762,-2.7669,-2.7934,-2.8118,-2.8249,-2.8287,-2.8327,-2.836,-2.8444,-2.8444,-2.8444,-2.843,-2.8554,-2.8587,-2.8587,-2.8587,-2.8587,-2.8587,-2.8587,-2.8587,-2.8587,-2.8587,-2.8587,-2.8587,-3.6822,-3.7264,-3.7663,-3.7815,-3.7815,-3.7891,-3.8052,-3.8089,-3.8127,-3.8127,-3.8165,-3.8202,-3.8202,-3.8202,-3.8202,-3.8202,-3.8072,-3.7738,-3.7114,-3.646,-3.5865,-3.5421,-3.4762,-3.4414,-3.4414,-3.4414,-3.4414,-3.4414,-3.4414,-3.4414,-3.4414,-3.4414,-3.4414,-3.4414,-3.4414,-3.4414,-3.4414,-3.4414,-3.4414,-3.4414,-3.4414,-3.4414,-3.4414,-3.4414,-3.4414,-3.4414,-3.4414,-3.4414,-3.4414,-3.4414,-3.4414,-3.4414,-3.4414,-3.4414,-3.4414,-3.4414,-3.3151,-3.1613,-3.0974,-3.0714,-3.0598,-3.0598,-3.0598,-3.0598,-3.0598,-3.0598,-3.0598,-3.0598,-3.0598,-3.0598,-3.0598,-3.0598,-3.0394,-2.9784,0.0,0.0,0.0,-2.7982,-2.7766,-2.7314,-2.765,-2.7927,-2.7927,-2.8521,-2.8898,-2.8898,-2.8938,-2.8963,-2.8963,-2.8429,-2.8105,-2.8105,-2.7842,-2.7723,-2.7723,-2.7967,-2.8131,-2.8189,-2.8197,-2.8262,-2.8287,-2.8365,-2.8365,-2.8365,-2.8541,-2.8587,-2.8587,-2.8587,-2.8587,-2.8587,-2.8587,-2.8587,-2.8587,-2.8587,-2.8587,-2.8587,-3.7264,-3.7419,-3.7625,-3.7625,-3.7625,-3.7625,-3.7649,-3.7815,-3.7929,-3.7929,-3.8104,-3.8202,-3.8202,-3.8202,-3.8202,-3.8202,-3.7694,-3.7085,-3.6431,-3.5778,-3.545,-3.5392,-3.4762,-3.4414,-3.4414,-3.4414,-3.4414,-3.4414,-3.4414,-3.4414,-3.4414,-3.4414,-3.4414,-3.4414,-3.4414,-3.4414,-3.4414,-3.4414,-3.4414,-3.4414,-3.4414,-3.4414,-3.4414,-3.4414,-3.4414,-3.4414,-3.4414,-3.4414,-3.4414,-3.4414,-3.4414,-3.4414,-3.4414,-3.4414,-3.4414,-3.4414,-3.347,-3.2263,-3.1596,-3.1032,-3.0598,-3.0598,-3.0598,-3.0598,-3.0598,-3.0598,-3.0598,-3.0598,-3.0598,-3.0598,-3.0598,-3.0598,-3.0454,-3.0059,0.0,0.0,-2.9044,-2.8761,-2.8622,-2.8578,-2.8607,-2.8636,-2.8636,-2.9189,-2.9523,-2.9523,-2.9273,-2.9093,-2.9093,-2.8124,-2.7556,-2.7556,-2.7523,-2.7523,-2.7523,-2.7914,-2.8,-2.7842,-2.8327,-2.8476,-2.8287,-2.8476,-2.8587,-2.8587,-2.8587,-2.8587,-2.8587,-2.8587,-2.8587,-2.8587,-2.8587,-2.8587,-2.8587,-2.8587,-2.8587,-2.8587,-3.7109,-3.7187,-3.7264,-3.738,-3.7419,-3.7457,-3.7586,-3.7777,-3.7853,-3.7739,-3.7991,-3.8165,-3.8028,-3.8142,-3.8057,-3.768,-3.7433,-3.6867,-3.5793,-3.5537,-3.5218,-3.4791,-3.4545,-3.4414,-3.4414,-3.4414,-3.4414,-3.4414,-3.4414,-3.4414,-3.4414,-3.4414,-3.4414,-3.4414,-3.4414,-3.4414,-3.4414,-3.4414,-3.4414,-3.4414,-3.4414,-3.4414,-3.4414,-3.4414,-3.4414,-3.4414,-3.4414,-3.4414,-3.4414,-3.4414,-3.4414,-3.4414,-3.4414,-3.4414,-3.4414,-3.4414,-3.3514,-3.2423,-3.2176,-3.1366,-3.0598,-3.0598,-3.0598,-3.0598,-3.0598,-3.0598,-3.0598,-3.0598,-3.0598,-3.0598,-3.0598,-3.0598,-3.0424,-2.9828,0.0,-2.9421,-2.8922,-2.875,-2.8709,-2.8709,-2.9029,-2.9261,-2.9261,-2.9842,-3.0219,-3.0219,-2.9787,-2.9543,-2.9543,-2.8546,-2.7842,-2.749,-2.749,-2.749,-2.749,-2.7669,-2.7802,-2.8,-2.8066,-2.8118,-2.8197,-2.8346,-2.8379,-2.8308,-2.849,-2.8587,-2.8587,-2.8587,-2.8587,-2.8587,-2.8587,-2.8587,-2.8587,-2.8587,-2.8587,-2.8587,-3.6978,-3.6978,-3.7017,-3.7187,-3.7226,-3.7264,-3.738,-3.7586,-3.7663,-3.7495,-3.7801,-3.7953,-3.7815,-3.7991,-3.7858,-3.7162,-3.7041,-3.6497,-3.5395,-3.5183,-3.4864,-3.4428,-3.4414,-3.4414,-3.4414,-3.4414,-3.4414,-3.4414,-3.4414,-3.4414,-3.4414,-3.4414,-3.4414,-3.4414,-3.4414,-3.4414,-3.4414,-3.4414,-3.4414,-3.4414,-3.4414,-3.4414,-3.4414,-3.4414,-3.4414,-3.4414,-3.4414,-3.4414,-3.4414,-3.4414,-3.4414,-3.4414,-3.4414,-3.4414,-3.4414,-3.4414,-3.3659,-3.2774,-3.2539,-3.1714,-3.0829,-3.0656,-3.0598,-3.0598,-3.0598,-3.0598,-3.0598,-3.0598,-3.0598,-3.0598,-3.0598,-3.0598,-3.0467,-2.9987,-2.9914,-2.9769,-2.9363,-2.9305,-2.9305,-2.9305,-2.9653,-2.9914,-2.9914,-3.0321,-3.0598,-3.0598,-3.0099,-2.9747,-2.9605,-2.861,-2.7973,-2.7756,-2.759,-2.749,-2.749,-2.7556,-2.7689,-2.7914,-2.7901,-2.7934,-2.8,-2.8151,-2.8197,-2.8112,-2.8341,-2.8438,-2.8438,-2.8438,-2.8457,-2.8509,-2.8509,-2.8554,-2.8587,-2.8587,-2.8587,-2.8587,-3.6978,-3.6978,-3.6978,-3.6978,-3.6978,-3.6978,-3.6978,-3.7187,-3.7303,-3.7303,-3.7457,-3.7625,-3.7625,-3.7777,-3.7557,-3.6776,-3.6461,-3.5954,-3.5142,-3.466,-3.4414,-3.4414,-3.4414,-3.4414,-3.4414,-3.4414,-3.4414,-3.4414,-3.4414,-3.4414,-3.4414,-3.4414,-3.4414,-3.4414,-3.4414,-3.4414,-3.4414,-3.4414,-3.4414,-3.4414,-3.4414,-3.4414,-3.4414,-3.4414,-3.4414,-3.4414,-3.4414,-3.4414,-3.4414,-3.4414,-3.4414,-3.4414,-3.4414,-3.4414,-3.4414,-3.4414,-3.3964,-3.3358,-3.2687,-3.2002,-3.1366,-3.0757,-3.0598,-3.0598,-3.0598,-3.0598,-3.0598,-3.0598,-3.0598,-3.0598,-3.0598,-3.0598,-3.0598,-3.0598,-3.0598,-3.0598,-3.0598,-3.0598,-3.0598,-3.0598,-3.0598,-3.0598,-3.0598,-3.0598,-3.0598,-3.0598,-3.0099,-2.9605,-2.9131,-2.8085,-2.7756,-2.8287,-2.7776,-2.749,-2.749,-2.7689,-2.7689,-2.749,-2.7914,-2.8,-2.7822,-2.8,-2.8112,-2.8112,-2.8112,-2.8112,-2.8112,-2.8112,-2.8197,-2.8287,-2.8287,-2.843,-2.8587,-2.8587,-2.8587,-2.8587,-3.6978,-3.6978,-3.6978,-3.6978,-3.6978,-3.6978,-3.6978,-3.7187,-3.7264,-3.7109,-3.738,-3.7534,-3.738,-3.7187,-3.6785,-3.6053,-3.5533,-3.5008,-3.4445,-3.4414,-3.4414,-3.4414,-3.4414,-3.4414,-3.4414,-3.4414,-3.4414,-3.4414,-3.4414,-3.4414,-3.4414,-3.4414,-3.4414,-3.4414,-3.4414,-3.4414,-3.4414,-3.4414,-3.4414,-3.4414,-3.4414,-3.4414,-3.4414,-3.4414,-3.4414,-3.4414,-3.4414,-3.4414,-3.4414,-3.4414,-3.4414,-3.4414,-3.4414,-3.4414,-3.4414,-3.4414,-3.3964,-3.3358,-3.2687,-3.2002,-3.1366,-3.0757,-3.0598,-3.0598,-3.0598,-3.0598,-3.0598,-3.0598,-3.0598,-3.0598,-3.0598,-3.0598,-3.0598,-3.0598,-3.0598,-3.0598,-3.0598,-3.0598,-3.0598,-3.0598,-3.0598,-3.0598,-3.0598,-3.0598,-3.0598,-3.0598,-3.0099,-2.9605,-2.9131,-2.8798,-2.8702,-2.8862,-2.8333,-2.8072,-2.8072,-2.7756,-2.7623,-2.7723,-2.7822,-2.7855,-2.7822,-2.8,-2.8,-2.7901,-2.8046,-2.8112,-2.8112,-2.8112,-2.8112,-2.8164,-2.8164,-2.821,-2.8243,-2.8243,-2.8243,-2.8243,-3.6978,-3.6978,-3.6978,-3.6978,-3.6978,-3.6978,-3.6978,-3.7109,-3.7148,-3.7017,-3.7226,-3.7242,-3.6848,-3.6684,-3.6177,-3.5172,-3.464,-3.4268,-3.4122,-3.4196,-3.4312,-3.4414,-3.4414,-3.4414,-3.4414,-3.4414,-3.4414,-3.4414,-3.4414,-3.4414,-3.4414,-3.4414,-3.4414,-3.4414,-3.4414,-3.4414,-3.4414,-3.4414,-3.4414,-3.4414,-3.4414,-3.4414,-3.4414,-3.4414,-3.4414,-3.4414,-3.4414,-3.4414,-3.4414,-3.4414,-3.4414,-3.4414,-3.4414,-3.4414,-3.4414,-3.4414,-3.4138,-3.3703,-3.3064,-3.26,-3.2077,-3.1177,-3.0786,-3.0598,-3.0598,-3.0598,-3.0598,-3.0598,-3.0598,-3.0598,-3.0598,-3.0598,-3.0598,-3.0598,-3.0598,-3.0598,-3.0598,-3.0598,-3.0598,-3.0598,-3.0598,-3.0598,-3.0598,-3.0598,-3.0598,-3.0598,-3.0099,-2.9699,-2.9401,-2.899,-2.8798,-2.8798,-2.8268,-2.7973,-2.7973,-2.7656,-2.7556,-2.7689,-2.7689,-2.7689,-2.7689,-2.7802,-2.7802,-2.7689,-2.7802,-2.7868,-2.7868,-2.7868,-2.7901,-2.7967,-2.7967,-2.8046,-2.8112,-2.8112,-2.8112,-2.8112,-3.6978,-3.6978,-3.6978,-3.6978,-3.6978,-3.6978,-3.6978,-3.6978,-3.6978,-3.6978,-3.6936,-3.6722,-3.6174,-3.617,-3.5647,-3.4337,-3.3818,-3.373,-3.4025,-3.4094,-3.4162,-3.438,-3.438,-3.4414,-3.4414,-3.4414,-3.4414,-3.4414,-3.4414,-3.4414,-3.4414,-3.4414,-3.4414,-3.4414,-3.4414,-3.4414,-3.4414,-3.4414,-3.4414,-3.4414,-3.4414,-3.4414,-3.4414,-3.4414,-3.4414,-3.4414,-3.4414,-3.4414,-3.4414,-3.4414,-3.4414,-3.4414,-3.4414,-3.4414,-3.4414,-3.4414,-3.4414,-3.4283,-3.3663,-3.3503,-3.3198,-3.1917,-3.1134,-3.067,-3.0612,-3.0598,-3.0598,-3.0598,-3.0598,-3.0598,-3.0598,-3.0598,-3.0598,-3.0598,-3.0598,-3.0598,-3.0598,-3.0598,-3.0598,-3.0598,-3.0598,-3.0598,-3.0598,-3.0598,-3.0598,-3.0598,-3.0099,-2.9808,-2.9808,-2.8885,-2.8352,-2.8352,-2.7842,-2.7556,-2.7556,-2.7523,-2.749,-2.749,-2.749,-2.749,-2.749,-2.749,-2.749,-2.749,-2.749,-2.749,-2.749,-2.749,-2.7623,-2.7776,-2.7776,-2.7901,-2.8046,-2.8046,-2.8046,-2.8046,-3.6978,-3.6978,-3.6978,-3.6978,-3.6978,-3.6978,-3.6978,-3.6978,-3.6978,-3.6978,-3.661,-3.6258,-3.6117,-3.5245,-3.457,-3.4231,-3.3818,-3.364,-3.3709,-3.3957,-3.4128,-3.4162,-3.4312,-3.4414,-3.4414,-3.4414,-3.4414,-3.4414,-3.4414,-3.4414,-3.4414,-3.4414,-3.4414,-3.4414,-3.4414,-3.4414,-3.4414,-3.4414,-3.4414,-3.4414,-3.4414,-3.4414,-3.4414,-3.4414,-3.4414,-3.4414,-3.4414,-3.4414,-3.4414,-3.4414,-3.4414,-3.4414,-3.4414,-3.4414,-3.4414,-3.4414,-3.4414,-3.4283,-3.3663,-3.3503,-3.3314,-3.2498,-3.1801,-3.1177,-3.0714,-3.0598,-3.0598,-3.0598,-3.0598,-3.0598,-3.0598,-3.0598,-3.0598,-3.0598,-3.0598,-3.0598,-3.0598,-3.0598,-3.0598,-3.0598,-3.0598,-3.0598,-3.0598,-3.0598,-3.0598,-3.0598,-3.0099,-2.9808,-2.9808,-2.923,-2.8926,-2.8926,-2.8398,-2.8124,-2.8124,-2.7723,-2.749,-2.749,-2.749,-2.749,-2.749,-2.749,-2.749,-2.749,-2.749,-2.749,-2.749,-2.749,-2.7523,-2.7556,-2.7556,-2.759,-2.7636,-2.7636,-2.7636,-2.7636,-3.6978,-3.6978,-3.6978,-3.6978,-3.6978,-3.6978,-3.6978,-3.6978,-3.6978,-3.6978,-3.6483,-3.5991,-3.5695,-3.4801,-3.4076,-3.3796,-3.3579,-3.3501,-3.3605,-3.3764,-3.3922,-3.4094,-3.4196,-3.4312,-3.4414,-3.4414,-3.4414,-3.4414,-3.4414,-3.4414,-3.4414,-3.4414,-3.4414,-3.4414,-3.4414,-3.4414,-3.4414,-3.4414,-3.4414,-3.4414,-3.4414,-3.4414,-3.4414,-3.4414,-3.4414,-3.4414,-3.4414,-3.4414,-3.4414,-3.4414,-3.4414,-3.4414,-3.4414,-3.4414,-3.4414,-3.4414,-3.4414,-3.4341,-3.4008,-3.392,-3.3761,-3.3137,-3.2701,-3.2193,-3.125,-3.083,-3.0598,-3.0598,-3.0598,-3.0598,-3.0598,-3.0598,-3.0598,-3.0598,-3.0598,-3.0598,-3.0598,-3.0598,-3.0598,-3.0598,-3.0598,-3.0598,-3.0598,-3.0598,-3.0598,-3.0598,-3.0099,-2.9808,-2.9808,-2.9103,-2.872,-2.872,-2.8203,-2.7908,-2.7908,-2.7656,-2.749,-2.749,-2.749,-2.749,-2.749,-2.749,-2.749,-2.749,-2.749,-2.749,-2.749,-2.749,-2.749,-2.749,-2.749,-2.749,-2.749,-2.749,-2.749,-2.7451,-3.6978,-3.6978,-3.6978,-3.6978,-3.6978,-3.6978,-3.6978,-3.6978,-3.6978,-3.6978,-3.6399,-3.5766,-3.5245,-3.4506,-3.3838,-3.3333,-3.329,-3.3361,-3.3536,-3.357,-3.373,-3.3991,-3.4059,-3.4128,-3.4312,-3.4346,-3.438,-3.4414,-3.4414,-3.4414,-3.4414,-3.4414,-3.4414,-3.4414,-3.4414,-3.4414,-3.4414,-3.4414,-3.4414,-3.4414,-3.4414,-3.4414,-3.4414,-3.4414,-3.4414,-3.4414,-3.4414,-3.4414,-3.4414,-3.4414,-3.4414,-3.4414,-3.4414,-3.4414,-3.4414,-3.4414,-3.4414,-3.4414,-3.4414,-3.4414,-3.4283,-3.3794,-3.359,-3.3213,-3.2106,-3.1279,-3.0757,-3.0757,-3.067,-3.0598,-3.0598,-3.0598,-3.0598,-3.0598,-3.0598,-3.0598,-3.0598,-3.0598,-3.0598,-3.0598,-3.0598,-3.0598,-3.0598,-3.0598,-3.0598,-3.0598,-3.0099,-2.9747,-2.9685,-2.8803,-2.8254,-2.8157,-2.7723,-2.749,-2.749,-2.749,-2.749,-2.749,-2.749,-2.749,-2.749,-2.749,-2.749,-2.749,-2.749,-2.749,-2.749,-2.749,-2.749,-2.749,-2.749,-2.749,-2.749,-2.7385,-2.7346,-2.7301,-3.6978,-3.6978,-3.6978,-3.6978,-3.6978,-3.6978,-3.6978,-3.6978,-3.6978,-3.6978,-3.6019,-3.5287,-3.5203,-3.414,-3.3375,-3.329,-3.329,-3.3326,-3.3361,-3.3501,-3.3605,-3.3675,-3.3848,-3.3931,-3.3965,-3.4074,-3.423,-3.4414,-3.4414,-3.4414,-3.4414,-3.4414,-3.4414,-3.4414,-3.4414,-3.4414,-3.4414,-3.4414,-3.4414,-3.4414,-3.4414,-3.4414,-3.4414,-3.4414,-3.4414,-3.4414,-3.4414,-3.4414,-3.4414,-3.4414,-3.4414,-3.4414,-3.4414,-3.4414,-3.4414,-3.4414,-3.4414,-3.4414,-3.4414,-3.4414,-3.4385,-3.4312,-3.3877,-3.346,-3.3285,-3.2266,-3.1395,-3.1395,-3.0945,-3.0598,-3.0598,-3.0598,-3.0598,-3.0598,-3.0598,-3.0598,-3.0598,-3.0598,-3.0598,-3.0598,-3.0598,-3.0598,-3.0598,-3.0598,-3.0598,-3.0598,-3.0099,-2.9637,-2.9226,-2.8624,-2.8105,-2.7623,-2.7523,-2.749,-2.749,-2.749,-2.749,-2.749,-2.749,-2.749,-2.749,-2.749,-2.749,-2.749,-2.749,-2.749,-2.749,-2.749,-2.749,-2.749,-2.749,-2.749,-2.7438,-2.6974,-2.6824,-2.6713,-3.6978,-3.6978,-3.6978,-3.6978,-3.6978,-3.6978,-3.6978,-3.6978,-3.6866,-3.6553,-3.5738,-3.5062,-3.4674,-3.3845,-3.329,-3.329,-3.329,-3.329,-3.329,-3.3396,-3.3466,-3.3605,-3.3675,-3.3793,-3.3896,-3.3951,-3.404,-3.4122,-3.4312,-3.4414,-3.4414,-3.4414,-3.4414,-3.4414,-3.4414,-3.4414,-3.4414,-3.4414,-3.4414,-3.4414,-3.4414,-3.4414,-3.4414,-3.4414,-3.4414,-3.4414,-3.4414,-3.4414,-3.4414,-3.4414,-3.4414,-3.4414,-3.4414,-3.4414,-3.4414,-3.4414,-3.4414,-3.4414,-3.4414,-3.4414,-3.4414,-3.4414,-3.4196,-3.3993,-3.3993,-3.3267,-3.2498,-3.215,-3.1555,-3.1105,-3.1105,-3.0814,-3.0598,-3.0598,-3.0598,-3.0598,-3.0598,-3.0598,-3.0598,-3.0598,-3.0598,-3.0598,-3.0598,-3.0598,-3.0598,-3.0598,-2.9853,-2.9418,-2.9481,-2.8463,-2.7875,-2.7941,-2.7656,-2.749,-2.749,-2.749,-2.749,-2.749,-2.749,-2.749,-2.749,-2.749,-2.749,-2.749,-2.749,-2.749,-2.749,-2.749,-2.749,-2.749,-2.749,-2.734,-2.7027,-2.6798,-2.6478,-2.6125]}]]